[[{"header":{"parameterUnit":"m.s-1","parameterCategory":1,"la1":30.6,"la2":28.766,"lo1":-90.7593,"lo2":-88.6598,"dy":0.0162,"dx":0.0183,"nx":116,"ny":114,"refTime":"2023-07-25T12:00:00:Z","depth":0,"parameterNumber":2,"parameterNumberName":"U-component_of_WINDS"},"data":[0.0,0.0,0.0,0.0,0.0,0.0,0.0,0.0,0.0,0.0,0.0,0.0,0.0,0.0,0.0,0.0,0.0,0.0,0.0,0.0,0.0,0.0,0.0,0.0,0.0,0.0,0.0,0.0,0.0,0.0,0.0,0.0,0.0,0.0,0.0,0.0,0.0,0.0,0.0,0.0,0.0,0.0,0.0,0.0,0.0,0.0,0.0,0.0,0.0,0.0,0.0,0.0,0.0,0.0,0.0,0.0,0.0,0.0,0.0,0.0,0.0,0.0,0.0,0.0,0.0,0.0,0.0,0.0,0.0,0.0,0.0,0.0,0.0,0.0,0.0,0.0,0.0,0.0,0.0,0.0,0.0,0.0,0.0,0.0,0.0,0.0,0.0,0.0,0.0,0.0,0.0,0.0,0.0,0.0,0.0,0.0,0.0,0.0,0.0,0.0,0.0,0.0,0.0,0.0,0.0,0.0,0.0,0.0,0.0,0.0,0.0,0.0,0.0,0.0,0.0,0.0,0.0,0.0,0.0,0.0,0.0,0.0,0.0,0.0,0.0,0.0,0.0,0.0,0.0,0.0,0.0,0.0,0.0,0.0,0.0,0.0,0.0,0.0,0.0,0.0,0.0,0.0,0.0,0.0,0.0,0.0,0.0,0.0,0.0,0.0,0.0,0.0,0.0,0.0,0.0,0.0,0.0,0.0,0.0,0.0,0.0,0.0,0.0,0.0,0.0,0.0,0.0,0.0,0.0,0.0,0.0,0.0,0.0,0.0,0.0,0.0,0.0,0.0,0.0,0.0,0.0,0.0,0.0,0.0,0.0,0.0,0.0,0.0,0.0,0.0,0.0,0.0,0.0,0.0,0.0,0.0,0.0,0.0,0.0,0.0,0.0,0.0,0.0,0.0,0.0,0.0,0.0,0.0,0.0,0.0,0.0,0.0,0.0,0.0,0.0,0.0,0.0,0.0,0.0,0.0,0.0,0.0,0.0,0.0,0.0,0.0,0.0,0.0,0.0,0.0,0.0,0.0,0.0,0.0,0.0,0.0,0.0,0.0,0.0,0.0,0.0,0.0,0.0,0.0,0.0,0.0,0.0,0.0,0.0,0.0,0.0,0.0,0.0,0.0,0.0,0.0,0.0,0.0,0.0,0.0,0.0,0.0,0.0,0.0,0.0,0.0,0.0,0.0,0.0,0.0,0.0,0.0,0.0,0.0,0.0,0.0,0.0,0.0,0.0,0.0,0.0,0.0,0.0,0.0,0.0,0.0,0.0,0.0,0.0,0.0,0.0,0.0,0.0,0.0,0.0,0.0,0.0,0.0,0.0,0.0,0.0,0.0,0.0,0.0,0.0,0.0,0.0,0.0,0.0,0.0,0.0,0.0,0.0,0.0,0.0,0.0,0.0,0.0,0.0,0.0,0.0,0.0,0.0,0.0,0.0,0.0,0.0,0.0,0.0,0.0,0.0,0.0,0.0,0.0,0.0,0.0,0.0,0.0,0.0,0.0,0.0,0.0,0.0,0.0,0.0,0.0,0.0,0.0,0.0,0.0,0.0,0.0,0.0,0.0,0.0,0.0,0.0,0.0,0.0,0.0,0.0,0.0,0.0,0.0,0.0,0.0,0.0,0.0,0.0,0.0,0.0,0.0,0.0,0.0,0.0,0.0,0.0,0.0,0.0,0.0,0.0,0.0,0.0,0.0,0.0,0.0,0.0,0.0,0.0,0.0,0.0,0.0,0.0,0.0,0.0,0.0,0.0,0.0,0.0,0.0,0.0,0.0,0.0,0.0,0.0,0.0,0.0,0.0,0.0,0.0,0.0,0.0,0.0,0.0,0.0,0.0,0.0,0.0,0.0,0.0,0.0,0.0,0.0,0.0,0.0,0.0,0.0,0.0,0.0,0.0,0.0,0.0,0.0,0.0,0.0,0.0,0.0,0.0,0.0,0.0,0.0,0.0,0.0,0.0,0.0,0.0,0.0,0.0,0.0,0.0,0.0,0.0,0.0,0.0,0.0,0.0,0.0,0.0,0.0,0.0,0.0,0.0,0.0,0.0,0.0,0.0,0.0,0.0,0.0,0.0,0.0,0.0,0.0,0.0,0.0,0.0,0.0,0.0,0.0,0.0,0.0,0.0,0.0,0.0,0.0,0.0,0.0,0.0,0.0,0.0,0.0,0.0,0.0,0.0,0.0,0.0,0.0,0.0,0.0,0.0,0.0,0.0,0.0,0.0,0.0,0.0,0.0,0.0,0.0,0.0,0.0,0.0,0.0,0.0,0.0,0.0,0.0,0.0,0.0,0.0,0.0,0.0,0.0,0.0,0.0,0.0,0.0,0.0,0.0,0.0,0.0,0.0,0.0,0.0,0.0,0.0,0.0,0.0,0.0,0.0,0.0,0.0,0.0,0.0,0.0,0.0,0.0,0.0,0.0,0.0,0.0,0.0,0.0,0.0,0.0,0.0,0.0,0.0,0.0,0.0,0.0,0.0,0.0,0.0,0.0,0.0,0.0,0.0,0.0,0.0,0.0,0.0,0.0,0.0,0.0,0.0,0.0,0.0,0.0,0.0,0.0,0.0,0.0,0.0,0.0,0.0,0.0,0.0,0.0,0.0,0.0,0.0,0.0,0.0,0.0,0.0,0.0,0.0,0.0,0.0,0.0,0.0,0.0,0.0,0.0,0.0,0.0,0.0,0.0,0.0,0.0,0.0,0.0,0.0,0.0,0.0,0.0,0.0,0.0,0.0,0.0,0.0,0.0,0.0,0.0,0.0,0.0,0.0,0.0,0.0,0.0,0.0,0.0,0.0,0.0,0.0,0.0,0.0,0.0,0.0,0.0,0.0,0.0,0.0,0.0,0.0,0.0,0.0,0.0,0.0,0.0,0.0,0.0,0.0,0.0,0.0,0.0,0.0,0.0,0.0,0.0,0.0,0.0,0.0,0.0,0.0,0.0,0.0,0.0,0.0,0.0,0.0,0.0,0.0,0.0,0.0,0.0,0.0,0.0,0.0,0.0,0.0,0.0,0.0,0.0,0.0,0.0,0.0,0.0,0.0,0.0,0.0,0.0,0.0,0.0,0.0,0.0,0.0,0.0,0.0,0.0,0.0,0.0,0.0,0.0,0.0,0.0,0.0,0.0,0.0,0.0,0.0,0.0,0.0,0.0,0.0,0.0,0.0,0.0,0.0,0.0,0.0,0.0,0.0,0.0,0.0,0.0,0.0,0.0,0.0,0.0,0.0,0.0,0.0,0.0,0.0,0.0,0.0,0.0,0.0,0.0,0.0,0.0,0.0,0.0,0.0,0.0,0.0,0.0,0.0,0.0,0.0,0.0,0.0,0.0,0.0,0.0,0.0,0.0,0.0,0.0,0.0,0.0,0.0,0.0,0.0,0.0,0.0,0.0,0.0,0.0,0.0,0.0,0.0,0.0,0.0,0.0,0.0,0.0,0.0,0.0,0.0,0.0,0.0,0.0,0.0,0.0,0.0,0.0,0.0,0.0,0.0,0.0,0.0,0.0,0.0,0.0,0.0,0.0,0.0,0.0,0.0,0.0,0.0,0.0,0.0,0.0,0.0,0.0,0.0,0.0,0.0,0.0,0.0,0.0,0.0,0.0,0.0,0.0,0.0,0.0,0.0,0.0,0.0,0.0,0.0,0.0,0.0,0.0,0.0,0.0,0.0,0.0,0.0,0.0,0.0,0.0,0.0,0.0,0.0,0.0,0.0,0.0,0.0,0.0,0.0,0.0,0.0,0.0,0.0,0.0,0.0,0.0,0.0,0.0,0.0,0.0,0.0,0.0,0.0,0.0,0.0,0.0,0.0,0.0,0.0,0.0,0.0,0.0,0.0,0.0,0.0,0.0,0.0,0.0,0.0,0.0,0.0,0.0,0.0,0.0,0.0,0.0,0.0,0.0,0.0,0.0,0.0,0.0,0.0,0.0,0.0,0.0,0.0,0.0,0.0,0.0,0.0,0.0,0.0,0.0,0.0,0.0,0.0,0.0,0.0,0.0,0.0,0.0,0.0,0.0,0.0,0.0,0.0,0.0,0.0,0.0,0.0,0.0,0.0,0.0,0.0,0.0,0.0,0.0,0.0,0.0,0.0,0.0,0.0,0.0,0.0,0.0,0.0,0.0,0.0,0.0,0.0,0.0,0.0,0.0,0.0,0.0,0.0,0.0,0.0,0.0,0.0,0.0,0.0,0.0,0.0,0.0,0.0,0.0,0.0,0.0,0.0,0.0,0.0,0.0,0.0,0.0,0.0,0.0,0.0,0.0,0.0,0.0,0.0,0.0,0.0,0.0,0.0,0.0,0.0,0.0,0.0,0.0,0.0,0.0,0.0,0.0,0.0,0.0,0.0,0.0,0.0,0.0,0.0,0.0,0.0,0.0,0.0,0.0,0.0,0.0,0.0,0.0,0.0,0.0,0.0,0.0,0.0,0.0,0.0,0.0,0.0,0.0,0.0,0.0,0.0,0.0,0.0,0.0,0.0,0.0,0.0,0.0,0.0,0.0,0.0,0.0,0.0,0.0,0.0,0.0,0.0,0.0,0.0,0.0,0.0,0.0,0.0,0.0,0.0,0.0,0.0,0.0,0.0,0.0,0.0,0.0,0.0,0.0,0.0,0.0,0.0,0.0,0.0,0.0,0.0,0.0,0.0,0.0,0.0,0.0,0.0,0.0,0.0,0.0,0.0,0.0,0.0,0.0,0.0,0.0,0.0,0.0,0.0,0.0,0.0,0.0,0.0,0.0,0.0,0.0,0.0,0.0,0.0,0.0,0.0,0.0,0.0,0.0,0.0,0.0,0.0,0.0,0.0,0.0,0.0,0.0,0.0,0.0,0.0,0.0,0.0,0.0,0.0,0.0,0.0,0.0,0.0,0.0,0.0,0.0,0.0,0.0,0.0,0.0,0.0,0.0,0.0,0.0,0.0,0.0,0.0,0.0,0.0,0.0,0.0,0.0,0.0,0.0,0.0,0.0,0.0,0.0,0.0,0.0,0.0,0.0,0.0,0.0,0.0,0.0,0.0,0.0,0.0,0.0,0.0,0.0,0.0,0.0,0.0,0.0,0.0,0.0,0.0,0.0,0.0,0.0,0.0,0.0,0.0,0.0,0.0,0.0,0.0,0.0,0.0,0.0,0.0,0.0,0.0,0.0,0.0,0.0,0.0,0.0,0.0,0.0,0.0,0.0,0.0,0.0,0.0,0.0,0.0,0.0,0.0,0.0,0.0,0.0,0.0,0.0,0.0,0.0,0.0,0.0,0.0,0.0,0.0,0.0,0.0,0.0,0.0,0.0,0.0,0.0,0.0,0.0,0.0,0.0,0.0,0.0,0.0,0.0,0.0,0.0,0.0,0.0,0.0,0.0,0.0,0.0,0.0,0.0,0.0,0.0,0.0,0.0,0.0,0.0,0.0,0.0,0.0,0.0,0.0,0.0,0.0,0.0,0.0,0.0,0.0,0.0,0.0,0.0,0.0,0.0,0.0,0.0,0.0,0.0,0.0,0.0,0.0,0.0,0.0,0.0,0.0,0.0,0.0,0.0,0.0,0.0,0.0,0.0,0.0,0.0,0.0,0.0,0.0,0.0,0.0,0.0,0.0,0.0,0.0,0.0,0.0,0.0,0.0,0.0,0.0,0.0,0.0,0.0,0.0,0.0,0.0,0.0,0.0,0.0,0.0,0.0,0.0,0.0,0.0,0.0,0.0,0.0,0.0,0.0,0.0,0.0,0.0,0.0,0.0,0.0,0.0,0.0,0.0,0.0,0.0,0.0,0.0,0.0,0.0,0.0,0.0,0.0,0.0,0.0,0.0,0.0,0.0,0.0,0.0,0.0,0.0,0.0,0.0,0.0,0.0,0.0,0.0,0.0,0.0,0.0,0.0,0.0,0.0,0.0,0.0,0.0,0.0,0.0,0.0,0.0,0.0,0.0,0.0,0.0,0.0,0.0,0.0,0.0,0.0,0.0,0.0,0.0,0.0,0.0,0.0,0.0,0.0,0.0,0.0,0.0,0.0,0.0,0.0,0.0,0.0,0.0,0.0,0.0,0.0,0.0,0.0,0.0,0.0,0.0,0.0,0.0,0.0,0.0,0.0,-4.5855,0.0,0.0,0.0,0.0,0.0,0.0,0.0,0.0,0.0,0.0,0.0,0.0,0.0,0.0,0.0,0.0,0.0,0.0,0.0,0.0,0.0,0.0,0.0,0.0,0.0,0.0,0.0,0.0,0.0,0.0,0.0,0.0,0.0,0.0,0.0,0.0,0.0,0.0,0.0,0.0,0.0,0.0,0.0,0.0,0.0,0.0,0.0,0.0,0.0,0.0,0.0,0.0,0.0,0.0,0.0,0.0,0.0,0.0,0.0,0.0,0.0,0.0,0.0,0.0,0.0,0.0,0.0,0.0,0.0,0.0,0.0,0.0,0.0,0.0,0.0,0.0,0.0,0.0,0.0,0.0,0.0,0.0,0.0,0.0,0.0,0.0,0.0,0.0,0.0,0.0,0.0,0.0,0.0,0.0,0.0,0.0,0.0,0.0,0.0,0.0,0.0,0.0,0.0,0.0,0.0,0.0,0.0,0.0,0.0,0.0,0.0,0.0,0.0,0.0,0.0,0.0,-4.6778,0.0,0.0,0.0,0.0,0.0,0.0,0.0,0.0,0.0,0.0,0.0,0.0,0.0,0.0,0.0,0.0,0.0,0.0,0.0,0.0,0.0,0.0,0.0,0.0,0.0,0.0,0.0,0.0,0.0,0.0,0.0,0.0,0.0,0.0,0.0,0.0,0.0,0.0,0.0,0.0,0.0,0.0,0.0,0.0,0.0,0.0,0.0,0.0,0.0,0.0,0.0,0.0,0.0,0.0,0.0,0.0,0.0,0.0,0.0,0.0,0.0,0.0,0.0,0.0,0.0,0.0,0.0,0.0,0.0,0.0,0.0,0.0,0.0,0.0,0.0,0.0,0.0,0.0,0.0,0.0,0.0,0.0,0.0,0.0,0.0,0.0,0.0,0.0,0.0,0.0,0.0,0.0,0.0,0.0,0.0,0.0,0.0,0.0,0.0,0.0,0.0,0.0,0.0,0.0,0.0,0.0,0.0,0.0,0.0,-5.3414,-5.2615,-5.4049,-5.3914,-5.2423,-5.0029,-4.924,-4.9452,0.0,0.0,0.0,0.0,0.0,0.0,0.0,0.0,0.0,0.0,0.0,0.0,0.0,0.0,0.0,0.0,0.0,0.0,0.0,0.0,0.0,0.0,0.0,0.0,0.0,0.0,0.0,0.0,0.0,0.0,0.0,0.0,0.0,0.0,0.0,0.0,0.0,0.0,0.0,-3.6123,-3.7018,-3.7672,-3.8137,-3.9243,0.0,0.0,0.0,0.0,0.0,0.0,0.0,0.0,0.0,0.0,0.0,0.0,0.0,0.0,0.0,0.0,0.0,0.0,0.0,0.0,0.0,0.0,0.0,0.0,0.0,0.0,0.0,0.0,0.0,0.0,0.0,0.0,0.0,0.0,0.0,0.0,0.0,0.0,0.0,0.0,0.0,0.0,0.0,-4.0327,-4.2159,0.0,0.0,0.0,0.0,0.0,0.0,0.0,0.0,0.0,0.0,0.0,0.0,0.0,0.0,-5.2505,-5.3327,-5.4227,-5.5203,-5.6069,-5.603,-5.5203,-5.5434,-5.5415,-5.5107,-5.3318,0.0,-5.05,-5.0173,0.0,0.0,0.0,0.0,0.0,0.0,0.0,0.0,0.0,0.0,0.0,0.0,0.0,0.0,0.0,0.0,0.0,0.0,0.0,0.0,0.0,0.0,0.0,0.0,0.0,0.0,0.0,0.0,0.0,0.0,0.0,0.0,0.0,0.0,0.0,0.0,-3.4962,-3.5627,-3.6295,-3.703,-3.7504,-3.7745,-3.8543,-3.916,-3.9523,-3.887,0.0,0.0,0.0,0.0,0.0,0.0,0.0,0.0,0.0,0.0,0.0,0.0,0.0,0.0,0.0,0.0,0.0,0.0,0.0,0.0,0.0,0.0,0.0,0.0,0.0,0.0,0.0,0.0,0.0,0.0,0.0,0.0,0.0,0.0,0.0,0.0,0.0,0.0,0.0,-4.0892,-4.325,-4.4805,-4.5216,-4.5113,0.0,0.0,0.0,0.0,0.0,0.0,0.0,0.0,0.0,-4.9977,-5.2213,-5.3886,-5.49,-5.5909,-5.6648,-5.7109,-5.7538,-5.7261,-5.6426,-5.6426,-5.6145,-5.5665,-5.4914,-5.3645,-5.2029,-5.1097,-4.924,-4.6951,0.0,0.0,0.0,0.0,0.0,-4.5404,0.0,0.0,0.0,0.0,0.0,0.0,0.0,0.0,0.0,0.0,0.0,0.0,0.0,0.0,0.0,-2.7941,0.0,0.0,0.0,0.0,0.0,0.0,0.0,0.0,0.0,0.0,0.0,0.0,-3.4891,-3.5521,-3.618,-3.6769,-3.7088,-3.7163,-3.7666,-3.8546,-3.9545,-3.8526,-3.7721,0.0,0.0,0.0,0.0,0.0,0.0,0.0,0.0,0.0,0.0,0.0,0.0,0.0,0.0,0.0,0.0,0.0,0.0,0.0,0.0,0.0,0.0,0.0,0.0,0.0,0.0,0.0,0.0,0.0,0.0,0.0,0.0,0.0,0.0,0.0,0.0,0.0,0.0,-4.3504,-4.5574,-4.7226,-4.7941,-4.7906,0.0,0.0,0.0,0.0,0.0,0.0,-4.7876,-4.9646,-5.1288,-5.2723,-5.467,-5.6107,-5.694,-5.7823,-5.8323,-5.8491,-5.8339,-5.7827,-5.7003,-5.7003,-5.6522,-5.5684,-5.5472,-5.4568,-5.3106,-5.1856,-5.0183,-4.8375,-4.7778,-4.7009,0.0,-4.6971,-4.7219,-4.7323,0.0,0.0,0.0,0.0,0.0,0.0,0.0,0.0,0.0,0.0,0.0,0.0,0.0,0.0,-2.5365,-2.7272,-2.7182,-2.7457,0.0,0.0,0.0,0.0,0.0,0.0,0.0,0.0,0.0,-3.3478,-3.4259,-3.493,-3.5464,-3.5894,-3.6211,-3.6461,-3.6677,-3.7445,-3.8536,-3.8236,-3.7386,-3.6219,0.0,0.0,0.0,0.0,0.0,0.0,0.0,0.0,0.0,0.0,0.0,0.0,0.0,0.0,0.0,0.0,0.0,0.0,0.0,0.0,0.0,0.0,0.0,0.0,0.0,0.0,0.0,0.0,0.0,0.0,0.0,0.0,0.0,0.0,0.0,0.0,0.0,0.0,0.0,-4.9575,-4.945,0.0,0.0,0.0,0.0,-4.9321,-5.015,-5.1039,-5.2045,-5.3638,-5.4703,-5.5118,-5.689,-5.8038,-5.848,-5.88,-5.9052,-5.923,-5.8537,-5.7782,-5.7003,-5.7003,-5.6522,-5.5665,-5.4895,-5.4049,-5.3203,-5.3106,-5.1606,-4.9336,-4.9298,-4.874,-4.799,-4.8029,-4.8048,-4.8163,0.0,0.0,0.0,0.0,0.0,0.0,0.0,0.0,0.0,0.0,0.0,0.0,0.0,-2.2687,-2.4058,-2.5349,-2.577,-2.6096,-2.6299,0.0,0.0,0.0,0.0,0.0,0.0,0.0,-3.1702,-3.2569,-3.3386,-3.3719,-3.3603,-3.4112,-3.4292,-3.4236,-3.4515,-3.5232,-3.6294,-3.674,-3.6907,-3.6715,-3.5153,-3.4228,0.0,0.0,0.0,0.0,0.0,0.0,0.0,0.0,0.0,0.0,0.0,0.0,0.0,0.0,0.0,0.0,0.0,0.0,0.0,0.0,0.0,0.0,0.0,0.0,0.0,0.0,0.0,0.0,0.0,0.0,0.0,0.0,0.0,0.0,0.0,0.0,0.0,-5.0904,-5.1751,0.0,0.0,-5.1899,-5.1591,-5.1944,-5.2697,-5.3309,-5.3665,-5.5296,-5.605,-5.57,-5.7019,-5.7641,-5.7435,-5.7801,-5.7811,-5.7498,-5.7365,-5.661,-5.5322,-5.5365,-5.4914,-5.4087,-5.3799,-5.3164,-5.2365,-5.2365,-5.1529,-5.025,-5.025,-5.0048,-4.976,-4.976,-4.9413,-4.8971,0.0,0.0,0.0,0.0,0.0,0.0,0.0,0.0,0.0,0.0,0.0,-1.9205,-1.98,-2.1152,-2.241,-2.3381,-2.3908,-2.4247,-2.43,0.0,0.0,0.0,0.0,0.0,0.0,-2.9958,-3.0679,-3.1432,-3.2102,-3.2229,-3.1856,-3.2492,-3.267,-3.2504,-3.2914,-3.3477,-3.4221,-3.5125,-3.5949,-3.6557,-3.5278,-3.4494,-3.403,0.0,0.0,0.0,0.0,0.0,0.0,0.0,0.0,0.0,0.0,0.0,0.0,0.0,0.0,0.0,0.0,0.0,0.0,0.0,0.0,0.0,0.0,0.0,0.0,0.0,0.0,0.0,0.0,0.0,0.0,0.0,0.0,0.0,0.0,0.0,-4.9894,-5.2248,-5.3435,-5.4179,-5.4519,-5.4177,-5.4081,-5.4378,-5.4913,-5.5335,-5.5592,-5.6448,-5.6742,-5.6301,-5.6753,-5.6906,-5.6667,-5.6754,-5.6497,-5.5931,-5.5829,-5.5107,-5.3867,-5.3923,-5.3637,-5.308,-5.2834,-5.2403,-5.1845,-5.1596,-5.1183,-5.0712,-5.0712,-5.0712,-5.0654,-5.0366,-4.9894,-4.9317,0.0,0.0,0.0,0.0,0.0,0.0,0.0,0.0,0.0,0.0,-1.7189,-1.7823,-1.8288,-1.9356,-2.0449,-2.1453,-2.1574,-2.1897,-2.2539,-2.2777,0.0,0.0,0.0,0.0,-2.8987,-2.9012,-2.936,-3.0048,-3.0394,-3.0489,-3.029,-3.1004,-3.1335,-3.1401,-3.1904,-3.2254,-3.2504,-3.3495,-3.4508,-3.5548,-3.6052,-3.503,-3.3229,0.0,0.0,0.0,0.0,0.0,0.0,0.0,0.0,0.0,0.0,0.0,0.0,0.0,0.0,0.0,0.0,0.0,0.0,0.0,0.0,0.0,0.0,0.0,0.0,0.0,0.0,0.0,0.0,0.0,0.0,0.0,0.0,0.0,-4.7741,-4.8876,-5.0663,-5.3575,-5.4338,-5.4816,-5.5221,-5.54,-5.5843,-5.6763,-5.684,-5.7171,-5.7923,-5.7226,-5.683,-5.6905,-5.6224,-5.5992,-5.6273,-5.5769,-5.5235,-5.4701,-5.4059,-5.3403,-5.274,-5.282,-5.2836,-5.2778,-5.2028,-5.1717,-5.1659,-5.0913,-5.0616,-5.0616,-5.0673,-5.0673,-5.0558,-4.9702,-4.9375,-4.9086,0.0,0.0,0.0,0.0,0.0,0.0,0.0,0.0,0.0,0.0,-1.6061,-1.6677,-1.706,-1.8018,-1.896,-1.973,-1.9959,-2.0058,-2.0145,0.0,0.0,0.0,0.0,0.0,-2.714,-2.7475,-2.79,-2.8346,-2.8168,-2.7969,-2.7725,-2.7723,-2.8048,-2.8607,-2.8766,-2.9662,-3.108,-3.1329,-3.2139,-3.3334,-3.4729,-3.5091,-3.4756,0.0,0.0,0.0,0.0,0.0,0.0,0.0,0.0,0.0,0.0,0.0,0.0,0.0,0.0,0.0,0.0,0.0,0.0,0.0,0.0,0.0,0.0,0.0,0.0,0.0,0.0,0.0,0.0,0.0,0.0,0.0,0.0,-4.7653,-4.8677,-5.0366,-5.208,-5.3752,-5.5159,-5.6145,-5.6611,-5.6945,-5.729,-5.7648,-5.7666,-5.7519,-5.7152,-5.6932,-5.6271,-5.514,-5.4954,-5.4418,-5.3435,-5.346,-5.3187,-5.2632,-5.2666,-5.2323,-5.1583,-5.1751,-5.1525,-5.0967,-5.0238,-4.9948,-4.9931,-4.9135,-4.8817,-4.8933,-5.0212,-5.0308,-4.9721,-4.949,-4.8625,-4.7432,0.0,0.0,0.0,0.0,0.0,0.0,0.0,0.0,0.0,0.0,-1.4988,-1.5375,-1.5364,-1.6274,-1.7016,-1.729,-1.7729,-1.7983,-1.7915,0.0,0.0,0.0,0.0,-2.462,-2.5464,-2.6024,-2.6301,-2.6221,-2.607,-2.5805,-2.5409,-2.5451,-2.5788,-2.63,-2.676,-2.7667,-2.8954,-2.9656,-3.0397,-3.1273,-3.3132,-3.4074,-3.4424,-3.4666,-3.4502,-3.4247,-3.5058,-3.5169,-3.5068,-3.6087,0.0,0.0,0.0,0.0,0.0,0.0,0.0,0.0,0.0,0.0,0.0,0.0,0.0,0.0,0.0,0.0,0.0,0.0,0.0,0.0,0.0,0.0,0.0,0.0,-4.7581,-4.9218,-5.0345,-5.1654,-5.299,-5.4281,-5.5422,-5.6375,-5.7036,-5.7431,-5.7575,-5.7496,-5.7501,-5.7152,-5.6345,-5.5978,-5.5372,-5.4436,-5.3784,-5.304,-5.2221,-5.2103,-5.1712,-5.1102,-5.1298,-5.1005,-5.0252,-5.0127,-4.9865,0.0,-4.8804,-4.8594,-4.868,-4.827,-4.8106,0.0,0.0,0.0,0.0,0.0,-4.7509,-4.6278,0.0,0.0,0.0,0.0,0.0,0.0,0.0,0.0,0.0,0.0,0.0,-1.4015,-1.3516,-1.4338,-1.4849,-1.4649,-1.534,-1.5838,0.0,0.0,0.0,-2.0372,-2.2024,-2.3241,-2.3963,-2.4516,-2.452,-2.3961,-2.4018,-2.3793,-2.3309,-2.372,-2.4079,-2.4367,-2.5405,-2.6122,-2.6622,-2.8213,-2.8993,-2.9361,-3.1252,-3.2383,-3.3054,-3.4038,-3.4296,-3.4167,-3.4362,-3.46,-3.5017,-3.6041,0.0,0.0,0.0,0.0,0.0,0.0,0.0,0.0,0.0,0.0,0.0,0.0,0.0,0.0,0.0,0.0,0.0,0.0,0.0,0.0,0.0,0.0,0.0,0.0,-4.9441,-5.0828,-5.2232,-5.2646,-5.3318,-5.4612,-5.5173,-5.5755,-5.6585,-5.696,-5.6988,-5.6685,-5.6653,-5.6308,-5.55,0.0,0.0,0.0,0.0,-5.1946,-5.1827,-5.1245,-5.0602,-4.9914,-4.9908,-4.9565,-4.8903,-4.8312,-4.8104,-4.8207,-4.7663,-4.7549,-4.7733,-4.7778,-4.7799,-4.7827,-4.7923,-4.7971,-4.7875,-4.7048,-4.6259,0.0,0.0,0.0,0.0,0.0,0.0,0.0,0.0,0.0,0.0,-1.282,-1.2854,-1.2857,-1.265,-1.3063,-1.338,-1.3492,-1.3648,-1.4156,0.0,0.0,-1.8082,-1.9275,-2.0459,-2.1586,-2.2656,-2.2383,-2.2342,-2.2606,-2.1588,-2.1236,-2.142,-2.1083,-2.1541,-2.2696,-2.346,-2.4408,-2.5486,-2.6502,-2.7135,-2.753,-2.9161,-3.0897,-3.2649,-3.3902,-3.4376,-3.4409,-3.4978,-3.5249,-3.5466,-3.6641,-3.7093,-3.7343,-3.8153,0.0,0.0,0.0,0.0,0.0,0.0,0.0,0.0,0.0,0.0,0.0,0.0,0.0,0.0,0.0,0.0,0.0,0.0,0.0,0.0,-4.9947,-5.1221,-5.2198,-5.3145,-5.2789,-5.2694,-5.3373,-5.406,-5.4494,-5.4571,-5.5121,-5.5525,-5.5674,-5.5768,-5.5464,-5.4675,-5.4473,0.0,-5.2509,-5.216,-5.1373,-5.0109,-5.0003,-4.9583,-4.879,0.0,0.0,-4.7872,-4.7263,-4.7054,-4.716,-4.6618,-4.6502,-4.6647,-4.6134,-4.5947,-4.607,-4.6837,-4.7135,-4.7028,-4.6163,-4.5748,-4.5594,0.0,0.0,0.0,0.0,0.0,0.0,0.0,0.0,0.0,0.0,-1.2189,-1.2074,-1.1777,-1.2112,-1.231,-1.2245,-1.2627,0.0,0.0,-1.5664,-1.6731,-1.7728,-1.9075,-1.9999,-2.0493,-2.0654,-2.0719,-2.0679,-2.0058,-1.9852,-1.9991,-1.9778,-2.027,-2.1385,-2.2094,-2.3109,-2.43,-2.5082,-2.5821,-2.6598,-2.7851,-2.9284,-3.0847,-3.2582,-3.35,-3.3879,-3.424,-3.4509,-3.4957,-3.6301,-3.6847,-3.7169,-3.8069,-3.8432,-3.8302,0.0,0.0,0.0,0.0,0.0,0.0,0.0,0.0,0.0,0.0,0.0,0.0,0.0,0.0,-4.2905,0.0,0.0,-4.8712,-5.1011,-5.1866,-5.2369,-5.2808,-5.2553,-5.2496,-5.3058,-5.3203,-5.3449,-5.3851,-5.4385,-5.4683,-5.4697,-5.4814,-5.4572,-5.3849,-5.3427,-5.2821,-5.2013,-5.1226,-5.0418,-4.961,-4.8804,-4.8217,-4.7775,-4.7076,-4.6743,-4.6724,-4.6064,-4.5853,-4.6019,-4.5411,-4.5337,-4.565,-4.5462,-4.5429,-4.5542,-4.6049,-4.624,-4.6201,-4.5768,-4.5594,-4.5537,0.0,0.0,0.0,0.0,0.0,0.0,0.0,0.0,0.0,0.0,0.0,-1.1461,-1.1055,-1.1347,-1.1482,0.0,0.0,0.0,0.0,-1.4774,-1.5568,-1.6309,-1.7661,-1.8406,-1.8416,-1.9045,-1.9173,-1.8824,-1.8859,-1.8864,-1.8829,-1.9069,-1.9533,-2.0263,-2.1078,-2.2048,-2.3106,-2.3918,-2.4837,-2.5843,-2.689,-2.7751,-2.8699,-3.0662,-3.1992,-3.2832,-3.2974,-3.3311,-3.3933,-3.5395,-3.6085,-3.648,-3.7445,-3.7809,-3.7674,-3.662,-3.6305,0.0,0.0,0.0,0.0,0.0,0.0,0.0,0.0,0.0,-4.1574,-4.235,-4.3733,-4.5277,-4.6856,-4.8139,-4.9599,-5.1526,-5.1967,-5.2085,-5.2251,-5.203,-5.2039,-5.2535,-5.2308,-5.2405,-5.3131,-5.3614,-5.3838,-5.3718,-5.3861,-5.3738,-5.3222,-5.2435,-5.1922,-5.1756,-5.0363,-4.9445,-4.9114,-4.7755,-4.7021,-4.6856,-4.6049,-4.5663,-4.5645,-4.4907,-4.4692,-4.4886,-4.4431,-4.4467,-4.4858,-4.5197,-4.5361,-4.5438,-4.5523,-4.5454,-4.53,-4.5336,-4.5344,-4.5229,0.0,0.0,0.0,0.0,0.0,0.0,0.0,0.0,0.0,0.0,0.0,0.0,0.0,0.0,0.0,0.0,0.0,0.0,-1.3199,-1.4137,-1.5021,-1.5741,-1.6073,-1.6588,-1.7332,-1.7179,-1.7225,-1.7522,-1.7629,-1.7754,-1.7868,-1.8415,-1.8897,-1.9288,-2.0386,-2.1253,-2.1989,-2.3237,-2.4062,-2.4613,-2.5972,-2.6674,-2.7082,-2.8403,-2.9845,-3.1233,-3.1773,-3.2137,-3.2535,-3.3942,-3.4814,-3.5467,-3.6513,-3.6973,-3.699,-3.6474,0.0,-3.5862,-3.5358,-3.6194,-3.7345,-3.8053,-3.9221,-4.0524,0.0,0.0,-4.2655,-4.4025,-4.4939,-4.609,-4.7956,-4.9203,-5.0391,-5.174,-5.189,-5.19,-5.2102,-5.1103,-5.0432,-5.0655,-5.0965,-5.1095,-5.0955,-5.1665,-5.2228,-5.2552,-5.2933,-5.3152,-5.3203,-5.2435,-5.1665,-5.0967,-5.0088,-4.8875,-4.7388,-4.7186,-4.6727,-4.6012,-4.5223,-4.4837,-4.4819,-4.408,-4.3832,-4.3964,-4.4188,-4.4426,-4.4659,-4.4931,-4.5084,-4.5151,-4.5348,-4.4949,-4.4269,-4.4407,-4.4451,-4.4335,0.0,0.0,0.0,0.0,0.0,0.0,0.0,0.0,0.0,0.0,0.0,0.0,0.0,0.0,0.0,0.0,0.0,0.0,-1.3121,-1.4007,-1.4684,-1.5103,-1.557,-1.5991,-1.6365,-1.6166,-1.6392,-1.6996,-1.6879,-1.7061,-1.7522,-1.7965,-1.853,-1.9211,-2.0023,-2.0889,-2.175,-2.2581,-2.3363,-2.4078,-2.4789,-2.5529,-2.6296,-2.6919,-2.7959,-2.9252,-3.0342,-3.0823,0.0,0.0,-3.304,-3.3256,-3.4417,-3.4986,-3.5176,-3.4818,-3.4968,0.0,-3.5078,-3.6115,-3.7446,0.0,-3.9621,-4.1309,-4.2626,-4.3524,-4.4413,-4.5533,-4.6416,-4.7349,-4.8513,-4.9402,-5.0348,0.0,-5.1536,-5.1461,-5.1479,-5.0681,-4.9963,-4.9619,-4.9811,-5.0064,-5.0331,-5.0955,-5.1551,-5.2018,-5.2499,-5.2649,-5.2383,-5.1697,-5.093,-5.0123,-4.882,-4.781,-4.7113,-4.6159,-4.5517,-4.5186,-4.4397,-4.3993,-4.3993,-4.3679,-4.36,-4.3701,-4.403,-4.4254,-4.4402,-4.4726,-4.4919,-4.4953,-4.465,-4.4332,-4.4058,-4.4248,-4.3974,-4.3425,0.0,0.0,0.0,0.0,0.0,0.0,0.0,0.0,0.0,0.0,0.0,0.0,0.0,0.0,0.0,0.0,0.0,0.0,0.0,-1.3784,-1.4316,-1.4601,-1.5028,-1.536,-1.5463,-1.535,-1.5558,-1.6179,-1.6182,-1.6471,-1.7017,-1.757,-1.8138,-1.8804,-1.9506,-2.0324,-2.1282,-2.1877,-2.2633,-2.3454,-2.3834,-2.4535,-2.5348,-2.5768,-2.6427,-2.7347,-2.8899,-2.958,0.0,0.0,-3.122,-3.1275,-3.2213,-3.2782,-3.3078,-3.3024,-3.3606,-3.4399,-3.4879,-3.6045,0.0,-3.8457,-4.0062,-4.1773,-4.323,-4.4347,-4.5256,-4.6067,-4.686,-4.7502,-4.8024,-4.8682,-4.9503,-5.0612,-5.0831,-5.0837,-5.086,-5.0414,-4.9813,-4.9086,-4.9094,-4.935,-4.9884,-5.053,-5.1114,-5.1651,-5.2203,-5.2267,-5.1782,-5.1122,-5.0397,-4.9629,-4.7976,-4.6984,-4.6764,-4.5388,-4.4599,-4.436,-4.3773,-4.3515,-4.3515,-4.3515,-4.3532,-4.3582,-4.3844,-4.4017,-4.4106,-4.42,-4.4282,-4.4279,-4.3623,-4.3273,-4.3169,-4.3388,-4.3127,-4.2535,0.0,0.0,0.0,0.0,0.0,0.0,0.0,0.0,0.0,0.0,0.0,0.0,0.0,0.0,0.0,0.0,0.0,0.0,0.0,-1.332,-1.3857,-1.4384,-1.4097,-1.4151,-1.461,-1.45,-1.4528,-1.4684,-1.5503,-1.5936,-1.5959,-1.7075,-1.7613,-1.7707,-1.863,-1.9411,-2.0105,-2.1028,-2.1842,-2.2501,-2.343,-2.3831,-2.396,-2.4903,-2.533,-2.569,-2.7433,0.0,0.0,0.0,-2.9463,-2.9978,-3.0223,-3.0563,0.0,-3.1265,-3.211,-3.3283,-3.4882,0.0,-3.7429,-3.9535,-4.0748,-4.1893,-4.3838,-4.4317,-4.4526,-4.5185,-4.5571,-4.5848,-4.6037,-4.6753,-4.7722,-4.9031,-4.9628,-5.0068,-5.0375,-5.0253,-4.9813,-4.9086,-4.9001,-4.9063,0.0,-5.008,-5.0839,-5.1355,-5.1922,-5.2045,-5.1639,-5.096,-5.0297,-4.9629,-4.7976,-4.6727,-4.5938,-4.5112,-4.4305,-4.3551,-4.3515,-4.3515,-4.3515,-4.3515,-4.3515,-4.3515,-4.3582,-4.3684,-4.3747,-4.3123,-4.2891,-4.2901,-4.2291,-4.1619,-4.1036,-4.129,-4.1533,-4.1624,0.0,0.0,0.0,0.0,0.0,0.0,0.0,0.0,0.0,0.0,0.0,0.0,0.0,0.0,0.0,0.0,0.0,0.0,0.0,-1.3387,-1.3895,-1.387,-1.4153,-1.434,-1.4462,-1.4211,-1.4358,-1.4931,-1.5175,-1.5462,-1.585,-1.6676,-1.7168,-1.737,-1.8208,-1.8827,-1.9286,-2.0383,-2.1096,-2.1535,-2.2476,-2.3047,-2.3396,-2.4229,-2.4745,-2.5098,0.0,0.0,0.0,-2.7985,-2.8189,-2.8257,-2.8649,-2.8982,-2.9408,-3.0579,-3.1774,-3.301,-3.4243,0.0,-3.6793,-3.8576,-3.9795,-4.1083,-4.317,-4.3618,-4.3813,-4.4511,-4.4687,-4.4729,-4.4508,-4.5282,-4.6323,-4.7419,-4.8144,-4.8828,-4.9576,-4.9434,-4.9164,-4.9004,-4.9001,0.0,0.0,0.0,0.0,-5.0839,-5.1449,-5.1365,-5.0389,-5.0352,-4.9518,-4.7738,-4.6741,-4.5865,-4.5059,-4.427,-4.3754,-4.3515,-4.3515,-4.3515,-4.3515,-4.3515,-4.3221,-4.2708,-4.2772,-4.2527,-4.2062,-4.1974,-4.1954,-4.1906,-4.1315,-4.0946,-4.0672,-3.9813,-3.9651,-3.983,0.0,0.0,0.0,0.0,0.0,0.0,0.0,0.0,0.0,0.0,0.0,0.0,0.0,0.0,0.0,0.0,0.0,0.0,0.0,0.0,-1.3574,-1.3453,-1.3906,-1.4157,-1.4123,-1.4007,-1.4227,-1.4755,-1.4929,-1.5175,-1.5545,-1.6266,-1.6657,-1.6863,-1.7563,-1.811,-1.8473,-1.953,-2.0266,-2.0817,-2.1758,-2.2432,-2.2925,-2.3677,-2.4165,0.0,0.0,0.0,0.0,-2.6821,-2.7072,-2.726,-2.7587,-2.8066,-2.873,-3.001,-3.1294,-3.2559,-3.3785,-3.5094,-3.6487,-3.8217,-3.931,-4.0448,-4.2142,-4.2563,-4.2746,-4.318,-4.3075,-4.2905,-4.2881,-4.3426,-4.4372,-4.5896,-4.6921,-4.7981,-4.9342,-4.9556,-4.9624,-4.9765,-4.9796,-4.9726,0.0,0.0,0.0,-5.0425,-5.0682,-5.0421,-4.9513,-4.923,-4.8351,-4.6678,-4.5767,-4.5059,-4.4602,-4.3885,-4.3515,-4.3515,-4.3515,-4.3515,-4.3496,-4.3185,-4.2782,-4.2286,-4.2024,-4.1634,-4.1137,-4.0987,-4.0938,-4.0824,-3.989,-3.9591,-3.9557,-3.8406,-3.7947,-3.7976,0.0,0.0,0.0,0.0,0.0,0.0,0.0,0.0,0.0,0.0,0.0,0.0,0.0,0.0,0.0,0.0,0.0,0.0,0.0,0.0,0.0,-1.3173,-1.3427,-1.358,-1.358,-1.3901,-1.4048,-1.4062,-1.468,-1.4975,-1.4995,-1.5764,-1.6129,-1.6177,-1.6695,-1.7196,-1.7686,-1.8418,-1.9298,-2.0322,-2.1239,-2.1924,-2.2448,-2.3202,0.0,0.0,0.0,0.0,0.0,0.0,-2.6268,-2.7057,-2.7081,-2.7828,-2.882,-2.9617,-3.0668,-3.1902,-3.356,-3.4958,-3.6395,-3.8351,-3.9246,-3.9955,-4.0819,-4.1143,-4.1265,-4.1235,-4.0726,-4.0472,0.0,0.0,-4.1996,-4.4363,-4.5877,-4.7491,-4.9548,-5.046,-5.0989,0.0,0.0,0.0,0.0,0.0,0.0,-5.0155,0.0,-4.9276,-4.9043,-4.7788,-4.6845,-4.6406,-4.5068,-4.4418,-4.4529,-4.383,-4.3515,-4.3515,-4.3515,-4.3478,-4.3423,-4.2653,-4.2268,-4.2139,-4.1368,-4.1022,-4.0912,-4.0157,-3.9808,-3.9641,-3.8173,-3.7683,-3.7758,-3.7063,-3.6472,-3.6176,0.0,0.0,0.0,0.0,0.0,0.0,0.0,0.0,0.0,0.0,0.0,0.0,0.0,0.0,0.0,0.0,0.0,0.0,0.0,0.0,0.0,0.0,0.0,0.0,0.0,0.0,0.0,0.0,-1.4128,-1.4422,-1.4643,-1.51,-1.5372,-1.5554,-1.5864,-1.6256,-1.6736,-1.7671,-1.851,-1.9297,0.0,-2.1265,-2.203,0.0,0.0,0.0,0.0,0.0,0.0,0.0,0.0,0.0,-2.8225,-2.9,-2.9834,-3.0432,-3.1332,-3.2346,-3.3595,-3.4482,-3.5512,-3.7254,-3.8145,-3.8793,-3.9469,-3.9771,-3.9768,-3.926,-3.902,-3.8796,0.0,0.0,0.0,-4.2395,-4.4138,0.0,-4.8722,-4.9443,0.0,-5.1085,0.0,-5.0304,-5.0101,-4.9641,0.0,0.0,-4.9143,-4.8747,-4.8224,-4.7068,-4.5923,-4.4818,-4.4243,-4.3786,-4.3488,-4.3485,-4.3515,-4.3515,-4.3515,-4.3185,-4.2598,-4.2396,-4.1644,-4.0487,-4.0304,-3.9863,-3.9313,-3.9093,-3.8652,-3.808,-3.7732,-3.7312,-3.6771,-3.6049,-3.5413,-3.4859,0.0,0.0,0.0,0.0,0.0,0.0,0.0,0.0,0.0,0.0,0.0,0.0,0.0,0.0,0.0,0.0,0.0,0.0,0.0,0.0,0.0,0.0,0.0,0.0,0.0,0.0,0.0,0.0,0.0,0.0,0.0,-1.4569,-1.4902,-1.5137,-1.552,-1.6006,-1.6661,-1.7406,0.0,0.0,0.0,0.0,0.0,0.0,0.0,0.0,0.0,0.0,0.0,0.0,0.0,-2.8597,-2.9638,-3.031,-3.0743,-3.1019,0.0,-3.2592,-3.3281,-3.4006,-3.4843,-3.6034,-3.6779,-3.736,-3.7899,-3.8258,-3.8437,-3.8033,-3.7749,0.0,-3.7419,0.0,0.0,0.0,0.0,0.0,-4.8733,-4.979,-5.0627,0.0,-5.1319,0.0,-5.0152,-4.9729,-4.9252,0.0,-4.8246,-4.79,-4.7683,-4.5926,-4.4644,-4.4048,-4.3483,-4.3161,-4.3142,-4.3286,-4.3375,-4.3375,-4.3428,-4.3042,-4.2237,-4.1921,-4.1093,-3.9879,0.0,-3.8909,-3.8175,-3.8175,-3.7698,-3.6942,-3.6585,-3.6251,-3.5799,-3.4628,-3.4036,-3.3687,0.0,0.0,0.0,0.0,0.0,0.0,0.0,0.0,0.0,0.0,0.0,0.0,0.0,0.0,0.0,0.0,0.0,0.0,0.0,0.0,0.0,0.0,0.0,0.0,0.0,0.0,0.0,0.0,0.0,0.0,0.0,0.0,0.0,0.0,0.0,0.0,0.0,0.0,0.0,0.0,0.0,0.0,0.0,0.0,0.0,0.0,0.0,0.0,0.0,0.0,-2.96,-2.9683,-3.1051,-3.1499,-3.1512,-3.1587,-3.2129,-3.2704,-3.2823,-3.3467,-3.426,-3.481,-3.5452,-3.6043,-3.6274,-3.6754,-3.712,-3.703,0.0,-3.6417,-3.7045,-3.7376,-3.836,-4.0924,0.0,-4.5588,-4.8856,-5.0482,-5.1529,-5.2099,-5.2147,-5.1606,-5.0219,-4.9915,-4.9272,-4.799,-4.714,-4.6783,-4.7021,-4.4587,-4.328,-4.3483,-4.2761,-4.2614,-4.3087,-4.3142,-4.316,-4.316,-4.3195,-4.2774,-4.2005,-4.1231,-4.0474,-3.9664,0.0,0.0,-3.7492,-3.7382,-3.6868,-3.6046,-3.5298,-3.4936,-3.4678,-3.3206,-3.2631,-3.2457,0.0,0.0,0.0,0.0,0.0,0.0,0.0,0.0,0.0,0.0,0.0,0.0,0.0,0.0,0.0,0.0,0.0,0.0,0.0,0.0,0.0,0.0,0.0,0.0,0.0,0.0,0.0,0.0,0.0,0.0,0.0,0.0,0.0,0.0,0.0,0.0,0.0,0.0,0.0,0.0,0.0,0.0,0.0,0.0,0.0,0.0,0.0,0.0,0.0,0.0,-3.0544,-3.0717,-3.1751,-3.2077,-3.2164,-3.2641,-3.2898,-3.2958,-3.273,-3.314,-3.3713,-3.4022,-3.4957,-3.5619,-3.5054,-3.5407,0.0,0.0,-3.4938,-3.504,-3.5714,-3.6315,-3.7409,-3.9598,0.0,0.0,0.0,0.0,-5.0659,0.0,0.0,0.0,0.0,0.0,0.0,0.0,0.0,0.0,-4.5083,-4.3537,-4.2395,-4.1833,-4.2087,-4.2338,-4.2536,-4.2825,-4.2939,-4.2939,-4.2396,-4.1776,-4.1025,-4.0221,-3.9449,-3.869,0.0,0.0,-3.7456,-3.6795,-3.6009,-3.5206,-3.5059,-3.4197,-3.3031,-3.2706,-3.1832,-3.0738,0.0,0.0,0.0,0.0,0.0,0.0,0.0,0.0,0.0,0.0,0.0,0.0,0.0,0.0,0.0,0.0,0.0,0.0,0.0,0.0,0.0,0.0,0.0,0.0,0.0,0.0,0.0,0.0,0.0,0.0,0.0,0.0,0.0,0.0,0.0,0.0,0.0,0.0,0.0,0.0,0.0,0.0,0.0,0.0,0.0,0.0,0.0,0.0,0.0,0.0,-3.091,-3.1534,-3.2406,-3.2667,-3.2717,-3.3006,-3.3124,-3.2998,-3.2504,-3.2621,-3.2907,-3.3096,-3.3795,-3.4377,-3.4061,0.0,0.0,0.0,-3.4503,-3.4713,-3.5385,-3.6043,0.0,-3.8665,0.0,0.0,0.0,0.0,0.0,0.0,0.0,0.0,0.0,0.0,0.0,0.0,0.0,0.0,-4.4615,-4.3027,-4.1886,-4.1295,-4.1683,-4.1963,-4.2133,-4.2297,-4.2201,-4.1848,-4.1643,-4.0944,-3.9858,-3.9634,-3.915,-3.841,0.0,0.0,-3.6813,-3.5973,-3.5133,-3.4325,-3.3903,-3.328,-3.2491,-3.1647,-3.0883,-3.0184,0.0,0.0,0.0,0.0,0.0,0.0,0.0,0.0,0.0,0.0,0.0,0.0,0.0,0.0,0.0,0.0,0.0,0.0,0.0,0.0,0.0,0.0,0.0,0.0,0.0,0.0,0.0,0.0,0.0,0.0,0.0,0.0,0.0,0.0,0.0,0.0,0.0,0.0,0.0,0.0,0.0,0.0,0.0,0.0,0.0,0.0,0.0,0.0,0.0,0.0,-3.1004,-3.1888,-3.2536,-3.288,-3.3124,-3.3124,-3.3124,-3.2918,-3.2227,-3.2164,-3.2252,-3.218,-3.2723,-3.3281,-3.3153,-3.3566,0.0,0.0,-3.4294,-3.4517,-3.5355,-3.5923,-3.6676,0.0,-3.9993,0.0,0.0,0.0,0.0,0.0,0.0,0.0,0.0,0.0,0.0,0.0,0.0,0.0,0.0,-4.2355,-4.1353,-4.1065,-4.1318,-4.1503,-4.1683,-4.1594,-4.129,-4.0754,-4.064,-3.9992,-3.8923,-3.9047,-3.8694,-3.8027,0.0,0.0,0.0,-3.5096,-3.427,-3.3476,-3.2839,-3.2381,-3.1922,-3.0668,-3.0099,-2.9861,0.0,0.0,0.0,0.0,0.0,0.0,0.0,0.0,0.0,0.0,0.0,0.0,0.0,0.0,0.0,0.0,0.0,0.0,0.0,0.0,0.0,0.0,0.0,0.0,0.0,0.0,0.0,0.0,0.0,0.0,0.0,0.0,0.0,0.0,0.0,0.0,0.0,0.0,0.0,0.0,0.0,0.0,0.0,0.0,0.0,0.0,0.0,0.0,0.0,0.0,0.0,-3.1474,-3.1524,-3.2252,-3.3124,-3.3124,0.0,0.0,-3.1763,-3.1871,-3.2122,-3.1476,-3.2322,-3.3099,-3.2395,0.0,0.0,-3.3558,-3.3589,-3.3978,-3.5265,-3.5549,-3.5999,0.0,0.0,-3.9956,0.0,0.0,0.0,0.0,0.0,0.0,0.0,0.0,0.0,0.0,0.0,0.0,0.0,-4.0832,-4.048,-4.0566,-4.0789,-4.0913,-4.0989,-4.062,-4.0394,-4.0254,-3.9115,-3.8593,-3.8625,-3.8042,-3.7469,-3.6916,0.0,0.0,0.0,-3.422,-3.344,-3.2693,-3.2619,-3.1702,-3.0411,-3.0246,-2.9739,-2.9097,0.0,0.0,0.0,0.0,0.0,0.0,0.0,0.0,0.0,0.0,0.0,0.0,0.0,0.0,0.0,0.0,0.0,0.0,0.0,0.0,0.0,0.0,0.0,0.0,0.0,0.0,0.0,0.0,0.0,0.0,0.0,0.0,0.0,0.0,0.0,0.0,0.0,0.0,0.0,0.0,0.0,0.0,0.0,0.0,0.0,0.0,0.0,0.0,0.0,0.0,0.0,0.0,-3.0922,-3.1449,0.0,0.0,-3.2315,-3.1964,-3.1512,-3.151,-3.1565,-3.1281,-3.178,-3.2283,-3.2125,0.0,-3.2671,-3.3348,-3.3499,-3.3903,-3.525,-3.5504,-3.5677,0.0,0.0,0.0,0.0,0.0,0.0,0.0,0.0,0.0,0.0,0.0,0.0,0.0,0.0,0.0,0.0,-4.0383,-4.0313,-4.0387,-4.0541,-4.0415,-3.9986,-3.9841,-3.9335,-3.8451,-3.7978,-3.74,-3.6745,-3.6621,-3.631,-3.5784,0.0,0.0,0.0,-3.277,-3.2065,-3.1779,-3.1247,-3.0674,-3.0088,-2.96,-2.9239,-2.9005,0.0,0.0,0.0,0.0,0.0,0.0,0.0,0.0,0.0,0.0,0.0,0.0,0.0,0.0,0.0,0.0,0.0,0.0,0.0,0.0,0.0,0.0,0.0,0.0,0.0,0.0,0.0,0.0,0.0,0.0,0.0,0.0,0.0,0.0,0.0,0.0,0.0,0.0,0.0,0.0,0.0,0.0,0.0,0.0,0.0,0.0,0.0,0.0,0.0,0.0,0.0,0.0,0.0,0.0,0.0,0.0,-3.1741,-3.1442,-3.1279,-3.1311,-3.1371,-3.1341,-3.1546,-3.1839,0.0,0.0,-3.252,-3.3333,-3.3649,-3.4143,-3.5295,-3.5504,-3.5554,0.0,0.0,-3.7665,0.0,0.0,0.0,0.0,0.0,0.0,0.0,0.0,0.0,0.0,0.0,0.0,0.0,-3.9866,-3.9915,-3.9915,-3.981,-3.9484,-3.8973,-3.8758,-3.8042,-3.685,-3.6719,-3.6077,-3.5035,-3.5275,-3.501,0.0,0.0,0.0,0.0,-3.1601,-3.1021,-3.0792,-3.0176,-2.9836,-2.9625,-2.9059,-2.8717,-2.8592,0.0,0.0,0.0,0.0,0.0,0.0,0.0,0.0,0.0,0.0,0.0,0.0,0.0,0.0,0.0,0.0,0.0,0.0,0.0,0.0,0.0,0.0,0.0,0.0,0.0,0.0,0.0,0.0,0.0,0.0,0.0,0.0,0.0,0.0,0.0,0.0,0.0,0.0,0.0,0.0,0.0,0.0,0.0,0.0,0.0,0.0,0.0,0.0,0.0,0.0,0.0,0.0,0.0,0.0,0.0,0.0,-3.1533,-3.1582,-3.1064,-3.1344,-3.1782,-3.1628,-3.1787,-3.2004,0.0,-3.2564,-3.3097,-3.3438,-3.4039,-3.4713,-3.5385,-3.5504,-3.5554,-3.5688,0.0,0.0,0.0,0.0,0.0,0.0,0.0,0.0,0.0,0.0,0.0,0.0,0.0,0.0,0.0,0.0,-3.9005,-3.9005,-3.8311,-3.7922,-3.7922,-3.7261,-3.6565,-3.5795,-3.5215,-3.4555,-3.3925,-3.4142,0.0,0.0,0.0,0.0,0.0,-3.0953,-3.0522,-2.9802,-2.9802,-2.9352,-2.8712,-2.8712,-2.8239,-2.7606,0.0,0.0,0.0,0.0,0.0,0.0,0.0,0.0,0.0,0.0,0.0,0.0,0.0,0.0,0.0,0.0,0.0,0.0,0.0,0.0,0.0,0.0,0.0,0.0,0.0,0.0,0.0,0.0,0.0,0.0,0.0,0.0,0.0,0.0,0.0,0.0,0.0,0.0,0.0,0.0,0.0,0.0,0.0,0.0,0.0,0.0,0.0,0.0,0.0,0.0,0.0,0.0,0.0,0.0,0.0,-3.0494,-3.0569,0.0,-3.1006,-3.1331,-3.1657,-3.1877,-3.2283,-3.2672,-3.2922,-3.3091,-3.3386,-3.4052,-3.4354,-3.4713,-3.5385,-3.5504,-3.5504,-3.5554,-3.5686,0.0,0.0,0.0,0.0,0.0,0.0,0.0,0.0,0.0,0.0,0.0,0.0,0.0,0.0,0.0,-3.7161,-3.821,-3.8024,-3.7669,-3.7168,-3.6389,-3.5633,-3.491,-3.4202,-3.325,-3.2127,-3.2282,0.0,0.0,0.0,0.0,0.0,-2.8572,-2.8018,-2.7828,-2.7269,-2.6979,-2.685,-2.6904,-2.6826,-2.6713,0.0,0.0,0.0,0.0,0.0,0.0,0.0,0.0,0.0,0.0,0.0,0.0,0.0,0.0,0.0,0.0,0.0,0.0,0.0,0.0,0.0,0.0,0.0,0.0,0.0,0.0,0.0,0.0,0.0,0.0,0.0,0.0,0.0,0.0,0.0,0.0,0.0,0.0,0.0,0.0,0.0,0.0,-2.8675,0.0,0.0,0.0,0.0,0.0,0.0,0.0,0.0,0.0,0.0,0.0,0.0,0.0,-3.0267,-3.042,0.0,-3.151,-3.2028,-3.2439,-3.2826,0.0,-3.3511,-3.3606,-3.3806,-3.4397,-3.4713,-3.4996,-3.5429,-3.5504,-3.5504,-3.5504,-3.5572,0.0,0.0,0.0,0.0,0.0,0.0,0.0,0.0,0.0,0.0,0.0,0.0,0.0,0.0,0.0,-3.5785,-3.6197,-3.6214,-3.5977,-3.552,-3.503,-3.4269,-3.3237,-3.2797,-3.1822,-3.0442,0.0,0.0,0.0,0.0,0.0,0.0,-2.6711,-2.625,-2.6278,-2.5804,-2.5696,-2.5816,-2.5897,-2.5799,-2.5625,0.0,0.0,0.0,0.0,0.0,0.0,0.0,0.0,0.0,0.0,0.0,0.0,0.0,0.0,0.0,0.0,0.0,0.0,0.0,0.0,0.0,0.0,0.0,0.0,0.0,0.0,0.0,-2.7597,-2.7285,-2.7139,-2.7139,0.0,0.0,0.0,0.0,0.0,0.0,0.0,0.0,0.0,0.0,0.0,0.0,0.0,0.0,0.0,0.0,0.0,0.0,0.0,0.0,0.0,0.0,0.0,0.0,0.0,0.0,0.0,0.0,-3.185,-3.281,0.0,0.0,0.0,-3.3927,-3.4167,0.0,-3.4547,-3.5055,-3.5504,-3.5504,-3.5504,-3.5504,-3.5504,-3.5504,0.0,0.0,0.0,0.0,0.0,0.0,0.0,0.0,0.0,0.0,0.0,0.0,0.0,0.0,0.0,0.0,-3.3288,-3.3203,-3.322,-3.3322,-3.3271,-3.2527,-3.1123,-3.1055,-3.0313,-2.8908,0.0,0.0,0.0,0.0,0.0,0.0,-2.5376,-2.5087,-2.5101,-2.5104,-2.5203,-2.5305,-2.5372,-2.4961,-2.4387,0.0,0.0,0.0,0.0,0.0,0.0,0.0,0.0,0.0,0.0,0.0,0.0,0.0,0.0,0.0,0.0,0.0,0.0,0.0,0.0,0.0,0.0,0.0,0.0,0.0,0.0,0.0,-2.9625,-2.9532,-2.9456,-2.9362,-2.9362,0.0,0.0,0.0,0.0,0.0,0.0,0.0,0.0,0.0,0.0,0.0,0.0,0.0,0.0,-3.1625,-3.1893,0.0,0.0,0.0,0.0,0.0,0.0,0.0,0.0,-3.1024,-3.1161,-3.1172,0.0,-3.2846,-3.3514,-3.4134,-3.46,0.0,-3.5056,-3.52,-3.5265,-3.5385,-3.5504,-3.5504,-3.5504,-3.5504,-3.5504,-3.5504,-3.5614,0.0,0.0,0.0,0.0,0.0,0.0,0.0,0.0,0.0,0.0,0.0,0.0,0.0,0.0,0.0,-3.1749,-3.1173,-3.1427,-3.2564,-3.1985,-3.1258,-3.0362,-2.9786,-2.9008,-2.806,0.0,0.0,0.0,0.0,0.0,0.0,-2.4316,-2.4035,-2.4071,-2.3484,-2.3287,-2.3367,-2.3432,-2.3388,-2.3282,0.0,0.0,0.0,0.0,0.0,0.0,0.0,0.0,0.0,0.0,0.0,0.0,0.0,0.0,0.0,0.0,0.0,0.0,0.0,0.0,0.0,0.0,0.0,0.0,0.0,0.0,0.0,0.0,0.0,-3.0553,0.0,0.0,0.0,0.0,0.0,0.0,-3.0538,0.0,0.0,0.0,-3.0999,0.0,0.0,0.0,0.0,0.0,-3.1887,-3.2082,0.0,-3.2988,-3.3307,-3.328,0.0,0.0,0.0,0.0,-3.1024,-3.1061,-3.111,-3.1932,-3.2988,-3.3632,-3.4332,-3.4883,-3.5148,-3.5294,-3.5392,-3.5472,0.0,0.0,-3.5504,-3.5504,-3.5504,-3.5504,-3.5504,0.0,0.0,0.0,0.0,0.0,0.0,0.0,0.0,0.0,0.0,0.0,0.0,0.0,0.0,0.0,0.0,0.0,-2.9973,-2.9973,-3.077,-3.0398,-2.9803,-2.9041,-2.8298,-2.7537,-2.6776,0.0,0.0,0.0,0.0,0.0,-2.4157,-2.3334,-2.3042,-2.3064,-2.2668,-2.2542,-2.2582,-2.2632,-2.2685,-2.2712,0.0,0.0,0.0,0.0,0.0,0.0,0.0,0.0,0.0,0.0,0.0,0.0,0.0,0.0,0.0,0.0,0.0,0.0,0.0,0.0,0.0,0.0,0.0,0.0,0.0,0.0,0.0,0.0,0.0,0.0,0.0,0.0,-3.0836,0.0,0.0,-3.0969,-3.0999,-3.1292,-3.1409,-3.138,-3.1511,0.0,0.0,0.0,0.0,0.0,0.0,0.0,0.0,-3.2612,-3.2928,-3.2986,-3.2551,0.0,0.0,0.0,0.0,0.0,-3.0911,-3.185,-3.2917,-3.3563,-3.4162,-3.465,-3.5049,0.0,0.0,0.0,0.0,0.0,0.0,-3.5504,0.0,0.0,0.0,0.0,0.0,0.0,0.0,0.0,0.0,0.0,0.0,0.0,0.0,0.0,0.0,0.0,0.0,0.0,0.0,0.0,-2.9144,-2.8705,-2.8485,-2.8705,-2.8366,-2.7469,-2.6826,-2.615,-2.5423,-2.4677,0.0,0.0,0.0,0.0,-2.3173,-2.2564,-2.2296,-2.231,-2.2349,-2.2377,-2.2377,-2.2446,-2.2474,-2.2474,0.0,0.0,0.0,0.0,0.0,0.0,0.0,0.0,0.0,0.0,0.0,0.0,0.0,0.0,0.0,0.0,0.0,0.0,0.0,0.0,0.0,0.0,0.0,0.0,0.0,0.0,0.0,0.0,0.0,-3.2339,-3.1979,-3.1966,-3.1881,-3.1783,0.0,-3.1712,-3.1811,-3.1868,-3.1826,-3.1727,-3.1756,0.0,0.0,0.0,0.0,0.0,0.0,0.0,0.0,-3.3153,-3.3157,-3.2844,-3.2943,0.0,0.0,0.0,0.0,0.0,-3.0685,-3.1123,-3.185,-3.3058,-3.3667,-3.4094,-3.4664,-3.485,0.0,0.0,0.0,0.0,0.0,-3.5504,0.0,0.0,0.0,0.0,0.0,0.0,0.0,0.0,0.0,0.0,0.0,0.0,0.0,0.0,0.0,0.0,0.0,0.0,0.0,0.0,0.0,-2.7384,-2.6133,-2.735,-2.73,-2.5931,-2.5812,-2.5372,-2.4643,-2.3915,-2.3577,0.0,0.0,0.0,-2.2448,-2.2347,-2.2296,-2.2296,-2.231,-2.2324,-2.2324,-2.2324,-2.2338,-2.2338,0.0,0.0,0.0,0.0,0.0,0.0,0.0,0.0,0.0,0.0,0.0,0.0,0.0,0.0,0.0,0.0,0.0,0.0,0.0,0.0,0.0,0.0,0.0,0.0,0.0,0.0,0.0,0.0,-3.3351,-3.3022,-3.2738,-3.2535,-3.2342,-3.2219,-3.2219,-3.2274,-3.2315,-3.2315,-3.2461,-3.2656,0.0,0.0,0.0,0.0,0.0,0.0,0.0,0.0,0.0,0.0,-3.2406,-3.2315,-3.2054,0.0,0.0,0.0,0.0,0.0,-2.9955,-3.0256,-3.079,-3.2083,-3.281,-3.3339,-3.3928,-3.4283,0.0,0.0,0.0,0.0,0.0,0.0,0.0,0.0,0.0,0.0,0.0,0.0,0.0,0.0,0.0,0.0,0.0,0.0,0.0,0.0,0.0,0.0,0.0,0.0,0.0,0.0,0.0,0.0,-2.5609,-2.5879,-2.5676,-2.5,-2.4594,-2.4222,-2.3881,-2.3139,-2.2818,0.0,0.0,-2.2296,-2.2296,-2.2296,-2.2296,-2.2296,-2.2296,-2.2296,-2.2296,-2.2296,-2.2296,-2.2296,0.0,0.0,0.0,0.0,0.0,0.0,0.0,0.0,0.0,0.0,0.0,0.0,0.0,0.0,0.0,0.0,0.0,0.0,0.0,0.0,0.0,0.0,0.0,0.0,0.0,0.0,-3.4928,-3.4456,-3.4,-3.3652,-3.3403,-3.2938,-3.2738,-3.2726,-3.2738,-3.2776,-3.2888,-3.3045,-3.331,-3.3612,0.0,0.0,0.0,0.0,0.0,0.0,0.0,0.0,0.0,0.0,0.0,0.0,0.0,0.0,0.0,-2.95,-2.8964,-2.872,-2.9142,-2.9354,-2.9753,-3.0829,-3.1815,-3.2668,-3.3206,-3.3717,0.0,0.0,0.0,0.0,0.0,0.0,0.0,0.0,0.0,0.0,0.0,0.0,0.0,0.0,0.0,0.0,0.0,0.0,0.0,0.0,0.0,0.0,0.0,0.0,0.0,0.0,0.0,0.0,-2.5069,-2.4509,-2.4237,-2.4237,-2.3663,-2.3308,-2.3122,-2.2564,-2.2296,-2.2296,-2.2296,-2.2296,-2.2296,-2.2296,-2.2296,-2.2296,-2.2296,-2.2296,-2.2279,-2.2124,-2.204,-2.2023,0.0,0.0,0.0,0.0,0.0,0.0,0.0,0.0,0.0,0.0,0.0,0.0,0.0,0.0,0.0,0.0,0.0,0.0,0.0,0.0,0.0,0.0,0.0,0.0,0.0,-3.7003,-3.5968,-3.4951,-3.4723,-3.4423,-3.4009,-3.3429,-3.3314,-3.3591,-3.3298,-3.3324,-3.3664,-3.4345,-3.4489,-3.4297,-3.4848,0.0,0.0,0.0,0.0,0.0,0.0,0.0,0.0,0.0,0.0,0.0,0.0,0.0,-2.9504,-2.9485,-2.8964,-2.8426,-2.8475,-2.8475,-2.8688,-2.9446,-3.0803,-3.2096,-3.2632,-3.3491,0.0,-3.4174,0.0,0.0,0.0,0.0,0.0,0.0,0.0,0.0,0.0,0.0,0.0,0.0,0.0,0.0,0.0,0.0,0.0,0.0,0.0,0.0,0.0,0.0,0.0,0.0,0.0,0.0,-2.3474,-2.3465,-2.3477,-2.3477,-2.3441,-2.3038,-2.2381,-2.2313,-2.2296,-2.2296,-2.2296,-2.2296,-2.2296,-2.2296,-2.2296,-2.2296,-2.2296,-2.2296,-2.2212,-2.1529,-2.1275,-2.1173,0.0,0.0,0.0,0.0,0.0,0.0,0.0,0.0,0.0,0.0,0.0,0.0,0.0,0.0,0.0,0.0,0.0,0.0,0.0,0.0,0.0,0.0,0.0,-4.0321,-3.9108,-3.7562,-3.6326,-3.5379,-3.5095,-3.4804,-3.4472,-3.4234,0.0,-3.4201,-3.4159,-3.4209,-3.4374,-3.51,-3.5474,-3.5669,-3.6185,-3.6036,0.0,0.0,0.0,0.0,0.0,0.0,0.0,0.0,-3.1322,-3.1058,0.0,-3.0131,-2.9366,-2.8659,-2.8108,-2.7751,-2.7873,-2.8145,-2.8588,-2.9321,-3.0258,0.0,0.0,-3.2663,-3.3532,-3.3888,-3.454,0.0,0.0,0.0,0.0,0.0,0.0,0.0,0.0,0.0,0.0,0.0,0.0,0.0,0.0,0.0,0.0,0.0,0.0,0.0,0.0,0.0,0.0,0.0,0.0,0.0,0.0,-2.2683,-2.2478,-2.2536,-2.2656,-2.2567,-2.2296,-2.2296,-2.2296,-2.2296,-2.2296,-2.2296,-2.2296,-2.2296,-2.2296,-2.2245,-2.1803,-2.163,-2.1515,-2.0737,-2.0454,-2.0403,0.0,0.0,0.0,0.0,0.0,0.0,0.0,0.0,0.0,0.0,0.0,0.0,0.0,0.0,0.0,0.0,0.0,0.0,0.0,0.0,0.0,0.0,0.0,-4.0422,-3.9404,-3.8007,-3.6781,-3.5778,-3.5412,-3.5111,-3.4947,0.0,0.0,-3.4739,-3.4787,-3.4851,-3.4949,-3.5661,-3.6257,-3.6725,-3.7161,-3.7026,0.0,0.0,0.0,0.0,0.0,0.0,0.0,0.0,-3.1409,0.0,0.0,0.0,0.0,0.0,-2.7689,-2.733,-2.7551,-2.783,-2.8263,-2.9085,0.0,0.0,-3.0784,-3.1858,-3.2844,-3.3157,-3.3744,0.0,0.0,0.0,0.0,0.0,0.0,0.0,0.0,0.0,0.0,0.0,0.0,0.0,0.0,0.0,0.0,0.0,0.0,0.0,0.0,0.0,0.0,0.0,0.0,0.0,0.0,-2.1998,-2.1809,-2.1897,-2.1814,-2.1947,-2.2268,-2.2015,-2.191,-2.1955,-2.1955,-2.1955,-2.1955,-2.1927,-2.1765,-2.1481,-2.0998,-2.0809,-2.0724,-1.9947,-1.9659,-1.9625,0.0,0.0,0.0,0.0,0.0,0.0,0.0,0.0,0.0,0.0,0.0,0.0,0.0,0.0,0.0,0.0,0.0,0.0,0.0,0.0,0.0,0.0,0.0,-3.9859,-3.8922,-3.8373,-3.746,-3.6204,-3.5723,-3.5492,-3.5492,-3.5222,0.0,-3.5291,-3.5158,-3.5158,-3.5341,-3.6078,-3.6734,-3.7303,-3.7744,-3.7637,-3.7166,0.0,0.0,0.0,0.0,0.0,0.0,0.0,-3.1409,-3.1248,0.0,0.0,0.0,0.0,-2.7941,-2.7364,-2.7542,-2.7483,-2.7557,-2.8612,0.0,0.0,-2.991,-3.1189,-3.211,-3.1857,0.0,0.0,0.0,0.0,0.0,0.0,0.0,0.0,0.0,0.0,0.0,0.0,0.0,0.0,0.0,0.0,0.0,0.0,0.0,0.0,0.0,0.0,0.0,0.0,0.0,0.0,0.0,-2.1416,-2.1554,-2.1661,-2.0951,-2.1159,-2.2149,-2.1359,-2.1059,-2.119,-2.119,-2.119,-2.119,-2.111,-2.0622,-1.9898,-1.9959,-1.9997,-1.9896,-1.9152,-1.8894,-1.8775,0.0,0.0,0.0,0.0,0.0,0.0,0.0,0.0,0.0,0.0,0.0,0.0,0.0,0.0,0.0,0.0,0.0,0.0,0.0,0.0,0.0,0.0,0.0,0.0,0.0,0.0,-3.6844,-3.6058,-3.5817,-3.5661,0.0,0.0,-3.5464,-3.5492,-3.4925,-3.4695,-3.4784,-3.5526,-3.5889,-3.6075,-3.7127,-3.7325,-3.6803,0.0,0.0,0.0,0.0,0.0,0.0,0.0,0.0,0.0,0.0,0.0,0.0,-2.898,-2.8254,-2.7774,-2.7734,-2.7891,0.0,-2.875,0.0,0.0,0.0,-3.0752,0.0,0.0,0.0,0.0,0.0,0.0,0.0,0.0,0.0,0.0,0.0,0.0,0.0,0.0,0.0,0.0,0.0,0.0,0.0,0.0,0.0,0.0,0.0,0.0,0.0,0.0,0.0,0.0,0.0,0.0,-2.0364,-2.05,-1.9847,-2.0125,-2.1189,-2.0478,-2.02,-2.0299,-2.0299,-2.0299,-2.0269,-2.0217,-2.0043,-1.9779,-1.929,-1.911,-1.9067,-1.8316,-1.8058,-1.8013,0.0,0.0,0.0,0.0,0.0,0.0,0.0,0.0,0.0,0.0,0.0,0.0,0.0,0.0,0.0,0.0,0.0,0.0,0.0,0.0,0.0,0.0,0.0,0.0,0.0,-3.8645,-3.781,0.0,0.0,0.0,0.0,0.0,-3.56,-3.5566,-3.4827,-3.4489,-3.4523,-3.4979,-3.5307,-3.5571,-3.6609,-3.6877,-3.6555,0.0,0.0,0.0,0.0,0.0,0.0,0.0,0.0,0.0,0.0,0.0,0.0,-2.9373,-2.8643,-2.8146,-2.8213,-2.8326,0.0,-2.9114,-2.9528,-2.9792,-2.9792,0.0,0.0,0.0,0.0,0.0,0.0,0.0,0.0,0.0,0.0,0.0,0.0,0.0,0.0,0.0,0.0,0.0,0.0,0.0,0.0,0.0,0.0,0.0,0.0,0.0,0.0,0.0,0.0,0.0,0.0,0.0,0.0,-1.9354,-1.8746,-1.8849,-1.9549,-1.9313,-1.9275,-1.9382,-1.9382,-1.9343,-1.9305,-1.9262,-1.9057,-1.872,-1.8298,-1.8176,-1.8191,-1.7758,-1.7607,-1.7572,0.0,0.0,0.0,0.0,0.0,0.0,0.0,0.0,0.0,0.0,0.0,0.0,0.0,0.0,0.0,0.0,0.0,0.0,0.0,0.0,0.0,0.0,0.0,0.0,0.0,0.0,0.0,0.0,0.0,0.0,0.0,0.0,-3.56,-3.5566,-3.4759,-3.4387,-3.4387,-3.432,-3.4726,-3.5464,-3.607,-3.6313,-3.6279,-3.5893,0.0,0.0,0.0,0.0,0.0,0.0,0.0,0.0,-3.1351,-3.0984,-3.0477,-2.9839,-2.9012,-2.8411,-2.8799,-2.8651,-2.8643,-2.9491,-2.9754,0.0,-2.9729,0.0,0.0,0.0,0.0,0.0,0.0,0.0,0.0,0.0,0.0,0.0,0.0,0.0,0.0,0.0,0.0,0.0,0.0,0.0,0.0,0.0,0.0,0.0,0.0,0.0,0.0,0.0,0.0,0.0,0.0,0.0,0.0,0.0,-1.7659,-1.7446,-1.7587,-1.7963,-1.8253,-1.8435,-1.8435,-1.8359,-1.8244,-1.8244,-1.7816,-1.7174,-1.724,-1.7308,-1.7384,-1.7427,-1.742,-1.7349,0.0,0.0,0.0,0.0,0.0,0.0,0.0,0.0,0.0,0.0,0.0,0.0,0.0,0.0,0.0,0.0,0.0,0.0,0.0,0.0,0.0,0.0,0.0,0.0,0.0,0.0,0.0,0.0,0.0,0.0,0.0,0.0,0.0,-3.5532,0.0,-3.3643,-3.3592,-3.3038,-3.3186,-3.3926,-3.4631,-3.524,-3.5681,-3.5479,-3.5055,0.0,0.0,0.0,0.0,0.0,0.0,0.0,-3.138,-3.1058,-3.0672,-3.0129,-2.9373,-2.8695,-2.8667,-2.8601,0.0,0.0,-2.9453,-2.9679,-2.9176,0.0,0.0,0.0,0.0,0.0,0.0,0.0,0.0,0.0,0.0,0.0,0.0,0.0,0.0,0.0,0.0,0.0,0.0,0.0,0.0,0.0,0.0,0.0,0.0,0.0,0.0,0.0,0.0,0.0,-1.8938,-1.7925,-1.738,0.0,-1.6688,-1.6436,-1.6519,-1.6881,-1.7104,-1.7197,-1.7197,-1.7142,-1.7078,-1.7078,-1.6982,-1.6895,-1.6964,-1.7064,-1.7163,-1.7113,-1.7105,-1.7055,0.0,0.0,0.0,0.0,0.0,0.0,0.0,0.0,0.0,0.0,0.0,0.0,0.0,0.0,0.0,0.0,0.0,0.0,0.0,0.0,0.0,0.0,0.0,0.0,0.0,0.0,0.0,0.0,0.0,0.0,0.0,0.0,0.0,-3.5532,0.0,-3.3406,-3.3372,-3.2983,-3.3051,-3.3508,-3.459,-3.5239,-3.5543,-3.5429,-3.5198,-3.4828,-3.4275,0.0,0.0,0.0,0.0,0.0,0.0,0.0,-3.0309,-2.9535,-2.8886,-2.8407,-2.8233,0.0,0.0,-2.9202,0.0,-2.9641,-2.9026,0.0,0.0,0.0,0.0,0.0,0.0,0.0,0.0,0.0,0.0,0.0,0.0,0.0,0.0,0.0,0.0,0.0,0.0,0.0,0.0,0.0,0.0,0.0,0.0,0.0,0.0,0.0,0.0,0.0,-1.7855,-1.7148,-1.6683,-1.6426,-1.6151,-1.6041,-1.6109,-1.6423,-1.6583,-1.661,-1.661,-1.6378,-1.6024,-1.6024,-1.5874,-1.5696,-1.6076,-1.6312,-1.6459,-1.6712,-1.6594,-1.6241,0.0,0.0,0.0,0.0,0.0,0.0,0.0,0.0,0.0,0.0,0.0,0.0,0.0,0.0,0.0,0.0,0.0,0.0,0.0,0.0,0.0,0.0,0.0,0.0,0.0,0.0,0.0,0.0,0.0,0.0,0.0,0.0,0.0,-3.5532,0.0,-3.3592,-3.3592,-3.3457,-3.3474,-3.3711,-3.4906,-3.5481,-3.56,-3.5543,-3.536,-3.5088,-3.4594,-3.4075,-3.3539,-3.2942,0.0,0.0,0.0,0.0,-2.9938,-2.8798,-2.8233,-2.7951,-2.7567,0.0,-2.8435,-2.929,-2.9503,0.0,0.0,0.0,0.0,0.0,0.0,0.0,0.0,0.0,0.0,0.0,0.0,0.0,0.0,0.0,0.0,0.0,0.0,0.0,0.0,0.0,0.0,0.0,0.0,0.0,0.0,0.0,0.0,0.0,0.0,-1.7833,-1.6711,-1.6607,-1.6234,-1.5634,-1.5571,-1.5566,-1.5634,-1.5853,-1.6022,-1.6157,-1.6033,-1.5635,-1.5082,-1.5082,-1.4795,-1.4405,-1.5027,-1.5341,-1.5502,-1.5987,-1.5782,-1.5243,0.0,0.0,0.0,0.0,0.0,0.0,0.0,0.0,0.0,0.0,0.0,0.0,0.0,0.0,0.0,0.0,0.0,0.0,-3.8707,0.0,0.0,-4.1058,-4.1882,0.0,0.0,0.0,0.0,0.0,0.0,0.0,0.0,0.0,0.0,-3.5566,0.0,0.0,-3.4303,-3.3677,-3.3778,-3.437,-3.4573,-3.503,-3.56,-3.5577,-3.5526,-3.54,-3.497,-3.4546,-3.4101,-3.3435,-3.2888,0.0,0.0,0.0,-3.0205,-2.8996,-2.8225,-2.7565,-2.6724,0.0,-2.7047,0.0,-2.8335,-2.8185,0.0,0.0,0.0,0.0,0.0,0.0,0.0,0.0,0.0,0.0,0.0,0.0,0.0,0.0,0.0,0.0,0.0,0.0,0.0,0.0,0.0,0.0,0.0,0.0,0.0,0.0,-1.8792,-1.8702,-1.7563,0.0,-1.6696,-1.6189,-1.5589,-1.4931,-1.4348,-1.4092,-1.409,-1.4128,-1.4535,-1.5152,-1.4572,-1.4254,-1.4178,-1.4178,-1.4169,-1.4142,-1.4246,-1.4322,-1.4395,-1.4433,-1.4366,-1.4265,0.0,0.0,0.0,0.0,0.0,0.0,0.0,0.0,0.0,0.0,0.0,0.0,0.0,0.0,0.0,-3.8707,-3.8707,-3.8707,-3.8707,-3.9441,-4.0065,-4.0414,-4.1203,-4.1627,-4.1627,0.0,0.0,0.0,0.0,0.0,0.0,-3.6388,-3.5883,0.0,0.0,0.0,0.0,-3.415,-3.4201,-3.4523,-3.4962,-3.5295,-3.56,-3.56,-3.5549,-3.5469,-3.5222,-3.4875,-3.4448,-3.3924,-3.3408,-3.2728,-3.123,0.0,0.0,0.0,-2.7522,-2.7022,-2.6507,-2.647,-2.6779,0.0,-2.7798,-2.7801,0.0,0.0,0.0,0.0,0.0,0.0,0.0,0.0,0.0,0.0,0.0,0.0,0.0,0.0,0.0,0.0,0.0,0.0,0.0,0.0,0.0,0.0,0.0,0.0,0.0,-1.8933,-1.8467,-1.811,-1.7173,0.0,-1.6204,-1.5559,-1.4901,-1.4244,-1.3944,-1.3797,-1.3782,-1.3406,-1.3638,-1.4304,-1.4031,-1.3669,-1.3335,-1.3335,-1.3159,-1.2902,-1.3281,-1.3465,-1.357,-1.3867,-1.3749,-1.3406,0.0,0.0,0.0,0.0,0.0,0.0,0.0,0.0,0.0,0.0,0.0,0.0,0.0,0.0,0.0,0.0,-3.8707,-3.8707,-3.8707,-3.9258,-3.968,-3.9882,-4.0469,-4.0799,-4.0799,0.0,0.0,0.0,0.0,0.0,-3.6873,-3.6655,-3.6251,0.0,-3.5622,-3.5278,0.0,0.0,0.0,0.0,0.0,-3.56,-3.56,-3.56,-3.5571,-3.5498,-3.5383,-3.5152,-3.4787,-3.4399,-3.3924,-3.317,0.0,0.0,0.0,0.0,0.0,0.0,0.0,0.0,-2.6152,-2.6549,-2.6926,-2.7058,0.0,0.0,0.0,0.0,0.0,0.0,0.0,0.0,0.0,0.0,0.0,0.0,0.0,0.0,0.0,0.0,0.0,0.0,0.0,0.0,0.0,0.0,0.0,0.0,-1.8887,-1.8488,-1.7958,-1.7325,-1.6723,-1.6129,-1.553,-1.4706,-1.4034,-1.354,-1.3376,-1.3289,-1.3259,-1.2774,-1.2819,-1.3289,-1.3289,-1.3002,-1.2549,-1.2549,-1.2272,-1.1915,-1.2437,-1.2652,-1.2746,-1.3199,-1.304,-1.2607,0.0,0.0,0.0,0.0,0.0,0.0,0.0,0.0,0.0,0.0,0.0,0.0,0.0,-3.8707,-3.8707,-3.8707,-3.8707,-3.8707,-3.8707,-3.8744,-3.9093,-3.9863,-3.9937,0.0,-3.9955,0.0,0.0,0.0,0.0,0.0,-3.7089,-3.7401,-3.6969,-3.5975,-3.5711,-3.5583,-3.5532,0.0,0.0,0.0,0.0,0.0,0.0,0.0,0.0,0.0,0.0,0.0,-3.5198,-3.4787,-3.4399,0.0,0.0,-3.0709,-2.995,0.0,0.0,0.0,0.0,-2.4748,0.0,-2.484,0.0,0.0,0.0,0.0,0.0,0.0,0.0,0.0,0.0,0.0,0.0,0.0,0.0,0.0,0.0,0.0,0.0,0.0,0.0,0.0,0.0,0.0,0.0,0.0,0.0,0.0,-1.7799,-1.7453,-1.7017,-1.6487,-1.5935,-1.5372,-1.476,-1.3513,-1.2891,-1.2834,-1.222,-1.1895,-1.1895,-1.1865,-1.1865,-1.1895,-1.1895,-1.188,-1.185,-1.185,-1.1835,-1.1816,-1.1835,-1.1861,-1.1876,-1.1905,-1.1891,-1.1861,0.0,0.0,0.0,0.0,0.0,0.0,0.0,0.0,0.0,0.0,0.0,0.0,0.0,-3.8707,-3.8707,-3.8707,-3.8707,-3.8707,-3.8707,-3.8707,-3.8836,-3.9129,-3.9129,-3.9129,-3.9129,0.0,0.0,0.0,0.0,-3.6768,-3.5936,-3.576,-3.5389,-3.4877,-3.5956,-3.613,-3.56,-3.56,0.0,0.0,0.0,0.0,0.0,0.0,0.0,0.0,0.0,0.0,0.0,0.0,0.0,0.0,-3.2152,-3.1193,-3.0278,-2.765,-2.6258,0.0,0.0,0.0,0.0,-2.4337,-2.4482,0.0,0.0,0.0,0.0,0.0,0.0,0.0,0.0,0.0,0.0,0.0,0.0,0.0,0.0,0.0,0.0,0.0,0.0,0.0,0.0,0.0,0.0,0.0,0.0,0.0,-1.7258,-1.6972,-1.659,-1.6094,-1.5647,-1.4963,-1.4078,-1.3217,-1.2579,-1.216,-1.191,-1.1805,-1.1805,-1.1805,-1.1805,-1.1805,-1.1805,-1.1805,-1.1805,-1.1805,-1.1805,-1.1805,-1.1805,-1.1805,-1.1805,-1.1805,-1.1805,-1.1805,0.0,0.0,0.0,0.0,0.0,0.0,0.0,0.0,0.0,0.0,0.0,0.0,0.0,0.0,-3.9221,-3.9478,-3.9515,-3.9386,-3.9129,-3.9093,-3.8982,-3.8707,-3.8707,-3.8707,-3.8707,0.0,0.0,0.0,0.0,0.0,0.0,-3.512,-3.4616,-3.4361,-3.5441,-3.5691,0.0,0.0,0.0,-3.56,0.0,0.0,-3.56,0.0,0.0,0.0,0.0,0.0,0.0,0.0,0.0,0.0,0.0,-3.1054,-2.9608,-2.7491,-2.6392,0.0,-2.478,0.0,0.0,0.0,0.0,0.0,0.0,0.0,0.0,0.0,0.0,0.0,0.0,0.0,0.0,0.0,0.0,0.0,0.0,0.0,0.0,0.0,0.0,0.0,0.0,0.0,0.0,0.0,0.0,0.0,-1.6499,-1.6396,-1.6118,-1.5588,-1.4931,-1.4295,-1.3644,-1.2814,-1.2168,-1.1725,-1.1772,-1.1772,-1.1772,-1.1794,-1.1805,-1.1805,-1.1805,-1.1805,-1.1805,-1.1805,-1.1805,-1.1805,-1.1805,-1.1805,-1.1805,-1.1805,-1.1805,-1.1805,0.0,0.0,0.0,0.0,0.0,0.0,0.0,0.0,0.0,0.0,0.0,0.0,0.0,0.0,0.0,-4.1022,-4.1095,-4.0781,-3.9992,-3.99,-3.9551,-3.8781,-3.8707,-3.8707,-3.8707,0.0,0.0,0.0,0.0,0.0,0.0,0.0,-3.4925,-3.4431,-3.4092,-3.4223,-3.464,0.0,-3.4912,-3.5566,0.0,-3.56,-3.56,0.0,0.0,0.0,-3.56,-3.56,0.0,-3.552,0.0,0.0,0.0,-3.0307,-2.8002,-2.7397,-2.6618,0.0,0.0,0.0,0.0,0.0,0.0,0.0,0.0,0.0,0.0,0.0,0.0,0.0,0.0,0.0,0.0,0.0,0.0,0.0,0.0,0.0,0.0,0.0,0.0,0.0,0.0,0.0,0.0,0.0,0.0,-1.654,-1.5464,-1.5702,-1.555,-1.4903,-1.3799,-1.3303,-1.3472,-1.2232,-1.1608,-1.1579,-1.1659,-1.1692,-1.1703,-1.1757,-1.1779,-1.1779,-1.1779,-1.1779,-1.1779,-1.1805,-1.1805,-1.1805,-1.1805,-1.1805,-1.1805,-1.1805,-1.1805,-1.1805,0.0,0.0,0.0,0.0,0.0,0.0,0.0,0.0,0.0,0.0,0.0,0.0,0.0,-4.0618,-4.0857,-4.1077,-4.1095,-4.1003,-4.0765,-4.0212,-3.979,-3.957,-3.9019,-3.8707,-3.8707,0.0,0.0,0.0,0.0,0.0,0.0,0.0,0.0,0.0,-3.2844,-3.2913,-3.3317,-3.4139,0.0,0.0,-3.538,-3.56,0.0,0.0,0.0,0.0,0.0,-3.56,-3.56,0.0,-3.511,-3.4141,0.0,0.0,-2.8511,-2.768,-2.6982,0.0,-2.5384,0.0,0.0,0.0,0.0,0.0,0.0,0.0,0.0,0.0,0.0,0.0,0.0,0.0,0.0,0.0,0.0,0.0,0.0,0.0,0.0,0.0,0.0,0.0,0.0,0.0,0.0,0.0,0.0,-1.6464,-1.5732,-1.5272,-1.4807,-1.4337,-1.3828,-1.3389,-1.3061,-1.2431,-1.1893,-1.1466,-1.1578,-1.1634,-1.1634,-1.1652,-1.1659,-1.1659,-1.1659,-1.1659,-1.1659,-1.1757,-1.1805,-1.1805,-1.1805,-1.1805,-1.1805,-1.1805,-1.1805,-1.1805,0.0,0.0,0.0,0.0,0.0,0.0,0.0,0.0,0.0,0.0,0.0,0.0,0.0,0.0,-4.1754,-4.2066,-4.2103,-4.1974,-4.1625,-4.0855,-4.0249,-3.99,-3.9129,-3.8707,0.0,0.0,0.0,0.0,0.0,0.0,0.0,0.0,0.0,0.0,0.0,0.0,0.0,0.0,0.0,0.0,-3.4979,0.0,0.0,-3.56,-3.56,0.0,0.0,0.0,-3.5549,-3.525,-3.4285,0.0,0.0,0.0,0.0,0.0,0.0,0.0,0.0,0.0,0.0,0.0,0.0,0.0,-2.2553,-2.1844,0.0,0.0,0.0,0.0,0.0,0.0,0.0,0.0,0.0,0.0,0.0,0.0,0.0,0.0,0.0,0.0,0.0,0.0,0.0,0.0,-1.6565,-1.6267,-1.5511,-1.4874,-1.4354,-1.399,-1.3672,-1.3253,-1.2747,-1.2336,-1.1828,-1.125,-1.1399,-1.1455,-1.1433,-1.1519,-1.1541,-1.1516,-1.1553,-1.1564,-1.1564,-1.1641,-1.1707,-1.1757,-1.1757,-1.1783,-1.1805,-1.1805,-1.1805,-1.1805,0.0,0.0,0.0,0.0,0.0,0.0,0.0,0.0,0.0,0.0,0.0,0.0,0.0,0.0,0.0,0.0,-4.3515,-4.3185,-4.2488,-4.168,0.0,0.0,0.0,0.0,0.0,0.0,0.0,0.0,0.0,0.0,0.0,0.0,0.0,0.0,0.0,0.0,0.0,0.0,0.0,-3.4409,-3.4477,-3.4945,0.0,0.0,-3.56,0.0,-3.5498,-3.5481,-3.5346,-3.4523,-3.3182,0.0,0.0,0.0,0.0,0.0,-2.6786,0.0,0.0,0.0,0.0,0.0,0.0,0.0,-2.2252,-2.1624,-2.0973,0.0,0.0,0.0,0.0,0.0,0.0,0.0,0.0,0.0,0.0,0.0,0.0,0.0,0.0,0.0,0.0,0.0,0.0,-1.65,-1.65,-1.6078,-1.5132,-1.463,-1.4207,-1.3859,-1.3451,-1.3021,-1.2531,-1.2129,-1.1629,-1.1029,-1.1186,-1.1215,-1.1155,-1.1353,-1.1399,-1.1353,-1.141,-1.1433,-1.1433,-1.1433,-1.1541,-1.1681,-1.1681,-1.174,-1.1783,-1.1783,-1.1783,-1.1783,0.0,0.0,0.0,0.0,0.0,0.0,0.0,0.0,0.0,0.0,0.0,0.0,0.0,0.0,0.0,0.0,-4.3515,-4.3441,-4.3277,-4.2506,0.0,0.0,-4.0102,0.0,0.0,0.0,0.0,0.0,0.0,0.0,0.0,0.0,0.0,0.0,0.0,0.0,0.0,0.0,0.0,-3.382,-3.4295,0.0,-3.56,-3.56,-3.56,-3.5515,-3.4928,-3.4709,-3.4506,0.0,-3.2428,-3.1867,0.0,0.0,0.0,0.0,0.0,0.0,0.0,0.0,0.0,0.0,0.0,0.0,-2.2368,-2.1668,-2.1002,0.0,0.0,0.0,0.0,0.0,0.0,0.0,0.0,0.0,0.0,0.0,0.0,0.0,0.0,0.0,0.0,0.0,-1.65,-1.65,-1.65,-1.6233,-1.5588,-1.5119,-1.4637,-1.4144,-1.3727,-1.324,-1.268,-1.2315,-1.1843,-1.1242,-1.1009,-1.0885,-1.0873,-1.0968,-1.1003,-1.0991,-1.1003,-1.105,-1.1097,-1.1097,-1.1293,-1.1612,-1.1612,-1.163,-1.1648,-1.1648,-1.1648,-1.1648,0.0,0.0,0.0,0.0,0.0,0.0,0.0,0.0,0.0,0.0,0.0,0.0,0.0,0.0,0.0,0.0,0.0,0.0,0.0,0.0,0.0,0.0,0.0,0.0,0.0,0.0,0.0,0.0,0.0,0.0,0.0,0.0,0.0,0.0,0.0,0.0,0.0,0.0,-3.2151,-3.3114,-3.3702,0.0,-3.56,-3.56,-3.5363,-3.5013,-3.4624,-3.4037,-3.3292,-3.2547,-3.1975,0.0,0.0,-2.9951,-2.8923,0.0,-2.6853,-2.5615,0.0,0.0,0.0,-2.3328,0.0,0.0,0.0,-2.1589,-2.0978,0.0,0.0,0.0,0.0,0.0,0.0,0.0,0.0,0.0,0.0,0.0,0.0,0.0,0.0,0.0,0.0,0.0,-1.65,-1.65,-1.65,-1.6283,-1.5731,-1.5469,-1.4979,-1.4183,-1.3986,-1.3489,-1.2612,-1.2234,-1.175,-1.1148,-1.0777,-1.0584,-1.056,-1.0644,-1.0668,-1.0644,-1.0681,-1.0589,-1.0409,-1.0409,-1.0376,-1.0424,-1.1131,-1.1418,-1.1452,-1.1452,-1.1452,-1.1463,-4.5513,0.0,0.0,0.0,0.0,0.0,0.0,0.0,0.0,0.0,0.0,0.0,0.0,0.0,0.0,0.0,0.0,0.0,0.0,0.0,0.0,0.0,0.0,-4.0212,0.0,0.0,0.0,0.0,0.0,0.0,0.0,0.0,0.0,0.0,0.0,0.0,0.0,0.0,0.0,-3.2573,0.0,-3.4083,-3.538,-3.538,-3.503,-3.4455,-3.4167,-3.3224,-3.209,-3.209,0.0,-3.1015,-3.0952,-3.0109,0.0,0.0,0.0,0.0,0.0,0.0,0.0,0.0,0.0,-2.2179,0.0,0.0,0.0,-2.0797,0.0,0.0,0.0,0.0,0.0,0.0,0.0,0.0,0.0,0.0,0.0,0.0,0.0,0.0,0.0,0.0,-1.65,-1.65,-1.65,-1.63,-1.5881,-1.5756,-1.5299,-1.4437,-1.4259,-1.3745,-1.2813,-1.2168,-1.1614,-1.1125,-1.0599,-1.0312,-1.0262,-1.0361,-1.0386,-1.0336,-1.0293,-1.006,-0.9723,-0.9613,-0.9354,-0.9151,-1.0459,-1.0994,-1.1054,-1.117,-1.1227,-1.1239,-4.5513,-4.5438,0.0,0.0,0.0,0.0,0.0,0.0,0.0,0.0,0.0,0.0,0.0,0.0,0.0,0.0,0.0,0.0,-4.3551,0.0,0.0,0.0,0.0,0.0,-3.9918,0.0,0.0,0.0,0.0,0.0,0.0,0.0,0.0,0.0,-3.5541,0.0,0.0,0.0,-3.2099,0.0,-3.2476,-3.3326,0.0,-3.4624,-3.4573,-3.432,-3.3021,-3.2022,-3.1309,0.0,-3.1258,-3.1151,0.0,-2.9976,-2.8684,0.0,0.0,0.0,0.0,0.0,0.0,0.0,-2.309,0.0,0.0,0.0,-2.1496,-2.1337,0.0,0.0,0.0,0.0,0.0,0.0,0.0,0.0,0.0,0.0,0.0,0.0,0.0,0.0,0.0,0.0,0.0,-1.65,-1.65,-1.6475,-1.64,-1.5957,-1.563,-1.5517,-1.4588,-1.404,-1.3914,-1.2453,-1.17,-1.1608,-1.061,-1.0135,-1.0122,-1.0148,-1.0148,-1.0109,-0.9645,-0.9436,-0.9401,-0.8926,-0.8741,-0.8834,-0.9709,-1.0087,-1.0211,-1.0748,-1.0944,-1.0944,-4.5568,-4.5477,0.0,0.0,0.0,0.0,0.0,0.0,0.0,0.0,0.0,0.0,0.0,0.0,0.0,0.0,0.0,-4.4562,0.0,0.0,0.0,0.0,0.0,0.0,0.0,0.0,-3.9515,0.0,-3.8707,0.0,0.0,0.0,0.0,0.0,-3.6336,0.0,-3.3261,0.0,0.0,0.0,0.0,0.0,0.0,-3.3694,-3.3592,-3.3089,-3.2056,-3.1464,-3.119,0.0,-3.119,0.0,0.0,0.0,0.0,0.0,0.0,0.0,0.0,0.0,0.0,0.0,0.0,0.0,0.0,0.0,-2.1736,0.0,0.0,0.0,0.0,0.0,0.0,0.0,0.0,0.0,0.0,0.0,0.0,0.0,0.0,0.0,0.0,0.0,0.0,0.0,0.0,-1.6873,-1.6513,-1.6296,-1.6019,-1.5706,-1.4959,-1.4412,-1.4103,-1.278,-1.1948,-1.1635,-1.0829,-1.0286,-0.9983,-0.9983,-0.9818,-0.9501,-0.9285,-0.8849,-0.829,-0.8057,-0.7791,-0.7603,-0.83,-0.8849,-0.9268,-0.9538,-0.9621,-0.9675,-4.5594,0.0,0.0,0.0,0.0,0.0,0.0,0.0,0.0,0.0,0.0,0.0,-4.6562,-4.6562,0.0,0.0,-4.5498,-4.4947,0.0,0.0,-4.3515,0.0,0.0,0.0,0.0,0.0,-3.9827,0.0,0.0,0.0,0.0,0.0,0.0,0.0,0.0,-3.5339,-3.3438,0.0,0.0,-3.153,-3.1865,-3.2005,-3.209,-3.2814,-3.2628,-3.1938,-3.1396,-3.119,-3.119,-3.119,-3.1072,0.0,-3.0277,0.0,0.0,0.0,0.0,0.0,-2.5527,0.0,0.0,0.0,0.0,0.0,0.0,0.0,0.0,0.0,0.0,0.0,0.0,0.0,0.0,0.0,0.0,0.0,0.0,0.0,0.0,0.0,0.0,0.0,0.0,0.0,0.0,0.0,-1.741,0.0,-1.6525,-1.65,-1.6312,-1.5932,-1.5399,-1.4865,-1.4311,-1.3182,-1.2291,-1.159,-1.0983,-1.0419,-0.9905,-0.9905,-0.9604,-0.9088,-0.8938,-0.8345,-0.7458,-0.7316,-0.7022,-0.6723,-0.7152,-0.7649,-0.8161,-0.8518,-0.8646,-0.8725,-4.5594,-4.5531,0.0,0.0,0.0,0.0,0.0,0.0,0.0,0.0,0.0,0.0,0.0,0.0,0.0,0.0,0.0,-4.5535,-4.4746,0.0,-4.3515,0.0,0.0,-4.3075,0.0,0.0,-4.0671,-3.9845,-3.9074,0.0,0.0,0.0,0.0,0.0,0.0,-3.458,-3.2608,-3.2126,-3.1763,-3.1479,-3.1303,-3.1241,-3.1309,0.0,-3.1887,-3.1224,-3.1207,0.0,0.0,-3.119,-3.0734,0.0,0.0,0.0,0.0,0.0,0.0,0.0,0.0,0.0,0.0,-2.5211,0.0,0.0,0.0,0.0,-2.254,0.0,0.0,0.0,0.0,0.0,0.0,0.0,0.0,0.0,0.0,0.0,0.0,0.0,0.0,0.0,0.0,0.0,0.0,0.0,-1.741,0.0,-1.6525,-1.65,-1.6488,-1.6475,-1.5957,-1.5424,-1.489,-1.3729,-1.2651,-1.159,-1.0983,-1.0419,-0.9905,-0.9905,-0.9604,-0.9075,-0.855,-0.7964,-0.7356,-0.6849,-0.6611,-0.6599,-0.6633,-0.6645,-0.6822,-0.8047,-0.8499,-0.859,0.0,0.0,0.0,0.0,0.0,0.0,0.0,-4.5188,0.0,0.0,0.0,0.0,0.0,0.0,-4.882,0.0,0.0,-4.5773,-4.5516,-4.4232,0.0,0.0,0.0,-4.3112,0.0,0.0,-4.124,-3.99,-3.9625,0.0,0.0,0.0,0.0,0.0,0.0,-3.4846,0.0,0.0,0.0,0.0,0.0,-3.119,-3.1224,0.0,0.0,-3.119,-3.119,-3.0886,0.0,-3.048,-2.9973,-2.9279,-2.8737,-2.8229,-2.7688,-2.7128,-2.667,0.0,0.0,0.0,-2.5677,-2.5116,0.0,0.0,0.0,0.0,0.0,0.0,0.0,0.0,0.0,0.0,0.0,0.0,0.0,0.0,0.0,0.0,0.0,0.0,0.0,0.0,0.0,0.0,0.0,-1.799,-1.7928,-1.7513,0.0,-1.65,-1.65,-1.65,-1.5982,-1.5449,-1.4916,-1.4173,-1.3061,-1.1603,-1.1387,-1.0809,-0.9905,-0.9905,-0.9604,-0.9075,-0.8524,-0.7951,-0.7356,-0.6815,-0.6599,-0.6599,-0.6599,-0.6599,-0.6658,-0.7089,-0.7237,-0.7376,-4.5594,0.0,0.0,0.0,0.0,0.0,0.0,0.0,0.0,0.0,-4.816,0.0,-4.8783,0.0,-4.8802,0.0,-4.6654,-4.5773,-4.5498,-4.4232,0.0,-4.3515,-4.3515,0.0,0.0,0.0,-4.1644,-4.0322,0.0,-3.9331,0.0,0.0,0.0,0.0,0.0,0.0,-3.3529,0.0,-3.2288,0.0,0.0,-3.119,0.0,0.0,-3.119,0.0,0.0,-3.0497,-3.0074,-2.9803,-2.9194,-2.8484,-2.7959,-2.7621,-2.7317,-2.6792,-2.637,-2.6084,-2.6033,-2.5695,0.0,0.0,-2.451,0.0,-2.3356,0.0,0.0,0.0,0.0,0.0,0.0,0.0,0.0,0.0,0.0,0.0,0.0,-2.1722,0.0,0.0,0.0,0.0,0.0,0.0,-1.9208,-1.8279,-1.8028,-1.7501,0.0,0.0,-1.65,-1.65,-1.617,-1.5718,-1.5185,-1.4651,-1.3644,-1.2149,-1.1776,-1.1098,-1.0181,-0.9993,-0.9604,-0.9088,-0.8737,-0.8137,-0.7369,-0.7028,-0.6774,-0.6599,-0.6599,-0.6724,-0.6853,-0.6674,-0.6849,-0.731,0.0,0.0,0.0,0.0,-4.5164,0.0,0.0,0.0,-4.6812,0.0,-4.84,-4.8655,-4.9408,-4.8765,-4.7957,-4.7113,-4.6305,0.0,-4.4746,-4.3956,0.0,0.0,-4.3515,-4.3515,-4.3515,0.0,0.0,0.0,0.0,0.0,0.0,0.0,0.0,0.0,-3.4651,0.0,-3.2779,-3.2231,-3.1841,-3.156,-3.1291,-3.119,-3.119,-3.1157,0.0,-3.1055,-3.0362,-3.0057,-2.9888,-2.9179,-2.8416,-2.7756,-2.7756,-2.7232,-2.664,-2.664,-2.6083,-2.5444,-2.5444,-2.4842,-2.4209,-2.4159,0.0,0.0,0.0,0.0,-2.2264,0.0,0.0,0.0,0.0,0.0,0.0,0.0,0.0,0.0,0.0,0.0,0.0,0.0,0.0,0.0,0.0,-1.9634,-1.8954,-1.8292,-1.7765,0.0,0.0,0.0,0.0,-1.65,-1.65,-1.6237,-1.5685,-1.5153,-1.4325,-1.3185,-1.2115,-1.1286,-1.0681,-1.0143,-0.9617,-0.9126,-0.9101,-0.8463,-0.7443,-0.7409,-0.7094,-0.6637,-0.6637,-0.6966,-0.7381,-0.6865,-0.7375,-0.8338,-4.5594,-4.5594,-4.5568,0.0,-4.5132,-4.5079,0.0,0.0,0.0,0.0,-4.8584,-4.8875,-4.7865,-4.8086,-4.7737,-4.6324,-4.548,0.0,0.0,0.0,0.0,-4.3515,-4.3515,-4.3515,-4.3515,-4.2708,0.0,-4.1095,0.0,0.0,-3.7492,0.0,0.0,0.0,0.0,0.0,-3.2975,-3.23,-3.1731,-3.1308,-3.123,-3.119,0.0,0.0,-3.0378,-3.0362,-3.0176,-2.9362,-2.8365,-2.8162,-2.7621,-2.6979,-2.6979,-2.6488,-2.5879,-2.5879,-2.5339,-2.4764,-2.4764,-2.4596,-2.4295,-2.3739,-2.356,-2.3315,0.0,0.0,0.0,0.0,0.0,0.0,0.0,0.0,0.0,0.0,0.0,0.0,0.0,0.0,0.0,-2.2486,0.0,0.0,-2.0586,-2.0079,-1.9522,-1.8857,-1.8657,0.0,0.0,0.0,0.0,-1.6426,-1.6436,-1.611,-1.5472,-1.4988,-1.4194,-1.3112,-1.2083,-1.1286,-1.0681,-1.009,-0.9753,-0.9591,-0.9144,-0.8598,-0.796,-0.7509,-0.727,-0.7194,-0.7194,-0.7531,-0.7982,-0.7845,-0.8232,-0.8819,-4.5594,0.0,0.0,-4.5429,0.0,0.0,-4.5711,0.0,0.0,-4.7204,-4.7721,0.0,-4.7168,-4.7205,-4.6746,-4.5498,-4.4966,0.0,0.0,0.0,0.0,-4.2983,-4.2983,-4.28,-4.2451,-4.2011,0.0,-4.0579,0.0,0.0,-3.6978,0.0,0.0,0.0,0.0,-3.3241,0.0,-3.2144,-3.1581,-3.119,-3.119,0.0,0.0,-3.026,-2.9666,-2.9092,-2.9092,-2.8534,-2.7756,-2.7418,-2.7046,-2.664,-2.6319,-2.593,-2.5541,-2.5203,-2.4609,-2.4017,-2.4017,-2.378,-2.3427,-2.3021,-2.289,-2.2745,-2.2341,-2.2123,-2.1988,0.0,0.0,0.0,0.0,0.0,0.0,0.0,0.0,0.0,0.0,0.0,0.0,0.0,-2.2356,0.0,-2.0858,-2.0189,-1.9597,-1.9045,0.0,0.0,0.0,0.0,0.0,0.0,-1.6386,-1.6028,-1.5669,-1.4938,-1.4309,-1.3748,-1.2196,-1.1293,-1.0931,-1.0094,-0.971,-0.9698,-0.9315,-0.8888,-0.8398,-0.8081,-0.7833,-0.769,-0.7925,-0.8186,-0.8435,-0.8585,-0.8754,-0.8899,0.0,0.0,0.0,0.0,0.0,0.0,0.0,-4.5398,0.0,-4.7053,0.0,-4.614,-4.6709,-4.6159,-4.5424,-4.4617,0.0,-4.4103,-4.3387,-4.3239,-4.2873,-4.2176,-4.2139,-4.1827,-4.1113,-4.1003,0.0,0.0,0.0,0.0,0.0,0.0,0.0,0.0,0.0,0.0,0.0,-3.1913,-3.1445,0.0,-3.1089,-3.0666,-3.0072,-2.9888,-2.8973,-2.779,-2.7689,-2.7655,-2.7536,-2.681,-2.6556,-2.642,-2.5693,-2.5389,-2.5186,-2.4541,-2.3831,-2.3257,-2.3257,-2.2801,-2.2296,-2.2296,-2.2296,-2.2296,-2.2296,-2.2254,-2.2166,-2.203,-2.169,0.0,0.0,0.0,0.0,0.0,0.0,0.0,0.0,0.0,0.0,0.0,0.0,0.0,0.0,-2.0201,0.0,0.0,0.0,0.0,0.0,0.0,0.0,0.0,-1.628,0.0,-1.5879,0.0,-1.4388,-1.4474,-1.2315,-1.1259,-1.1223,-1.009,-0.9564,-0.9551,-0.9458,-0.9132,-0.8632,-0.8693,-0.8465,-0.8126,-0.8658,-0.8826,-0.8787,-0.9042,-0.8978,-0.8752,0.0,0.0,0.0,0.0,0.0,-4.477,-4.4594,-4.4892,-4.5403,-4.6209,-4.6084,-4.57,-4.5168,-4.4984,-4.4599,-4.3773,-4.3094,0.0,0.0,0.0,0.0,-4.1315,-4.1297,-4.1242,-4.1095,-4.0451,-4.0029,0.0,0.0,0.0,0.0,0.0,0.0,0.0,0.0,0.0,-3.2038,-3.173,0.0,-3.114,-3.0548,-3.0226,-2.9954,-2.8686,-2.8043,-2.7722,-2.7114,-2.6894,-2.6776,-2.6048,-2.5778,-2.5659,-2.4931,-2.4288,-2.3765,-2.363,-2.3071,-2.2482,-2.2482,-2.2398,-2.2296,-2.2296,-2.2296,-2.2296,-2.2296,-2.2282,-2.2209,-2.1972,-2.1766,-2.1541,-2.1198,0.0,0.0,0.0,0.0,0.0,0.0,0.0,0.0,0.0,0.0,0.0,0.0,0.0,0.0,0.0,0.0,0.0,0.0,0.0,0.0,0.0,0.0,0.0,0.0,0.0,0.0,-1.4006,-1.2058,-1.1133,-1.1081,-0.9897,-0.9326,-0.9259,-0.9147,-0.8781,-0.8287,-0.83,-0.839,-0.8537,-0.9022,-0.917,-0.9088,-0.8874,-0.8714,-0.8648,0.0,0.0,0.0,0.0,0.0,0.0,0.0,-4.4241,0.0,-4.4757,-4.4707,-4.4507,-4.4121,-4.3718,-4.3296,-4.291,-4.2139,-4.168,-4.168,-4.1315,-4.0728,-3.9884,-3.9863,0.0,-3.8634,-3.8148,-3.8132,-3.8554,0.0,0.0,0.0,0.0,0.0,0.0,0.0,-3.2335,0.0,0.0,0.0,-3.0598,-3.0243,-2.9616,-2.8821,-2.8077,-2.7553,-2.7131,-2.6387,-2.6133,-2.6082,-2.5711,-2.5355,-2.4898,-2.4169,-2.3695,-2.3325,-2.2936,-2.2581,-2.2296,-2.2296,-2.2296,-2.2296,-2.2296,-2.2296,-2.2296,-2.2296,-2.2296,-2.2223,-2.1957,-2.1736,-2.1417,-2.0827,-2.0724,0.0,0.0,0.0,0.0,0.0,0.0,0.0,0.0,0.0,0.0,0.0,0.0,0.0,0.0,0.0,0.0,0.0,0.0,0.0,0.0,0.0,0.0,0.0,0.0,0.0,-1.3619,-1.167,-1.0759,-1.0798,-0.9588,-0.9006,-0.8935,-0.8792,-0.8566,-0.8308,-0.8374,-0.852,-0.8728,-0.8914,-0.8921,-0.882,-0.8575,-0.8432,-0.8358,0.0,-4.5237,0.0,0.0,-4.4508,0.0,0.0,-4.349,-4.3396,-4.3563,-4.3384,-4.3239,-4.3239,-4.2525,-4.2047,-4.2047,-4.1148,-4.0581,-4.0581,-4.027,-3.9499,-3.8248,-3.816,-3.7539,-3.6288,-3.6131,-3.6364,0.0,0.0,0.0,0.0,0.0,0.0,0.0,0.0,0.0,0.0,0.0,-3.0694,-3.0074,-2.9734,-2.8872,-2.779,-2.7621,-2.7114,-2.6387,-2.5812,-2.5406,-2.5135,-2.5135,-2.4746,-2.4135,-2.3393,-2.3173,-2.3054,-2.2465,-2.2296,-2.2296,-2.2296,-2.2296,-2.2296,-2.2296,-2.2296,-2.2296,-2.2296,-2.2282,-2.2194,-2.1928,-2.1584,-2.1151,-2.0492,-2.0218,0.0,0.0,0.0,0.0,0.0,0.0,0.0,0.0,0.0,0.0,0.0,0.0,0.0,0.0,0.0,0.0,0.0,0.0,0.0,0.0,0.0,0.0,-1.4713,0.0,-1.3077,0.0,-1.1335,-1.0502,-1.0577,-0.9485,-0.8944,-0.8883,-0.8731,-0.8594,-0.8474,-0.852,-0.8603,-0.8679,-0.8634,-0.8544,-0.8414,-0.8276,-0.8144,-0.8054,0.0,0.0,0.0,0.0,0.0,0.0,0.0,-4.2574,-4.2735,-4.3422,-4.2855,-4.2415,-4.2415,-4.1682,-4.1205,-4.1205,-3.9808,-3.8927,-3.8927,-3.7551,-3.667,-3.6523,-3.6395,-3.6274,-3.6128,-3.5979,-3.5957,0.0,0.0,0.0,0.0,0.0,0.0,0.0,0.0,0.0,0.0,-3.0636,-3.0236,-2.9989,-2.8584,-2.7925,-2.7722,-2.7063,-2.6353,-2.5693,-2.5625,-2.4746,-2.3613,-2.3613,-2.3562,-2.3376,-2.2649,-2.2398,-2.2381,-2.2313,-2.2296,-2.2296,-2.2296,-2.2296,-2.2296,-2.2296,-2.2296,-2.2296,-2.2296,-2.2254,-2.214,-2.1871,-2.1262,-2.0677,-2.0373,-2.0148,-2.0167,0.0,0.0,0.0,0.0,0.0,0.0,0.0,0.0,0.0,0.0,0.0,0.0,0.0,0.0,0.0,0.0,0.0,0.0,0.0,0.0,-1.5123,-1.4689,-1.332,0.0,-1.2669,-1.1257,-1.0617,-1.0664,-0.9949,-0.9583,-0.9512,-0.9309,-0.902,-0.8644,-0.8415,-0.8336,-0.8336,-0.8347,-0.829,-0.8201,-0.8009,-0.7894,-0.7817,0.0,0.0,0.0,0.0,0.0,0.0,0.0,-4.165,-4.1732,-4.2011,-4.1791,-4.1572,-4.1572,-4.0855,-4.0194,-3.9698,-3.8634,-3.7771,-3.7294,-3.6571,-3.5956,-3.5475,-3.5323,-3.5016,-3.4484,-3.4271,-3.4364,0.0,0.0,0.0,0.0,0.0,0.0,0.0,0.0,-3.0909,-3.0672,-2.983,-2.9197,-2.8669,-2.8043,-2.7536,-2.7063,-2.6319,-2.5862,-2.5474,-2.4611,-2.39,-2.3325,-2.2885,-2.275,-2.2699,-2.2381,-2.2296,-2.2296,-2.2296,-2.2296,-2.2296,-2.2296,-2.2296,-2.2296,-2.2296,-2.2296,-2.2282,-2.224,-2.2166,-2.2003,-2.1739,-2.1055,-2.0443,-2.022,-1.9975,-1.9888,0.0,0.0,0.0,0.0,0.0,0.0,0.0,0.0,0.0,0.0,0.0,0.0,0.0,0.0,0.0,0.0,0.0,0.0,-1.7337,0.0,-1.5314,-1.4577,-1.305,-1.2297,-1.2276,-1.0905,-1.0304,-1.0383,-0.9756,-0.9405,-0.9288,-0.9164,-0.8908,-0.8569,-0.8465,-0.8267,-0.8056,-0.8056,-0.8023,-0.7947,-0.7865,-0.7792,-0.7729,-4.3108,0.0,-4.2422,0.0,-4.1418,-4.1083,-4.0546,-4.0428,-4.0215,-3.9753,-3.9698,-3.9866,-4.0343,-3.9478,-3.8597,-3.8046,-3.7224,-3.6399,-3.5595,-3.5403,-3.4962,-3.4144,-3.4167,0.0,-3.3241,-3.2928,-3.3035,-3.3503,-3.3581,0.0,0.0,0.0,0.0,0.0,-3.0361,-2.9958,-2.9797,-2.8994,-2.8332,-2.779,-2.7553,-2.7029,-2.6319,-2.5812,-2.5338,-2.4831,-2.3765,-2.3257,-2.3004,-2.2482,-2.2296,-2.2296,-2.2296,-2.2296,-2.2296,-2.2296,-2.2296,-2.2296,-2.2268,-2.2268,-2.2254,-2.2194,-2.218,-2.2149,-2.2111,-2.1974,-2.1766,-2.1387,-2.0811,-2.0306,-2.0063,-1.9851,-1.9708,0.0,0.0,0.0,0.0,0.0,0.0,0.0,-1.8888,-1.8857,-1.8732,0.0,0.0,0.0,0.0,0.0,0.0,0.0,0.0,0.0,0.0,0.0,0.0,0.0,-1.2172,-1.1965,-1.0854,-1.0316,-1.0303,-0.9833,-0.9559,-0.9454,-0.9256,-0.9048,-0.8809,-0.8563,-0.8297,-0.8029,-0.79,-0.7807,-0.7773,-0.7773,-0.7739,-0.7695,-4.174,-4.1673,-4.1557,-4.1339,-4.1248,-4.0638,-3.898,-3.8726,-3.8157,-3.656,-3.6358,-3.6964,-3.856,-3.7294,-3.634,-3.6321,-3.5475,-3.459,-3.3771,-3.3613,-3.3136,0.0,0.0,-3.2959,-3.2811,-3.2487,-3.2301,-3.2318,0.0,0.0,-3.3207,0.0,0.0,-2.9331,-2.9191,-2.9066,-2.8959,-2.8145,-2.7807,-2.7739,-2.7012,-2.6268,-2.5609,-2.5592,-2.4712,-2.341,-2.341,-2.2936,-2.2313,-2.2296,-2.2296,-2.2296,-2.2296,-2.2296,-2.2296,-2.2296,-2.2296,-2.2282,-2.2228,-2.22,-2.2154,-2.1943,-2.1897,-2.1899,-2.1811,-2.1709,-2.1419,-2.0746,-2.046,-2.02,-1.9884,-1.9744,-1.9708,-1.9708,0.0,0.0,0.0,0.0,0.0,0.0,-1.8141,-1.788,-1.8009,0.0,0.0,0.0,0.0,0.0,0.0,0.0,0.0,-1.7534,-1.6148,0.0,-1.4793,-1.3324,-1.2285,-1.1691,-1.1281,-1.0915,-1.0592,-1.0447,-1.0351,-1.0263,-0.9796,-0.9583,-0.9533,-0.8737,-0.8401,-0.8346,-0.7876,-0.7695,-0.7695,-0.7695,-0.7695,-0.7695,-3.9152,-3.8952,-3.8689,-3.8062,-3.7897,-3.7672,-3.7147,-3.7055,-3.6872,-3.6376,-3.5789,-3.561,-3.6123,-3.6172,-3.5937,0.0,-3.4483,-3.3577,0.0,-3.1992,-3.1452,-3.1131,-3.1059,-3.0963,-3.0816,-3.0538,-3.0369,-3.0318,0.0,0.0,0.0,-3.0138,-2.9672,-2.914,-2.8488,-2.8197,-2.8146,-2.7368,-2.7012,-2.6927,-2.6185,-2.5714,-2.5362,-2.4399,-2.374,-2.3268,-2.2806,-2.2471,-2.2242,-2.2242,-2.2137,-2.2032,-2.2032,-2.2149,-2.2282,-2.2257,-2.2242,-2.2197,-2.2034,-2.1959,-2.1903,-2.1797,-2.1691,-2.16,-2.1479,-2.1182,-2.0828,-2.0529,-2.0272,-2.0025,-1.9848,-1.9744,-1.9708,-1.9708,0.0,0.0,0.0,0.0,0.0,0.0,0.0,-1.7784,0.0,-1.8006,0.0,0.0,0.0,0.0,0.0,0.0,0.0,0.0,-1.5844,0.0,-1.4672,-1.3204,-1.2322,-1.2044,-1.1638,-1.1207,-1.0794,-1.0489,-1.0322,-1.0293,-1.0137,-0.9902,-0.9573,-0.9328,-0.9062,-0.877,-0.834,-0.8174,-0.8135,-0.7827,-0.7695,-0.7695,-3.7336,-3.7178,-3.6944,-3.6448,-3.6332,-3.6193,-3.5862,-3.5807,-3.5697,-3.5404,-3.4862,-3.4504,-3.4504,-3.456,0.0,-3.4,-3.332,0.0,-3.1259,-3.0736,-3.0297,-2.9905,-2.9876,-2.9823,-2.9708,0.0,0.0,-2.9281,-2.9227,-2.9037,-2.873,-2.8643,-2.8455,-2.8167,-2.7334,-2.6962,-2.6911,-2.6167,-2.5797,-2.5681,-2.5211,-2.4777,-2.4378,-2.349,-2.2986,-2.2685,-2.226,-2.2094,-2.2036,-2.2007,-2.1932,-2.1811,-2.1781,-2.1855,-2.2005,-2.2051,-2.2022,-2.1978,-2.1766,-2.1661,-2.1521,-2.1091,-2.0919,-2.0762,-2.0319,-2.0161,-2.0071,-1.9903,-1.9895,-1.9884,-1.978,-1.9726,-1.969,-1.9669,0.0,0.0,0.0,0.0,0.0,0.0,0.0,0.0,0.0,-1.7425,0.0,0.0,0.0,0.0,0.0,0.0,0.0,-1.6818,-1.5523,0.0,-1.4539,-1.3297,-1.2523,-1.2203,-1.179,-1.1349,-1.0898,-1.0635,-1.043,-1.0303,-1.0303,-1.0127,-0.9845,-0.9679,-0.9447,-0.9157,-0.8713,-0.8451,-0.8251,-0.799,-0.7782,-0.7622,-3.5954,-3.5954,0.0,0.0,-3.5954,0.0,-3.4876,-3.4747,-3.4472,-3.3733,-3.3574,-3.3534,-3.3534,-3.2627,-3.2057,-3.2179,0.0,0.0,0.0,-2.9738,-2.9511,-2.8633,-2.9053,0.0,-2.9145,-2.8954,-2.8831,-2.878,-2.8725,-2.8298,-2.757,-2.757,-2.7198,-2.6522,-2.5845,-2.5525,-2.5474,-2.4718,-2.4337,-2.4258,-2.4145,-2.36,-2.2859,-2.281,-2.2363,-2.1783,-2.1766,-2.1766,-2.1768,-2.1693,-2.1664,-2.1617,-2.1478,-2.1447,-2.1478,-2.1706,-2.1723,-2.1617,-2.1433,-2.1292,-2.0957,-2.0019,-1.972,-1.9452,-1.8594,-1.881,-1.9159,-1.9022,-1.9386,-1.9734,-1.9693,-1.9708,-1.9672,-1.9611,-1.9483,-1.9265,-1.8998,0.0,0.0,0.0,0.0,0.0,0.0,-1.6977,-1.7297,0.0,0.0,0.0,0.0,0.0,0.0,-1.6371,-1.5182,-1.4503,-1.4334,-1.3501,-1.2795,-1.2242,-1.1848,-1.1398,-1.0947,-1.0918,-1.0684,-1.0303,-1.0303,-1.0303,-1.0273,-0.9825,-0.9586,-0.9484,-0.9009,-0.8565,-0.8156,-0.8166,-0.79,-0.7513,0.0,0.0,-3.2572,-3.2572,-3.2572,-3.2498,-3.2284,-3.2247,-3.2173,-3.2003,-3.192,-3.1856,-3.1798,-3.1379,-3.0844,-3.0158,-2.9857,-2.949,-2.8999,-2.8289,-2.7757,-2.7489,-2.75,-2.7213,-2.6601,-2.6469,-2.6165,-2.5588,-2.5573,-2.5472,-2.5286,-2.5286,-2.5185,-2.5015,-2.4783,-2.4668,-2.4668,-2.4373,-2.4163,-2.3934,-2.321,-2.272,-2.2394,-2.1858,-2.1564,-2.1433,-2.1524,-2.1509,-2.1418,-2.1387,-2.1214,-2.1006,-2.0974,-2.086,-2.0828,-2.1277,-2.1402,-2.1324,-2.1007,-2.0512,-1.9973,-1.9577,-1.9029,-1.8516,-1.8299,-1.825,-1.8365,-1.883,-1.894,-1.9109,-1.9618,-1.9708,-1.9672,-1.9611,-1.9358,-1.9064,-1.8741,0.0,0.0,0.0,-1.7183,-1.6897,-1.6718,-1.6626,-1.666,0.0,0.0,0.0,0.0,0.0,-1.5702,-1.5697,-1.474,-1.4064,-1.3714,-1.3194,-1.288,-1.2725,-1.2262,-1.1836,-1.1418,-1.1064,-1.0684,-1.0303,-1.0303,-1.0303,-1.0273,-1.007,-0.9945,-0.9829,-0.931,-0.8985,-0.871,-0.8111,-0.7826,-0.7711,-3.1397,-3.1397,-3.1397,-3.1397,-3.1397,-3.1397,-3.1397,-3.1397,-3.1384,-3.1365,-3.1276,-3.1172,-3.1021,-3.0391,-2.9742,-2.9142,-2.8938,-2.8658,-2.8185,-2.7471,-2.6868,-2.6478,-2.6365,-2.5927,-2.5164,-2.5133,-2.4898,-2.4491,-2.4491,-2.4491,-2.4491,-2.4491,-2.4475,-2.4444,-2.4031,-2.3803,-2.3692,-2.3138,-2.2815,-2.2606,-2.1989,-2.1664,-2.1532,-2.1101,-2.0926,-2.0942,-2.1007,-2.1007,-2.0942,-2.0893,-2.0762,-2.0596,-2.0578,-2.0291,-1.9993,-2.0224,-2.0353,-2.0385,-2.0174,-1.9576,-1.8889,-1.8376,-1.767,-1.7106,-1.7106,-1.7242,-1.7449,-1.7826,-1.8077,-1.8446,-1.9083,-1.9203,-1.9236,-1.935,-1.9139,-1.8803,-1.8383,-1.7928,0.0,-1.7204,-1.6897,-1.6684,-1.6577,-1.6241,-1.613,-1.6314,0.0,0.0,-1.5489,-1.507,-1.4879,-1.4992,-1.4241,-1.3714,-1.3506,-1.3096,-1.2905,-1.2905,-1.2565,-1.2118,-1.1509,-1.118,-1.0725,-1.0147,-1.0147,-1.0147,-1.0157,-1.003,-0.9892,-0.9726,-0.9349,-0.8969,-0.8588,-0.8211,-0.7895,-0.7654,-3.1035,-3.1035,-3.1035,-3.1005,-3.1005,-3.1023,-3.1011,-3.1011,-3.0986,-3.0923,-3.0795,-3.0581,-3.0268,-2.9272,-2.8489,-2.8186,-2.8107,-2.7818,-2.7187,-2.6749,-2.623,-2.5552,-2.5454,-2.5084,-2.4355,-2.422,-2.4169,-2.4169,-2.4169,-2.4169,-2.4154,-2.4154,-2.4108,-2.3982,-2.3303,-2.2849,-2.2598,-2.1709,-2.1246,-2.1087,-2.0827,-2.0677,-2.0594,-2.0477,-2.0443,-2.0443,-2.046,-2.046,-2.0427,-2.0376,-2.0325,-2.0292,-2.0147,-1.9682,-1.9173,-1.8951,-1.8943,-1.901,-1.9069,-1.8543,-1.7776,-1.694,-1.6262,-1.5799,-1.5799,-1.6204,-1.6592,-1.6681,-1.7144,-1.7724,-1.831,-1.8483,-1.8632,-1.8887,-1.8803,-1.8553,-1.8028,0.0,-1.7282,-1.6897,-1.6607,-1.6414,-1.6318,-1.5856,-1.5633,-1.5787,-1.5263,0.0,0.0,-1.4588,-1.4313,-1.4185,-1.3749,-1.3477,-1.3418,-1.3057,-1.2881,-1.2881,-1.2657,-1.2133,-1.1312,-1.1114,-1.0627,-0.9921,-0.9921,-0.9921,-0.9921,-0.9763,-0.9587,-0.9379,-0.9168,-0.872,-0.8213,-0.8256,-0.7947,-0.7502,-2.9372,-2.9372,-2.936,-2.9295,-2.9295,-2.9271,-2.9211,-2.9199,-2.9174,-2.9113,-2.9,-2.8575,-2.7678,-2.7179,-2.6565,-2.573,-2.5414,-2.5437,-2.5919,-2.528,-2.4811,-2.4692,-2.4677,-2.4338,-2.3594,-2.297,-2.2634,-2.2634,-2.2634,-2.2606,-2.2565,-2.2565,-2.2459,-2.2276,-2.2044,-2.1812,-2.1611,-2.1151,-2.0861,-2.0663,-2.046,-2.0306,-2.0187,-2.017,-2.0152,-2.0185,-2.0289,-2.0254,-2.0152,-2.0152,-2.003,-1.9814,-1.9271,-1.8978,-1.8682,-1.8078,-1.7539,-1.727,-1.7938,-1.7542,-1.6773,-1.6128,-1.5888,-1.5799,-1.5799,-1.5873,-1.6069,-1.6516,-1.6693,-1.6944,-1.7478,-1.8,-1.8293,-1.8111,-1.8238,-1.8226,0.0,0.0,-1.6947,-1.6607,-1.6383,-1.6144,-1.5925,-1.5568,-1.5221,-1.4925,-1.446,-1.4021,-1.3696,-1.3459,-1.3283,-1.3126,-1.3359,-1.334,-1.3013,-1.2935,-1.2832,-1.2725,-1.2253,-1.1652,-1.0958,-1.049,-1.0006,-0.9587,-0.9587,-0.9587,-0.9567,-0.9377,-0.9139,-0.8881,-0.8631,-0.8382,-0.8153,-0.7772,-0.7567,-0.7483,-2.7703,-2.768,-2.7629,-2.7572,-2.752,-2.7474,-2.7398,-2.7386,-2.7339,-2.7217,-2.7117,-2.679,-2.6105,-2.5827,-2.545,-2.4886,-2.43,-2.4096,-2.4437,-2.4489,-2.4321,-2.3932,-2.3915,-2.3562,-2.2835,-2.2465,-2.2296,-2.2296,-2.2254,-2.218,-2.2092,-2.202,-2.1857,-2.1615,-2.148,-2.1262,-2.0958,-2.073,-2.0513,-2.0309,-2.0115,-1.9993,-1.994,-1.9904,-1.9871,-1.9889,-1.9957,-1.994,-1.9871,-1.9871,-1.9574,-1.9159,-1.8876,-1.8257,-1.7548,-1.7249,-1.695,-1.6697,-1.6758,-1.6503,-1.6144,-1.5873,-1.5799,-1.5799,-1.5799,-1.5741,-1.5743,-1.5965,-1.5963,-1.6046,-1.651,-1.7044,-1.7402,-1.7455,-1.7813,0.0,0.0,-1.7157,-1.6791,-1.6383,-1.6066,-1.578,-1.5546,-1.5096,-1.4674,-1.434,-1.3849,-1.3457,-1.3248,-1.3065,-1.2954,-1.2905,-1.3066,-1.3101,-1.2905,-1.2832,-1.2609,-1.2273,-1.1804,-1.1122,-1.031,-0.9929,-0.9525,-0.9059,-0.9059,-0.9059,-0.9059,-0.8854,-0.8663,-0.8443,-0.8139,-0.7933,-0.7786,-0.7577,-0.7485,-0.7444,-2.6573,-2.653,-2.6447,-2.6351,-2.6272,-2.6204,-2.6123,-2.6081,-2.6027,-2.5841,-2.5735,-2.5491,-2.4962,-2.4763,-2.4525,-2.4117,-2.3505,-2.3139,-2.3139,-2.3663,-2.3746,-2.3173,-2.3139,-2.2885,-2.2313,-2.2282,-2.2268,-2.2268,-2.2183,-2.2063,-2.1943,-2.1781,-2.1555,-2.1293,-2.1135,-2.086,-2.0529,-2.0359,-2.0202,-2.0028,-1.9851,-1.978,-1.9762,-1.9726,-1.9708,-1.9708,-1.9708,-1.9708,-1.9678,-1.9528,-1.9121,-1.8657,-1.8326,-1.7518,-1.6666,-1.6532,-1.6472,-1.6338,-1.5919,-1.5799,-1.5799,-1.5799,-1.5784,-1.5755,-1.5755,-1.5653,-1.5536,-1.5448,-1.5299,-1.5275,-1.5507,-1.5952,-1.6374,-1.6704,0.0,0.0,0.0,-1.6905,-1.6586,-1.6122,-1.5714,-1.539,-1.5119,-1.4593,-1.4163,-1.3884,-1.3433,-1.3142,-1.3099,-1.2978,-1.2905,-1.2905,-1.2856,-1.2856,-1.2856,-1.2604,-1.223,-1.1757,-1.1191,-1.0467,-0.9606,-0.9295,-0.8906,-0.8521,-0.8521,-0.8521,-0.85,-0.8304,-0.816,-0.8013,-0.7704,-0.7517,-0.7426,-0.7398,-0.7363,-0.7307,-2.653,-2.6458,-2.6351,-2.6169,-2.6069,-2.5978,-2.5849,-2.5773,-2.5683,-2.5544,-2.5415,-2.4982,-2.4102,-2.3818,-2.34,-2.2626,-2.2454,-2.2381,-2.2381,-2.2431,-2.2431,-2.2381,-2.2381,-2.2347,-2.2296,-2.2225,-2.2214,-2.2214,-2.2034,-2.184,-2.1708,-2.1509,-2.1245,-2.0926,-2.073,-2.0529,-2.0304,-2.0113,-1.9955,-1.9815,-1.9744,-1.9708,-1.9708,-1.9708,-1.9708,-1.9708,-1.9708,-1.9708,-1.9618,-1.8986,-1.8747,-1.8476,-1.7234,-1.6771,-1.6592,-1.6039,-1.5771,-1.5698,-1.5785,-1.5799,-1.5799,-1.5799,-1.5712,-1.561,-1.561,-1.5507,-1.5388,-1.5253,-1.5058,-1.4842,-1.455,-1.4943,-1.5387,-1.5684,0.0,0.0,-1.6731,-1.6518,-1.6173,-1.5702,-1.5345,-1.4971,-1.4512,-1.4093,-1.3739,-1.3457,-1.3224,-1.3109,-1.3109,-1.2978,-1.2905,-1.2905,-1.2783,-1.27,-1.27,-1.2097,-1.1621,-1.134,-1.0303,-0.9546,-0.9047,-0.8393,-0.8051,-0.7953,-0.7953,-0.7953,-0.7961,-0.7816,-0.7683,-0.7523,-0.7307,-0.7237,-0.7209,-0.7091,-0.7042,-0.7021,-2.4826,-2.478,-2.4671,-2.4507,-2.4361,-2.421,-2.4018,-2.3941,-2.385,-2.3723,-2.3652,-2.3467,-2.3031,-2.2897,-2.2725,-2.2369,-2.231,-2.2296,-2.2296,-2.2296,-2.2296,-2.2296,-2.2254,-2.2225,-2.2225,-2.2094,-2.1991,-2.1947,-2.1706,-2.1509,-2.1388,-2.1055,-2.0795,-2.0596,-2.0378,-2.017,-1.9975,-1.9919,-1.9815,-1.9744,-1.9708,-1.9708,-1.9708,-1.9708,-1.9708,-1.9708,-1.9708,-1.942,-1.9031,-1.8792,-1.8147,-1.7369,-1.686,-1.6443,-1.6069,-1.5772,-1.561,-1.5536,-1.5492,-1.5522,-1.5551,-1.5551,-1.5477,-1.5403,-1.5358,-1.5209,-1.5043,-1.4932,-1.4639,-1.434,-1.4138,-1.4451,-1.4756,-1.473,0.0,-1.6046,-1.5911,-1.5942,-1.5822,-1.5345,-1.4926,-1.4489,-1.4069,-1.3658,-1.3372,-1.3234,-1.3075,-1.2978,-1.2978,-1.2856,-1.2783,-1.2783,-1.2406,-1.2323,-1.2578,-1.1792,-1.1138,-1.0602,-0.9622,-0.8856,-0.8303,-0.7874,-0.7736,-0.7831,-0.7831,-0.7831,-0.7824,-0.7701,-0.7502,-0.7307,-0.7139,-0.707,-0.707,-0.7021,-0.7,-0.7,-2.371,-2.366,-2.3555,-2.3377,-2.3187,-2.3003,-2.2842,-2.2751,-2.2659,-2.2555,-2.2542,-2.2501,-2.2394,-2.238,-2.2352,-2.231,-2.2296,-2.2296,-2.2296,-2.2282,-2.2268,-2.2268,-2.218,-2.2123,-2.2082,-2.1857,-2.1706,-2.1631,-2.1355,-2.1135,-2.099,-2.0663,-2.0427,-2.0272,-2.0098,-1.9922,-1.9762,-1.9762,-1.9744,-1.9708,-1.9708,-1.9708,-1.9708,-1.9708,-1.9708,-1.9678,-1.9468,-1.9091,-1.8642,-1.8207,-1.7458,-1.6651,-1.6427,-1.604,-1.5653,-1.5566,-1.5433,-1.5285,-1.4963,-1.4861,-1.4861,-1.4964,-1.4776,-1.4558,-1.4514,-1.4338,-1.4187,-1.4256,-1.3972,-1.3738,-1.3769,-1.3947,-1.4093,-1.4078,-1.4682,-1.5136,-1.512,-1.5224,-1.5191,-1.4858,-1.4466,-1.4046,-1.3644,-1.3334,-1.3128,-1.3051,-1.2954,-1.2905,-1.2905,-1.2774,-1.2676,-1.2627,-1.2126,-1.1927,-1.2126,-1.1179,-1.0432,-0.9916,-0.9004,-0.8331,-0.7858,-0.7738,-0.7747,-0.7843,-0.7843,-0.7843,-0.7813,-0.7643,-0.7465,-0.7275,-0.7082,-0.7,-0.7,-0.7,-0.7,-0.7,-2.3497,-2.3453,-2.3313,-2.3028,-2.2893,-2.2751,-2.2619,-2.2542,-2.2474,-2.2405,-2.2391,-2.2363,-2.231,-2.2296,-2.2296,-2.2296,-2.2296,-2.2296,-2.2296,-2.2242,-2.22,-2.22,-2.2075,-2.1926,-2.1812,-2.1525,-2.1355,-2.1293,-2.0958,-2.0729,-2.0597,-2.0392,-2.0183,-1.9988,-1.9866,-1.9762,-1.9708,-1.9708,-1.9708,-1.9708,-1.9708,-1.9708,-1.9693,-1.9693,-1.9693,-1.9603,-1.8927,-1.8687,-1.8476,-1.716,-1.6696,-1.6562,-1.5832,-1.5507,-1.5404,-1.5404,-1.521,-1.484,-1.4183,-1.3794,-1.3661,-1.3998,-1.3543,-1.2993,-1.2993,-1.2789,-1.273,-1.3192,-1.3085,-1.3021,-1.3428,-1.3323,-1.3333,-1.3736,-1.3617,-1.372,-1.439,-1.4327,-1.4182,-1.4192,-1.3952,-1.3644,-1.3242,-1.3128,-1.3036,-1.2905,-1.2905,-1.2905,-1.2905,-1.2774,-1.2627,-1.2505,-1.1977,-1.1553,-1.1293,-1.0175,-0.9498,-0.9298,-0.8483,-0.7988,-0.7817,-0.8022,-0.8024,-0.7912,-0.7912,-0.7912,-0.7885,-0.7618,-0.7491,-0.7457,-0.7134,-0.7,-0.7,-0.7,-0.7,-0.7,-2.3089,-2.3033,-2.2944,-2.2816,-2.2672,-2.2569,-2.2474,-2.2391,-2.2352,-2.2338,-2.2338,-2.2324,-2.2296,-2.2296,-2.2296,-2.2296,-2.2296,-2.2282,-2.2225,-2.212,-2.2003,-2.186,-2.1812,-2.1691,-2.1525,-2.1198,-2.0974,-2.0812,-2.0578,-2.0375,-2.0239,-2.0045,-1.9919,-1.9866,-1.9762,-1.9726,-1.9708,-1.9708,-1.9708,-1.9708,-1.9708,-1.9423,-1.9001,-1.9001,-1.8668,-1.8199,-1.8006,-1.7601,-1.7092,-1.6753,-1.6292,-1.5802,-1.5491,-1.5328,-1.5223,-1.5026,-1.4592,-1.4063,-1.363,-1.281,-1.2224,-1.2886,-1.2802,-1.2538,-1.2454,-1.234,-1.2279,-1.2362,-1.2471,-1.2599,-1.2715,-1.2833,-1.2904,-1.2884,-1.3025,-1.3229,-1.3418,-1.3596,-1.3726,-1.3771,-1.3539,-1.33,-1.3162,-1.3027,-1.2929,-1.2905,-1.2905,-1.2856,-1.2759,-1.2529,-1.2274,-1.1952,-1.1326,-1.0812,-1.0379,-0.9854,-0.9523,-0.9361,-0.8497,-0.8068,-0.7999,-0.7977,-0.8067,-0.8243,-0.8243,-0.8243,-0.8216,-0.7916,-0.7662,-0.7457,-0.7083,-0.6929,-0.6914,-0.6829,-0.6787,-0.6787,-2.279,-2.2751,-2.2685,-2.2592,-2.2515,-2.2432,-2.238,-2.2324,-2.2296,-2.2296,-2.2296,-2.2296,-2.2296,-2.2296,-2.2282,-2.2254,-2.2194,-2.2003,-2.1706,-2.1509,-2.1203,-2.0736,-2.0601,-2.0611,-2.0764,-2.0448,-2.008,-1.9651,-1.9453,-1.9319,-1.922,-1.9049,-1.8964,-1.8964,-1.8929,-1.8912,-1.8912,-1.8912,-1.8912,-1.8912,-1.8912,-1.8672,-1.8296,-1.828,-1.7976,-1.7522,-1.7238,-1.6818,-1.6388,-1.6154,-1.574,-1.527,-1.5178,-1.5011,-1.4799,-1.4362,-1.3892,-1.3372,-1.2663,-1.1866,-1.1295,-1.1522,-1.1548,-1.1507,-1.1426,-1.1329,-1.1284,-1.1446,-1.1557,-1.1734,-1.2135,-1.2263,-1.227,-1.2265,-1.23,-1.2427,-1.2718,-1.2872,-1.3053,-1.3369,-1.3262,-1.3128,-1.3027,-1.2954,-1.2905,-1.2905,-1.2856,-1.2759,-1.2627,-1.2323,-1.1952,-1.1544,-1.0863,-1.0326,-0.9917,-0.9558,-0.926,-0.9086,-0.8508,-0.8224,-0.8224,-0.8248,-0.8377,-0.8569,-0.8569,-0.8569,-0.8517,-0.8079,-0.7769,-0.7534,-0.7022,-0.6766,-0.6687,-0.6602,-0.6538,-0.6517,-2.2596,-2.2565,-2.2525,-2.2405,-2.2377,-2.238,-2.231,-2.2296,-2.2296,-2.2296,-2.2296,-2.2282,-2.2282,-2.2282,-2.224,-2.2168,-2.1938,-2.1532,-2.09,-2.0553,-2.0009,-1.919,-1.8899,-1.9023,-1.9546,-1.9373,-1.8902,-1.8175,-1.797,-1.789,-1.789,-1.7762,-1.7713,-1.7713,-1.7713,-1.7713,-1.7713,-1.7713,-1.7713,-1.7713,-1.7697,-1.7652,-1.7591,-1.7526,-1.7417,-1.7202,-1.6516,-1.6231,-1.605,-1.544,-1.5118,-1.4967,-1.486,-1.461,-1.4228,-1.3554,-1.3184,-1.2733,-1.1501,-1.1039,-1.075,-1.0148,-1.0059,-1.0148,-1.0161,-1.0021,-1.0017,-1.0491,-1.047,-1.065,-1.1595,-1.1595,-1.1526,-1.1811,-1.1523,-1.1508,-1.2205,-1.2159,-1.2299,-1.294,-1.3055,-1.3027,-1.2905,-1.2905,-1.2905,-1.2881,-1.2759,-1.2603,-1.2446,-1.2051,-1.1644,-1.1226,-1.0531,-1.001,-0.9736,-0.9237,-0.8871,-0.863,-0.8486,-0.8442,-0.8449,-0.8691,-0.8804,-0.8804,-0.8804,-0.8791,-0.8724,-0.8132,-0.7784,-0.7581,-0.6915,-0.6526,-0.6346,-0.6325,-0.6233,-0.6163,-2.238,-2.2366,-2.2366,-2.2324,-2.2324,-2.2324,-2.2296,-2.2296,-2.2296,-2.2296,-2.2254,-2.2228,-2.2228,-2.2077,-2.1972,-2.1974,-2.1296,-2.0755,-2.0464,-1.9778,-1.9233,-1.883,-1.8605,-1.8206,-1.7623,-1.8068,-1.8187,-1.797,-1.7811,-1.7746,-1.7746,-1.7713,-1.7713,-1.7713,-1.7713,-1.7713,-1.7713,-1.7713,-1.7713,-1.7713,-1.7633,-1.7319,-1.6827,-1.6716,-1.6265,-1.5659,-1.5346,-1.5148,-1.5008,-1.476,-1.4704,-1.4716,-1.4388,-1.4195,-1.3928,-1.3166,-1.2557,-1.1988,-1.1175,-1.0555,-1.0095,-0.9904,-0.9788,-0.9749,-0.9866,-0.9814,-0.9747,-0.9763,-0.9934,-1.0235,-1.0699,-1.0877,-1.1052,-1.138,-1.1188,-1.1094,-1.1419,-1.1656,-1.1933,-1.2361,-1.2724,-1.2929,-1.2905,-1.2905,-1.2856,-1.2749,-1.2627,-1.2397,-1.2051,-1.1653,-1.1124,-1.0454,-0.9984,-0.9543,-0.9185,-0.8956,-0.8876,-0.8912,-0.8789,-0.8711,-0.8717,-0.8778,-0.8804,-0.8804,-0.8804,-0.8677,-0.8437,-0.7942,-0.7549,-0.7179,-0.6547,-0.6157,-0.59,-0.5755,-0.5669,-0.5642,-2.2296,-2.2296,-2.2282,-2.2254,-2.224,-2.2225,-2.212,-2.2106,-2.2106,-2.2063,-2.202,-2.2007,-2.1963,-2.1873,-2.1619,-2.1184,-2.057,-1.989,-1.9111,-1.8582,-1.8061,-1.7533,-1.7356,-1.7011,-1.6485,-1.6789,-1.6925,-1.6894,-1.6818,-1.6787,-1.6787,-1.6787,-1.6787,-1.6787,-1.6787,-1.6787,-1.6787,-1.6787,-1.6756,-1.6695,-1.6632,-1.6348,-1.5961,-1.5762,-1.5374,-1.4932,-1.4702,-1.4513,-1.4369,-1.4292,-1.4289,-1.4284,-1.4026,-1.3697,-1.3229,-1.2481,-1.1795,-1.1148,-1.0536,-1.0065,-0.9749,-0.9671,-0.9579,-0.9539,-0.9671,-0.9605,-0.9486,-0.9378,-0.9359,-0.9547,-1.0109,-1.0206,-1.0354,-1.0922,-1.081,-1.0843,-1.1363,-1.1555,-1.1883,-1.2461,-1.2744,-1.2905,-1.2905,-1.2832,-1.2759,-1.2603,-1.2357,-1.2051,-1.1653,-1.1141,-1.06,-1.0035,-0.9621,-0.9283,-0.9008,-0.8857,-0.8831,-0.891,-0.8831,-0.8804,-0.8804,-0.8804,-0.8804,-0.8804,-0.8804,-0.8691,-0.846,-0.7877,-0.7422,-0.6968,-0.6249,-0.5734,-0.5399,-0.5301,-0.5263,-0.5241,-2.2124,-2.2212,-2.2282,-2.2214,-2.2183,-2.2109,-2.1913,-2.1884,-2.184,-2.1751,-2.1738,-2.1693,-2.1649,-2.1488,-2.0991,-2.0052,-1.962,-1.8884,-1.7674,-1.733,-1.6863,-1.6183,-1.6039,-1.5941,-1.587,-1.5827,-1.5799,-1.5799,-1.5799,-1.5799,-1.5799,-1.5799,-1.5799,-1.5799,-1.5799,-1.5784,-1.577,-1.577,-1.5682,-1.5566,-1.5492,-1.5359,-1.5208,-1.4921,-1.4719,-1.4558,-1.4316,-1.4095,-1.3934,-1.3917,-1.3881,-1.3841,-1.3771,-1.3252,-1.2532,-1.186,-1.1157,-1.0468,-0.9911,-0.9645,-0.9511,-0.9445,-0.9339,-0.9287,-0.9406,-0.9339,-0.9242,-0.9198,-0.8934,-0.8978,-0.9766,-0.9713,-0.9787,-1.0526,-1.0555,-1.0735,-1.1453,-1.1636,-1.1966,-1.2686,-1.2832,-1.2856,-1.2856,-1.2725,-1.2578,-1.2406,-1.2026,-1.1619,-1.1175,-1.06,-1.0113,-0.9718,-0.9361,-0.9113,-0.8962,-0.8857,-0.8804,-0.8804,-0.8804,-0.8804,-0.8804,-0.8804,-0.8804,-0.8804,-0.8778,-0.8666,-0.8436,-0.7802,-0.7285,-0.6805,-0.5945,-0.5357,-0.4947,-0.4863,-0.4854,-0.481,-2.1343,-2.1854,-2.2282,-2.2214,-2.2106,-2.1986,-2.184,-2.1768,-2.1693,-2.1554,-2.1433,-2.1356,-2.1372,-2.0573,-1.9671,-1.8732,-1.8092,-1.7569,-1.7223,-1.6611,-1.6188,-1.5957,-1.5913,-1.587,-1.5813,-1.5799,-1.5799,-1.5799,-1.5799,-1.5799,-1.5799,-1.5799,-1.5799,-1.5799,-1.5799,-1.5741,-1.5624,-1.5624,-1.5551,-1.5418,-1.5298,-1.5133,-1.4921,-1.4576,-1.4353,-1.4146,-1.3941,-1.3778,-1.3648,-1.3598,-1.3598,-1.3615,-1.3493,-1.3026,-1.2399,-1.172,-1.104,-1.037,-0.9723,-0.9405,-0.9244,-0.9162,-0.8933,-0.8715,-0.8739,-0.8894,-0.9048,-0.9108,-0.8989,-0.9104,-0.9852,-0.9856,-0.9908,-1.0358,-1.0656,-1.0859,-1.0986,-1.166,-1.2164,-1.2281,-1.2551,-1.2735,-1.2735,-1.2505,-1.2249,-1.2002,-1.1603,-1.1141,-1.0557,-1.0105,-0.9692,-0.9283,-0.9106,-0.8956,-0.8831,-0.8811,-0.8804,-0.8804,-0.8804,-0.8804,-0.8804,-0.8804,-0.8804,-0.8804,-0.8685,-0.8384,-0.7974,-0.752,-0.6961,-0.6334,-0.5619,-0.5102,-0.4686,-0.4359,-0.4218,-0.4218,-2.0525,-2.0782,-2.0952,-2.0727,-2.0611,-2.0468,-2.0212,-2.0125,-2.0021,-1.9854,-1.9763,-1.9717,-1.9687,-1.9217,-1.8579,-1.7745,-1.7332,-1.6922,-1.6454,-1.6107,-1.5913,-1.5842,-1.5827,-1.5827,-1.5799,-1.5799,-1.5799,-1.5799,-1.5799,-1.5799,-1.5799,-1.5799,-1.5755,-1.5682,-1.5682,-1.561,-1.5492,-1.5462,-1.5314,-1.5104,-1.4965,-1.4733,-1.4422,-1.4206,-1.401,-1.3802,-1.3644,-1.3493,-1.3374,-1.334,-1.334,-1.3374,-1.3306,-1.2872,-1.2318,-1.1929,-1.1302,-1.0621,-1.0217,-0.9715,-0.9282,-0.9181,-0.8963,-0.8757,-0.8679,-0.8913,-0.9128,-0.8968,-0.9009,-0.9241,-0.9782,-0.9784,-0.9909,-1.0577,-1.0802,-1.1063,-1.155,-1.196,-1.2301,-1.2568,-1.2667,-1.2676,-1.2603,-1.22,-1.1852,-1.1603,-1.1015,-1.0506,-1.0079,-0.9692,-0.9335,-0.908,-0.8956,-0.8857,-0.8804,-0.8804,-0.8804,-0.8804,-0.8804,-0.8804,-0.8804,-0.8804,-0.8752,-0.8685,-0.8553,-0.8213,-0.775,-0.7195,-0.6619,-0.6007,-0.5348,-0.4854,-0.4498,-0.4172,-0.407,-0.4077]},{"header":{"parameterUnit":"m.s-1","parameterCategory":1,"la1":30.6,"la2":28.766,"lo1":-90.7593,"lo2":-88.6598,"dy":0.0162,"dx":0.0183,"nx":116,"ny":114,"refTime":"2023-07-25T12:00:00:Z","depth":0,"parameterNumber":3,"parameterNumberName":"V-component_of_WINDS"},"data":[0.0,0.0,0.0,0.0,0.0,0.0,0.0,0.0,0.0,0.0,0.0,0.0,0.0,0.0,0.0,0.0,0.0,0.0,0.0,0.0,0.0,0.0,0.0,0.0,0.0,0.0,0.0,0.0,0.0,0.0,0.0,0.0,0.0,0.0,0.0,0.0,0.0,0.0,0.0,0.0,0.0,0.0,0.0,0.0,0.0,0.0,0.0,0.0,0.0,0.0,0.0,0.0,0.0,0.0,0.0,0.0,0.0,0.0,0.0,0.0,0.0,0.0,0.0,0.0,0.0,0.0,0.0,0.0,0.0,0.0,0.0,0.0,0.0,0.0,0.0,0.0,0.0,0.0,0.0,0.0,0.0,0.0,0.0,0.0,0.0,0.0,0.0,0.0,0.0,0.0,0.0,0.0,0.0,0.0,0.0,0.0,0.0,0.0,0.0,0.0,0.0,0.0,0.0,0.0,0.0,0.0,0.0,0.0,0.0,0.0,0.0,0.0,0.0,0.0,0.0,0.0,0.0,0.0,0.0,0.0,0.0,0.0,0.0,0.0,0.0,0.0,0.0,0.0,0.0,0.0,0.0,0.0,0.0,0.0,0.0,0.0,0.0,0.0,0.0,0.0,0.0,0.0,0.0,0.0,0.0,0.0,0.0,0.0,0.0,0.0,0.0,0.0,0.0,0.0,0.0,0.0,0.0,0.0,0.0,0.0,0.0,0.0,0.0,0.0,0.0,0.0,0.0,0.0,0.0,0.0,0.0,0.0,0.0,0.0,0.0,0.0,0.0,0.0,0.0,0.0,0.0,0.0,0.0,0.0,0.0,0.0,0.0,0.0,0.0,0.0,0.0,0.0,0.0,0.0,0.0,0.0,0.0,0.0,0.0,0.0,0.0,0.0,0.0,0.0,0.0,0.0,0.0,0.0,0.0,0.0,0.0,0.0,0.0,0.0,0.0,0.0,0.0,0.0,0.0,0.0,0.0,0.0,0.0,0.0,0.0,0.0,0.0,0.0,0.0,0.0,0.0,0.0,0.0,0.0,0.0,0.0,0.0,0.0,0.0,0.0,0.0,0.0,0.0,0.0,0.0,0.0,0.0,0.0,0.0,0.0,0.0,0.0,0.0,0.0,0.0,0.0,0.0,0.0,0.0,0.0,0.0,0.0,0.0,0.0,0.0,0.0,0.0,0.0,0.0,0.0,0.0,0.0,0.0,0.0,0.0,0.0,0.0,0.0,0.0,0.0,0.0,0.0,0.0,0.0,0.0,0.0,0.0,0.0,0.0,0.0,0.0,0.0,0.0,0.0,0.0,0.0,0.0,0.0,0.0,0.0,0.0,0.0,0.0,0.0,0.0,0.0,0.0,0.0,0.0,0.0,0.0,0.0,0.0,0.0,0.0,0.0,0.0,0.0,0.0,0.0,0.0,0.0,0.0,0.0,0.0,0.0,0.0,0.0,0.0,0.0,0.0,0.0,0.0,0.0,0.0,0.0,0.0,0.0,0.0,0.0,0.0,0.0,0.0,0.0,0.0,0.0,0.0,0.0,0.0,0.0,0.0,0.0,0.0,0.0,0.0,0.0,0.0,0.0,0.0,0.0,0.0,0.0,0.0,0.0,0.0,0.0,0.0,0.0,0.0,0.0,0.0,0.0,0.0,0.0,0.0,0.0,0.0,0.0,0.0,0.0,0.0,0.0,0.0,0.0,0.0,0.0,0.0,0.0,0.0,0.0,0.0,0.0,0.0,0.0,0.0,0.0,0.0,0.0,0.0,0.0,0.0,0.0,0.0,0.0,0.0,0.0,0.0,0.0,0.0,0.0,0.0,0.0,0.0,0.0,0.0,0.0,0.0,0.0,0.0,0.0,0.0,0.0,0.0,0.0,0.0,0.0,0.0,0.0,0.0,0.0,0.0,0.0,0.0,0.0,0.0,0.0,0.0,0.0,0.0,0.0,0.0,0.0,0.0,0.0,0.0,0.0,0.0,0.0,0.0,0.0,0.0,0.0,0.0,0.0,0.0,0.0,0.0,0.0,0.0,0.0,0.0,0.0,0.0,0.0,0.0,0.0,0.0,0.0,0.0,0.0,0.0,0.0,0.0,0.0,0.0,0.0,0.0,0.0,0.0,0.0,0.0,0.0,0.0,0.0,0.0,0.0,0.0,0.0,0.0,0.0,0.0,0.0,0.0,0.0,0.0,0.0,0.0,0.0,0.0,0.0,0.0,0.0,0.0,0.0,0.0,0.0,0.0,0.0,0.0,0.0,0.0,0.0,0.0,0.0,0.0,0.0,0.0,0.0,0.0,0.0,0.0,0.0,0.0,0.0,0.0,0.0,0.0,0.0,0.0,0.0,0.0,0.0,0.0,0.0,0.0,0.0,0.0,0.0,0.0,0.0,0.0,0.0,0.0,0.0,0.0,0.0,0.0,0.0,0.0,0.0,0.0,0.0,0.0,0.0,0.0,0.0,0.0,0.0,0.0,0.0,0.0,0.0,0.0,0.0,0.0,0.0,0.0,0.0,0.0,0.0,0.0,0.0,0.0,0.0,0.0,0.0,0.0,0.0,0.0,0.0,0.0,0.0,0.0,0.0,0.0,0.0,0.0,0.0,0.0,0.0,0.0,0.0,0.0,0.0,0.0,0.0,0.0,0.0,0.0,0.0,0.0,0.0,0.0,0.0,0.0,0.0,0.0,0.0,0.0,0.0,0.0,0.0,0.0,0.0,0.0,0.0,0.0,0.0,0.0,0.0,0.0,0.0,0.0,0.0,0.0,0.0,0.0,0.0,0.0,0.0,0.0,0.0,0.0,0.0,0.0,0.0,0.0,0.0,0.0,0.0,0.0,0.0,0.0,0.0,0.0,0.0,0.0,0.0,0.0,0.0,0.0,0.0,0.0,0.0,0.0,0.0,0.0,0.0,0.0,0.0,0.0,0.0,0.0,0.0,0.0,0.0,0.0,0.0,0.0,0.0,0.0,0.0,0.0,0.0,0.0,0.0,0.0,0.0,0.0,0.0,0.0,0.0,0.0,0.0,0.0,0.0,0.0,0.0,0.0,0.0,0.0,0.0,0.0,0.0,0.0,0.0,0.0,0.0,0.0,0.0,0.0,0.0,0.0,0.0,0.0,0.0,0.0,0.0,0.0,0.0,0.0,0.0,0.0,0.0,0.0,0.0,0.0,0.0,0.0,0.0,0.0,0.0,0.0,0.0,0.0,0.0,0.0,0.0,0.0,0.0,0.0,0.0,0.0,0.0,0.0,0.0,0.0,0.0,0.0,0.0,0.0,0.0,0.0,0.0,0.0,0.0,0.0,0.0,0.0,0.0,0.0,0.0,0.0,0.0,0.0,0.0,0.0,0.0,0.0,0.0,0.0,0.0,0.0,0.0,0.0,0.0,0.0,0.0,0.0,0.0,0.0,0.0,0.0,0.0,0.0,0.0,0.0,0.0,0.0,0.0,0.0,0.0,0.0,0.0,0.0,0.0,0.0,0.0,0.0,0.0,0.0,0.0,0.0,0.0,0.0,0.0,0.0,0.0,0.0,0.0,0.0,0.0,0.0,0.0,0.0,0.0,0.0,0.0,0.0,0.0,0.0,0.0,0.0,0.0,0.0,0.0,0.0,0.0,0.0,0.0,0.0,0.0,0.0,0.0,0.0,0.0,0.0,0.0,0.0,0.0,0.0,0.0,0.0,0.0,0.0,0.0,0.0,0.0,0.0,0.0,0.0,0.0,0.0,0.0,0.0,0.0,0.0,0.0,0.0,0.0,0.0,0.0,0.0,0.0,0.0,0.0,0.0,0.0,0.0,0.0,0.0,0.0,0.0,0.0,0.0,0.0,0.0,0.0,0.0,0.0,0.0,0.0,0.0,0.0,0.0,0.0,0.0,0.0,0.0,0.0,0.0,0.0,0.0,0.0,0.0,0.0,0.0,0.0,0.0,0.0,0.0,0.0,0.0,0.0,0.0,0.0,0.0,0.0,0.0,0.0,0.0,0.0,0.0,0.0,0.0,0.0,0.0,0.0,0.0,0.0,0.0,0.0,0.0,0.0,0.0,0.0,0.0,0.0,0.0,0.0,0.0,0.0,0.0,0.0,0.0,0.0,0.0,0.0,0.0,0.0,0.0,0.0,0.0,0.0,0.0,0.0,0.0,0.0,0.0,0.0,0.0,0.0,0.0,0.0,0.0,0.0,0.0,0.0,0.0,0.0,0.0,0.0,0.0,0.0,0.0,0.0,0.0,0.0,0.0,0.0,0.0,0.0,0.0,0.0,0.0,0.0,0.0,0.0,0.0,0.0,0.0,0.0,0.0,0.0,0.0,0.0,0.0,0.0,0.0,0.0,0.0,0.0,0.0,0.0,0.0,0.0,0.0,0.0,0.0,0.0,0.0,0.0,0.0,0.0,0.0,0.0,0.0,0.0,0.0,0.0,0.0,0.0,0.0,0.0,0.0,0.0,0.0,0.0,0.0,0.0,0.0,0.0,0.0,0.0,0.0,0.0,0.0,0.0,0.0,0.0,0.0,0.0,0.0,0.0,0.0,0.0,0.0,0.0,0.0,0.0,0.0,0.0,0.0,0.0,0.0,0.0,0.0,0.0,0.0,0.0,0.0,0.0,0.0,0.0,0.0,0.0,0.0,0.0,0.0,0.0,0.0,0.0,0.0,0.0,0.0,0.0,0.0,0.0,0.0,0.0,0.0,0.0,0.0,0.0,0.0,0.0,0.0,0.0,0.0,0.0,0.0,0.0,0.0,0.0,0.0,0.0,0.0,0.0,0.0,0.0,0.0,0.0,0.0,0.0,0.0,0.0,0.0,0.0,0.0,0.0,0.0,0.0,0.0,0.0,0.0,0.0,0.0,0.0,0.0,0.0,0.0,0.0,0.0,0.0,0.0,0.0,0.0,0.0,0.0,0.0,0.0,0.0,0.0,0.0,0.0,0.0,0.0,0.0,0.0,0.0,0.0,0.0,0.0,0.0,0.0,0.0,0.0,0.0,0.0,0.0,0.0,0.0,0.0,0.0,0.0,0.0,0.0,0.0,0.0,0.0,0.0,0.0,0.0,0.0,0.0,0.0,0.0,0.0,0.0,0.0,0.0,0.0,0.0,0.0,0.0,0.0,0.0,0.0,0.0,0.0,0.0,0.0,0.0,0.0,0.0,0.0,0.0,0.0,0.0,0.0,0.0,0.0,0.0,0.0,0.0,0.0,0.0,0.0,0.0,0.0,0.0,0.0,0.0,0.0,0.0,0.0,0.0,0.0,0.0,0.0,0.0,0.0,0.0,0.0,0.0,0.0,0.0,0.0,0.0,0.0,0.0,0.0,0.0,0.0,0.0,0.0,0.0,0.0,0.0,0.0,0.0,0.0,0.0,0.0,0.0,0.0,0.0,0.0,0.0,0.0,0.0,0.0,0.0,0.0,0.0,0.0,0.0,0.0,0.0,0.0,0.0,0.0,0.0,0.0,0.0,0.0,0.0,0.0,0.0,0.0,0.0,0.0,0.0,0.0,0.0,0.0,0.0,0.0,0.0,0.0,0.0,0.0,0.0,0.0,0.0,0.0,0.0,0.0,0.0,0.0,0.0,0.0,0.0,0.0,0.0,0.0,0.0,0.0,0.0,0.0,0.0,0.0,0.0,0.0,0.0,0.0,0.0,0.0,0.0,0.0,0.0,0.0,0.0,0.0,0.0,0.0,0.0,0.0,0.0,0.0,0.0,0.0,0.0,0.0,0.0,0.0,0.0,0.0,0.0,0.0,0.0,0.0,0.0,0.0,0.0,0.0,0.0,0.0,0.0,0.0,0.0,0.0,0.0,0.0,0.0,0.0,0.0,0.0,0.0,0.0,0.0,0.0,0.0,0.0,0.0,0.0,0.0,0.0,0.0,0.0,0.0,0.0,0.0,0.0,0.0,0.0,0.0,0.0,0.0,0.0,0.0,0.0,0.0,0.0,0.0,0.0,0.0,0.0,0.0,0.0,0.0,0.0,0.0,0.0,0.0,0.0,0.0,0.0,0.0,0.0,0.0,0.0,0.0,0.0,0.0,0.0,0.0,0.0,0.0,0.0,0.0,0.0,0.0,0.0,0.0,0.0,0.0,0.0,0.0,0.0,0.8085,0.0,0.0,0.0,0.0,0.0,0.0,0.0,0.0,0.0,0.0,0.0,0.0,0.0,0.0,0.0,0.0,0.0,0.0,0.0,0.0,0.0,0.0,0.0,0.0,0.0,0.0,0.0,0.0,0.0,0.0,0.0,0.0,0.0,0.0,0.0,0.0,0.0,0.0,0.0,0.0,0.0,0.0,0.0,0.0,0.0,0.0,0.0,0.0,0.0,0.0,0.0,0.0,0.0,0.0,0.0,0.0,0.0,0.0,0.0,0.0,0.0,0.0,0.0,0.0,0.0,0.0,0.0,0.0,0.0,0.0,0.0,0.0,0.0,0.0,0.0,0.0,0.0,0.0,0.0,0.0,0.0,0.0,0.0,0.0,0.0,0.0,0.0,0.0,0.0,0.0,0.0,0.0,0.0,0.0,0.0,0.0,0.0,0.0,0.0,0.0,0.0,0.0,0.0,0.0,0.0,0.0,0.0,0.0,0.0,0.0,0.0,0.0,0.0,0.0,0.0,0.0,0.8248,0.0,0.0,0.0,0.0,0.0,0.0,0.0,0.0,0.0,0.0,0.0,0.0,0.0,0.0,0.0,0.0,0.0,0.0,0.0,0.0,0.0,0.0,0.0,0.0,0.0,0.0,0.0,0.0,0.0,0.0,0.0,0.0,0.0,0.0,0.0,0.0,0.0,0.0,0.0,0.0,0.0,0.0,0.0,0.0,0.0,0.0,0.0,0.0,0.0,0.0,0.0,0.0,0.0,0.0,0.0,0.0,0.0,0.0,0.0,0.0,0.0,0.0,0.0,0.0,0.0,0.0,0.0,0.0,0.0,0.0,0.0,0.0,0.0,0.0,0.0,0.0,0.0,0.0,0.0,0.0,0.0,0.0,0.0,0.0,0.0,0.0,0.0,0.0,0.0,0.0,0.0,0.0,0.0,0.0,0.0,0.0,0.0,0.0,0.0,0.0,0.0,0.0,0.0,0.0,0.0,0.0,0.0,0.0,0.0,0.9418,0.9337,0.953,0.9507,0.9303,0.8821,0.8682,0.872,0.0,0.0,0.0,0.0,0.0,0.0,0.0,0.0,0.0,0.0,0.0,0.0,0.0,0.0,0.0,0.0,0.0,0.0,0.0,0.0,0.0,0.0,0.0,0.0,0.0,0.0,0.0,0.0,0.0,0.0,0.0,0.0,0.0,0.0,0.0,0.0,0.0,0.0,0.0,2.4194,2.4328,2.4,2.3142,2.1418,0.0,0.0,0.0,0.0,0.0,0.0,0.0,0.0,0.0,0.0,0.0,0.0,0.0,0.0,0.0,0.0,0.0,0.0,0.0,0.0,0.0,0.0,0.0,0.0,0.0,0.0,0.0,0.0,0.0,0.0,0.0,0.0,0.0,0.0,0.0,0.0,0.0,0.0,0.0,0.0,0.0,0.0,0.0,1.7066,1.6767,0.0,0.0,0.0,0.0,0.0,0.0,0.0,0.0,0.0,0.0,0.0,0.0,0.0,0.0,1.0147,1.0004,0.9867,0.9734,0.9886,0.988,0.9734,0.9774,0.9771,0.9717,0.9401,0.0,0.8848,0.879,0.0,0.0,0.0,0.0,0.0,0.0,0.0,0.0,0.0,0.0,0.0,0.0,0.0,0.0,0.0,0.0,0.0,0.0,0.0,0.0,0.0,0.0,0.0,0.0,0.0,0.0,0.0,0.0,0.0,0.0,0.0,0.0,0.0,0.0,0.0,0.0,2.7009,2.6847,2.6734,2.6352,2.6017,2.57,2.4378,2.2952,2.1515,2.0668,0.0,0.0,0.0,0.0,0.0,0.0,0.0,0.0,0.0,0.0,0.0,0.0,0.0,0.0,0.0,0.0,0.0,0.0,0.0,0.0,0.0,0.0,0.0,0.0,0.0,0.0,0.0,0.0,0.0,0.0,0.0,0.0,0.0,0.0,0.0,0.0,0.0,0.0,0.0,1.869,1.8526,1.7989,1.764,1.7092,0.0,0.0,0.0,0.0,0.0,0.0,0.0,0.0,0.0,1.2925,1.2596,1.2131,1.1607,1.1058,1.0627,1.0391,1.021,1.0097,0.9886,0.9886,0.99,0.9815,0.9683,0.9459,0.9174,0.8952,0.8682,0.8279,0.0,0.0,0.0,0.0,0.0,0.7598,0.0,0.0,0.0,0.0,0.0,0.0,0.0,0.0,0.0,0.0,0.0,0.0,0.0,0.0,0.0,3.0293,0.0,0.0,0.0,0.0,0.0,0.0,0.0,0.0,0.0,0.0,0.0,0.0,2.8634,2.8572,2.8779,2.8023,2.7632,2.7499,2.6805,2.5453,2.3644,2.2411,2.1342,0.0,0.0,0.0,0.0,0.0,0.0,0.0,0.0,0.0,0.0,0.0,0.0,0.0,0.0,0.0,0.0,0.0,0.0,0.0,0.0,0.0,0.0,0.0,0.0,0.0,0.0,0.0,0.0,0.0,0.0,0.0,0.0,0.0,0.0,0.0,0.0,0.0,0.0,1.9883,1.9698,1.914,1.8824,1.821,0.0,0.0,0.0,0.0,0.0,0.0,1.5845,1.5832,1.5619,1.5243,1.4585,1.3859,1.3146,1.2225,1.1535,1.0973,1.0615,1.0262,0.9987,0.9987,0.9903,0.9819,0.9781,0.9622,0.9364,0.9144,0.8849,0.853,0.8425,0.8289,0.0,0.8282,0.822,0.8078,0.0,0.0,0.0,0.0,0.0,0.0,0.0,0.0,0.0,0.0,0.0,0.0,0.0,0.0,3.0295,3.1931,3.1338,3.0967,0.0,0.0,0.0,0.0,0.0,0.0,0.0,0.0,0.0,3.0012,3.031,3.0164,2.9626,2.9197,2.8803,2.8422,2.8207,2.708,2.5326,2.4242,2.3023,2.1709,0.0,0.0,0.0,0.0,0.0,0.0,0.0,0.0,0.0,0.0,0.0,0.0,0.0,0.0,0.0,0.0,0.0,0.0,0.0,0.0,0.0,0.0,0.0,0.0,0.0,0.0,0.0,0.0,0.0,0.0,0.0,0.0,0.0,0.0,0.0,0.0,0.0,0.0,0.0,2.0155,1.9416,0.0,0.0,0.0,0.0,1.7587,1.7821,1.7886,1.7604,1.8012,1.784,1.6917,1.6582,1.5823,1.4513,1.3508,1.2552,1.158,1.1047,1.0514,0.9987,0.9987,0.9903,0.9815,0.968,0.953,0.9381,0.9364,0.91,0.8699,0.8693,0.8594,0.8462,0.8469,0.8472,0.8492,0.0,0.0,0.0,0.0,0.0,0.0,0.0,0.0,0.0,0.0,0.0,0.0,0.0,2.9834,3.1072,3.2592,3.2109,3.1516,3.1066,0.0,0.0,0.0,0.0,0.0,0.0,0.0,3.1771,3.2146,3.1752,3.1169,3.0456,2.9915,2.9289,2.8537,2.82,2.7775,2.7226,2.6086,2.4953,2.39,2.2719,2.1701,0.0,0.0,0.0,0.0,0.0,0.0,0.0,0.0,0.0,0.0,0.0,0.0,0.0,0.0,0.0,0.0,0.0,0.0,0.0,0.0,0.0,0.0,0.0,0.0,0.0,0.0,0.0,0.0,0.0,0.0,0.0,0.0,0.0,0.0,0.0,0.0,0.0,2.1739,2.0974,0.0,0.0,1.9018,1.8778,1.8778,1.905,1.914,1.907,1.9378,1.9231,1.8435,1.791,1.7006,1.5659,1.4411,1.328,1.2156,1.1346,1.062,1.0066,0.9825,0.9683,0.9537,0.9486,0.9374,0.9292,0.9292,0.9086,0.8804,0.8804,0.8825,0.8774,0.8774,0.8713,0.8635,0.0,0.0,0.0,0.0,0.0,0.0,0.0,0.0,0.0,0.0,0.0,2.7943,2.9286,3.042,3.1636,3.3007,3.2458,3.1887,3.1526,0.0,0.0,0.0,0.0,0.0,0.0,3.3053,3.3188,3.334,3.2667,3.1879,3.1033,3.0366,2.9741,2.9138,2.8674,2.8529,2.8525,2.7815,2.6905,2.5836,2.4702,2.3707,2.2792,0.0,0.0,0.0,0.0,0.0,0.0,0.0,0.0,0.0,0.0,0.0,0.0,0.0,0.0,0.0,0.0,0.0,0.0,0.0,0.0,0.0,0.0,0.0,0.0,0.0,0.0,0.0,0.0,0.0,0.0,0.0,0.0,0.0,0.0,0.0,2.3465,2.3058,2.227,2.1478,2.0655,2.0121,1.9818,1.9859,1.9987,2.014,2.0234,2.0337,2.0094,1.9523,1.8921,1.7942,1.6718,1.5407,1.4152,1.2913,1.1931,1.1086,1.041,1.0116,0.9941,0.9838,0.9554,0.9417,0.9317,0.9156,0.9025,0.8885,0.8885,0.8885,0.8875,0.8824,0.8798,0.8696,0.0,0.0,0.0,0.0,0.0,0.0,0.0,0.0,0.0,0.0,2.7375,2.8591,2.9268,3.0603,3.1945,3.3273,3.2518,3.2159,3.2642,3.1566,0.0,0.0,0.0,0.0,3.4241,3.4271,3.3999,3.3445,3.3025,3.2269,3.1298,3.0534,3.0194,3.0126,2.9621,2.9298,2.9138,2.9374,2.87,2.74,2.6799,2.5685,2.4309,0.0,0.0,0.0,0.0,0.0,0.0,0.0,0.0,0.0,0.0,0.0,0.0,0.0,0.0,0.0,0.0,0.0,0.0,0.0,0.0,0.0,0.0,0.0,0.0,0.0,0.0,0.0,0.0,0.0,0.0,0.0,0.0,0.0,2.5118,2.4836,2.4574,2.4204,2.3345,2.2356,2.1336,2.092,2.074,2.073,2.0688,2.0808,2.1082,2.0828,2.0544,2.0221,1.9566,1.8735,1.7743,1.6519,1.5188,1.3765,1.2854,1.1962,1.115,1.0866,1.069,1.0678,0.9937,0.9585,0.9574,0.9092,0.8868,0.8868,0.8878,0.8878,0.8858,0.8764,0.8706,0.8655,0.0,0.0,0.0,0.0,0.0,0.0,0.0,0.0,0.0,0.0,2.8029,2.9252,3.0,3.1365,3.2512,3.3328,3.3054,3.2651,3.2161,0.0,0.0,0.0,0.0,0.0,3.5772,3.5565,3.5232,3.4849,3.3348,3.2104,3.12,3.0387,2.9685,2.9174,2.9018,2.9085,2.9301,2.9407,2.9193,2.8786,2.8123,2.7416,2.6669,0.0,0.0,0.0,0.0,0.0,0.0,0.0,0.0,0.0,0.0,0.0,0.0,0.0,0.0,0.0,0.0,0.0,0.0,0.0,0.0,0.0,0.0,0.0,0.0,0.0,0.0,0.0,0.0,0.0,0.0,0.0,0.0,2.7305,2.7121,2.6921,2.6679,2.6217,2.492,2.3688,2.2657,2.1859,2.1277,2.0982,2.0989,2.0935,2.0802,2.0722,2.0481,1.9933,1.9528,1.8871,1.7944,1.692,1.5881,1.4782,1.3682,1.2803,1.2206,1.1473,1.0952,1.0659,0.9936,0.9483,0.9254,0.883,0.8608,0.8628,0.8797,0.8814,0.8767,0.8726,0.8574,0.8364,0.0,0.0,0.0,0.0,0.0,0.0,0.0,0.0,0.0,0.0,2.8639,2.9693,2.9831,3.1096,3.1919,3.1927,3.2066,3.1947,3.1424,0.0,0.0,0.0,0.0,3.633,3.6366,3.64,3.5789,3.4483,3.3293,3.2081,3.0893,3.0197,2.96,2.9145,2.9203,2.9346,2.9463,2.9785,2.9871,2.9807,2.9637,2.8973,2.8063,2.7513,2.6774,2.5983,2.5647,2.526,2.4898,2.4976,0.0,0.0,0.0,0.0,0.0,0.0,0.0,0.0,0.0,0.0,0.0,0.0,0.0,0.0,0.0,0.0,0.0,0.0,0.0,0.0,0.0,0.0,0.0,0.0,2.7471,2.8345,2.8775,2.8559,2.8101,2.7434,2.6213,2.4879,2.3479,2.255,2.1741,2.0998,2.0929,2.0802,2.0508,2.0374,2.0154,1.9813,1.9377,1.8848,1.8173,1.737,1.6553,1.5624,1.4831,1.4145,1.3641,1.2731,1.2087,0.0,1.0596,0.9887,0.9352,0.8892,0.8591,0.0,0.0,0.0,0.0,0.0,0.8377,0.816,0.0,0.0,0.0,0.0,0.0,0.0,0.0,0.0,0.0,0.0,0.0,2.9885,2.9234,3.0315,3.0786,3.0036,3.0434,3.0751,0.0,0.0,0.0,3.4242,3.6028,3.6835,3.6463,3.6777,3.576,3.3361,3.2982,3.2008,3.0514,3.0022,2.9735,2.9626,2.9878,2.9852,2.9697,3.0387,3.0619,3.0538,3.1116,3.0396,2.8988,2.9135,2.8587,2.7668,2.7394,2.7093,2.6809,2.6913,0.0,0.0,0.0,0.0,0.0,0.0,0.0,0.0,0.0,0.0,0.0,0.0,0.0,0.0,0.0,0.0,0.0,0.0,0.0,0.0,0.0,0.0,0.0,0.0,2.8545,2.9346,3.0156,2.9786,2.91,2.8203,2.7134,2.5777,2.3801,2.2941,2.2018,2.0772,2.069,2.0494,2.0201,0.0,0.0,0.0,0.0,1.8715,1.8353,1.777,1.7115,1.6399,1.5976,1.5569,1.5068,1.4253,1.3567,1.2973,1.1553,1.0487,0.9711,0.9179,0.8751,0.8487,0.8504,0.8459,0.8442,0.8296,0.8157,0.0,0.0,0.0,0.0,0.0,0.0,0.0,0.0,0.0,0.0,2.8049,2.904,2.9657,2.9534,3.0313,3.0772,3.0573,3.0654,3.1153,0.0,0.0,3.4735,3.5872,3.6626,3.7108,3.7336,3.6082,3.507,3.4317,3.2461,3.1262,3.0733,3.011,2.9785,2.9779,3.0299,3.0548,3.0576,3.1099,3.1146,3.0981,3.1824,3.1579,3.0713,3.0592,3.0413,3.0109,2.9416,2.9122,2.9042,2.9015,2.8915,2.8784,2.8881,0.0,0.0,0.0,0.0,0.0,0.0,0.0,0.0,0.0,0.0,0.0,0.0,0.0,0.0,0.0,0.0,0.0,0.0,0.0,0.0,2.9421,2.9797,3.0137,3.0684,3.0324,2.9661,2.8753,2.7396,2.5846,2.4083,2.2691,2.1523,2.0746,2.0436,2.0187,1.99,1.9826,0.0,1.9112,1.8985,1.8635,1.8053,1.7768,1.7376,1.7038,0.0,0.0,1.567,1.4619,1.3826,1.3245,1.1948,1.095,1.0128,0.9439,0.8879,0.8435,0.8364,0.8364,0.8292,0.814,0.8015,0.7988,0.0,0.0,0.0,0.0,0.0,0.0,0.0,0.0,0.0,0.0,2.9156,2.9605,2.9241,2.9885,3.0184,2.9746,3.0391,0.0,0.0,3.4372,3.5276,3.6248,3.7037,3.7123,3.6406,3.5774,3.474,3.3255,3.21,3.1237,3.0637,3.0239,3.0194,3.0471,3.1046,3.1373,3.1526,3.2032,3.2244,3.2266,3.2899,3.3027,3.2791,3.2299,3.1859,3.1455,3.1033,3.0733,3.0522,3.0936,3.0987,3.0845,3.1104,3.1122,3.0879,0.0,0.0,0.0,0.0,0.0,0.0,0.0,0.0,0.0,0.0,0.0,0.0,0.0,0.0,3.0323,0.0,0.0,3.0071,3.0499,3.0475,3.0464,3.0565,3.0342,2.9852,2.8883,2.7696,2.6213,2.44,2.3085,2.1955,2.0791,2.0426,2.0065,1.9599,1.9446,1.9225,1.8931,1.8582,1.8288,1.7995,1.7583,1.7312,1.7212,1.6613,1.6324,1.626,1.5413,1.4678,1.4014,1.2968,1.1831,1.0644,0.9508,0.8779,0.8389,0.8223,0.8153,0.8147,0.8019,0.7988,0.7978,0.0,0.0,0.0,0.0,0.0,0.0,0.0,0.0,0.0,0.0,0.0,2.9471,2.8895,2.9368,2.9526,0.0,0.0,0.0,0.0,3.5231,3.5911,3.6524,3.7235,3.6916,3.5376,3.5352,3.4324,3.2117,3.2096,3.1707,3.0953,3.0967,3.1184,3.1577,3.2073,3.2458,3.2771,3.3224,3.3641,3.3985,3.4263,3.4577,3.4737,3.4128,3.3346,3.2547,3.2403,3.2028,3.1713,3.2434,3.2633,3.2632,3.2838,3.2867,3.2605,3.1345,3.0871,0.0,0.0,0.0,0.0,0.0,0.0,0.0,0.0,0.0,3.3292,3.2939,3.303,3.3047,3.2581,3.2014,3.1598,3.1498,3.1071,3.068,3.0319,3.0115,2.9668,2.8822,2.7886,2.6558,2.4705,2.3591,2.2369,2.089,2.0406,1.9958,1.9437,1.9085,1.8898,1.8838,1.8268,1.7935,1.7876,1.744,1.7172,1.7112,1.676,1.662,1.6613,1.6068,1.5443,1.4747,1.3796,1.2646,1.134,0.9813,0.9023,0.873,0.8386,0.8219,0.8192,0.7994,0.7944,0.7924,0.0,0.0,0.0,0.0,0.0,0.0,0.0,0.0,0.0,0.0,0.0,0.0,0.0,0.0,0.0,0.0,0.0,0.0,3.4724,3.6121,3.7178,3.7769,3.7076,3.6398,3.5833,3.4363,3.3354,3.2867,3.281,3.2698,3.2569,3.3137,3.3315,3.3157,3.3595,3.4094,3.46,3.4859,3.534,3.598,3.6077,3.6048,3.5939,3.6029,3.5255,3.4085,3.3555,3.3206,3.3036,3.2921,3.3255,3.373,3.39,3.3805,3.3525,3.2697,0.0,3.0969,3.0266,3.064,3.1336,3.1859,3.2837,3.3928,0.0,0.0,3.5397,3.6131,3.5746,3.5286,3.5405,3.4372,3.3353,3.2962,3.1876,3.0954,3.069,2.9728,2.8898,2.8586,2.7744,2.6669,2.5266,2.3545,2.2169,2.1233,2.0319,1.9741,1.943,1.9085,1.8804,1.8551,1.8169,1.7789,1.7306,1.7233,1.7065,1.6747,1.646,1.6319,1.6313,1.5772,1.536,1.4977,1.3721,1.2791,1.2175,1.1047,1.0408,1.0113,0.9381,0.8992,0.8806,0.808,0.7838,0.7818,0.0,0.0,0.0,0.0,0.0,0.0,0.0,0.0,0.0,0.0,0.0,0.0,0.0,0.0,0.0,0.0,0.0,0.0,3.5567,3.7092,3.8004,3.8218,3.8177,3.7558,3.6328,3.5066,3.427,3.3996,3.3487,3.3394,3.375,3.451,3.4941,3.5107,3.5662,3.618,3.6649,3.658,3.6851,3.7344,3.7275,3.7318,3.738,3.7393,3.6768,3.5723,3.4828,3.4008,0.0,0.0,3.399,3.3916,3.4719,3.4758,3.4342,3.3477,3.2608,0.0,3.056,3.0913,3.17,0.0,3.3393,3.4663,3.5768,3.6521,3.7102,3.7618,3.7587,3.7327,3.6973,3.5975,3.4846,0.0,3.2517,3.1304,3.0399,2.9482,2.8774,2.8431,2.7895,2.7112,2.5852,2.4373,2.3087,2.2013,2.0945,2.0078,1.9455,1.8944,1.8537,1.8243,1.7769,1.7402,1.7206,1.6857,1.6623,1.6446,1.6159,1.6012,1.6012,1.579,1.5547,1.5261,1.4094,1.3372,1.2942,1.1775,1.1096,1.0792,0.9847,0.9373,0.9064,0.8301,0.7952,0.7804,0.0,0.0,0.0,0.0,0.0,0.0,0.0,0.0,0.0,0.0,0.0,0.0,0.0,0.0,0.0,0.0,0.0,0.0,0.0,3.7363,3.829,3.8412,3.8645,3.8136,3.6763,3.5835,3.5255,3.4995,3.4801,3.4924,3.5378,3.6325,3.6983,3.7306,3.7671,3.8124,3.8493,3.818,3.8328,3.8747,3.8515,3.8513,3.8662,3.8383,3.7742,3.6789,3.5608,3.4557,0.0,0.0,3.407,3.3833,3.4695,3.4697,3.4253,3.3459,3.2595,3.1728,3.0994,3.1264,0.0,3.2773,3.384,3.5052,3.6355,3.7211,3.789,3.8229,3.8372,3.8295,3.7605,3.6685,3.5637,3.4461,3.2931,3.1536,3.0409,2.9475,2.876,2.834,2.813,2.7638,2.6663,2.5331,2.4039,2.2862,2.1623,2.0523,1.9554,1.8923,1.8405,1.8002,1.7462,1.7159,1.7079,1.6576,1.6233,1.6146,1.5932,1.5784,1.5784,1.5784,1.5737,1.554,1.4723,1.4196,1.3854,1.2726,1.2073,1.1709,1.0725,1.009,0.9669,0.8827,0.8237,0.7787,0.0,0.0,0.0,0.0,0.0,0.0,0.0,0.0,0.0,0.0,0.0,0.0,0.0,0.0,0.0,0.0,0.0,0.0,0.0,3.6597,3.7814,3.8473,3.783,3.7351,3.7089,3.6229,3.5734,3.567,3.7085,3.7772,3.7826,3.9153,3.9792,3.9771,3.9391,3.9578,4.0106,3.9652,3.9812,4.0385,3.9876,3.9661,3.9582,3.8996,3.8089,3.6946,3.5671,0.0,0.0,0.0,3.3156,3.3587,3.3419,3.3135,0.0,3.2446,3.1555,3.0834,3.1546,0.0,3.2322,3.3766,3.442,3.5152,3.6784,3.7186,3.7362,3.7914,3.7817,3.7543,3.728,3.6282,3.5393,3.5054,3.3161,3.1514,3.1021,2.9749,2.876,2.834,2.8291,2.8184,0.0,2.6209,2.4659,2.3472,2.224,2.1028,1.9822,1.9244,1.8618,1.8002,1.7462,1.7065,1.672,1.642,1.6126,1.5798,1.5784,1.5784,1.5784,1.5784,1.5784,1.5784,1.554,1.5309,1.501,1.4168,1.3678,1.3321,1.2227,1.1444,1.0756,0.9818,0.8733,0.7668,0.0,0.0,0.0,0.0,0.0,0.0,0.0,0.0,0.0,0.0,0.0,0.0,0.0,0.0,0.0,0.0,0.0,0.0,0.0,3.678,3.8175,3.7851,3.8621,3.874,3.8047,3.7265,3.7041,3.7424,3.7916,3.839,3.8865,4.0384,4.1067,4.1046,4.1258,4.1431,4.1477,4.0993,4.0851,4.0931,4.0444,4.0121,3.9918,3.9441,3.8471,3.7209,0.0,0.0,0.0,3.3425,3.3151,3.2939,3.3323,3.3267,3.3022,3.272,3.2333,3.2087,3.2495,0.0,3.2839,3.383,3.4214,3.478,3.6304,3.6681,3.6845,3.7349,3.7414,3.7119,3.6527,3.6099,3.5464,3.4452,3.3088,3.1785,3.0604,2.9483,2.8672,2.8364,2.8291,0.0,0.0,0.0,0.0,2.4659,2.3311,2.2002,2.0743,1.9897,1.9132,1.8265,1.7534,1.6977,1.6679,1.6222,1.5925,1.5784,1.5784,1.5784,1.5784,1.5784,1.5678,1.5545,1.5252,1.5007,1.474,1.4095,1.3784,1.3616,1.2631,1.1886,1.1279,1.0019,0.9018,0.8194,0.0,0.0,0.0,0.0,0.0,0.0,0.0,0.0,0.0,0.0,0.0,0.0,0.0,0.0,0.0,0.0,0.0,0.0,0.0,0.0,3.7294,3.7088,3.8337,3.8765,3.8154,3.7967,3.8052,3.8437,3.9019,3.9531,3.9974,4.1559,4.2287,4.2268,4.2532,4.2536,4.2358,4.1881,4.1552,4.13,4.0813,4.0468,4.0213,3.9798,3.8861,0.0,0.0,0.0,0.0,3.3344,3.2914,3.2631,3.3096,3.3153,3.3124,3.3111,3.3121,3.3204,3.3638,3.3668,3.3728,3.441,3.4474,3.4622,3.5676,3.5873,3.5868,3.6232,3.6144,3.5922,3.5584,3.5166,3.4667,3.4117,3.2931,3.1758,3.0833,2.985,2.9085,2.8804,2.875,2.8637,0.0,0.0,0.0,2.5624,2.431,2.2978,2.1658,2.0581,1.9535,1.8564,1.7568,1.6959,1.6676,1.6081,1.5784,1.5784,1.5784,1.5784,1.5778,1.5718,1.5571,1.5391,1.514,1.4897,1.4719,1.4263,1.4046,1.3957,1.3057,1.2388,1.1764,1.0606,0.9593,0.8724,0.0,0.0,0.0,0.0,0.0,0.0,0.0,0.0,0.0,0.0,0.0,0.0,0.0,0.0,0.0,0.0,0.0,0.0,0.0,0.0,0.0,3.6193,3.7015,3.7437,3.7437,3.8193,3.8597,3.8634,4.0196,4.1003,4.1058,4.2586,4.3284,4.3266,4.3069,4.2829,4.2566,4.2233,4.186,4.1437,4.0909,4.059,4.0392,3.9986,0.0,0.0,0.0,0.0,0.0,0.0,3.2511,3.2749,3.278,3.2945,3.3227,3.3698,3.3912,3.4211,3.4981,3.5034,3.4993,3.5451,3.5106,3.4656,3.494,3.483,3.4625,3.46,3.4173,3.396,0.0,0.0,3.3107,3.4041,3.2648,3.1508,3.1641,3.0695,2.9885,0.0,0.0,0.0,0.0,0.0,0.0,2.6318,0.0,2.4033,2.2609,2.1214,2.0005,1.8926,1.7696,1.694,1.6704,1.6116,1.5784,1.5784,1.5784,1.5771,1.5751,1.5524,1.5384,1.5337,1.5057,1.4981,1.4941,1.4616,1.4489,1.4379,1.3612,1.2883,1.2223,1.1508,1.0415,0.9187,0.0,0.0,0.0,0.0,0.0,0.0,0.0,0.0,0.0,0.0,0.0,0.0,0.0,0.0,0.0,0.0,0.0,0.0,0.0,0.0,0.0,0.0,0.0,0.0,0.0,0.0,0.0,0.0,3.8817,3.9625,4.023,4.1207,4.1669,4.1601,4.1463,4.1269,4.1035,4.0641,4.0266,3.9895,0.0,3.937,3.9641,0.0,0.0,0.0,0.0,0.0,0.0,0.0,0.0,0.0,3.3937,3.4332,3.4777,3.5396,3.5727,3.6002,3.6343,3.6099,3.5668,3.5507,3.4954,3.4322,3.3934,3.3669,3.337,3.2943,3.2742,3.2554,0.0,0.0,0.0,3.2531,3.2289,0.0,3.1264,3.0596,0.0,2.9643,0.0,2.9043,2.8926,2.8588,0.0,0.0,2.6267,2.5174,2.4307,2.2766,2.1353,2.0248,1.8837,1.7746,1.6911,1.6204,1.5784,1.5784,1.5784,1.5718,1.5504,1.5431,1.5157,1.4736,1.4669,1.4509,1.4309,1.4229,1.4068,1.3813,1.3454,1.2939,1.2348,1.167,1.0827,0.9872,0.0,0.0,0.0,0.0,0.0,0.0,0.0,0.0,0.0,0.0,0.0,0.0,0.0,0.0,0.0,0.0,0.0,0.0,0.0,0.0,0.0,0.0,0.0,0.0,0.0,0.0,0.0,0.0,0.0,0.0,0.0,4.0029,4.0531,4.0485,4.0696,4.0633,4.0348,4.0032,0.0,0.0,0.0,0.0,0.0,0.0,0.0,0.0,0.0,0.0,0.0,0.0,0.0,3.4846,3.5557,3.5962,3.6235,3.6641,0.0,3.7246,3.7288,3.6788,3.6159,3.5643,3.4674,3.3639,3.3091,3.2675,3.2252,3.1913,3.1675,0.0,3.1399,0.0,0.0,0.0,0.0,0.0,3.1572,3.1112,3.057,0.0,2.9629,0.0,2.8955,2.8711,2.8364,0.0,2.6812,2.594,2.5353,2.3527,2.2077,2.1069,1.936,1.7933,1.6831,1.64,1.6163,1.6163,1.6021,1.5826,1.5582,1.531,1.4957,1.4466,0.0,1.4162,1.3895,1.3895,1.3721,1.34,1.318,1.2837,1.2414,1.1797,1.11,1.046,0.0,0.0,0.0,0.0,0.0,0.0,0.0,0.0,0.0,0.0,0.0,0.0,0.0,0.0,0.0,0.0,0.0,0.0,0.0,0.0,0.0,0.0,0.0,0.0,0.0,0.0,0.0,0.0,0.0,0.0,0.0,0.0,0.0,0.0,0.0,0.0,0.0,0.0,0.0,0.0,0.0,0.0,0.0,0.0,0.0,0.0,0.0,0.0,0.0,0.0,3.6799,3.633,3.7252,3.7539,3.7554,3.7644,3.7953,3.8207,3.7925,3.7332,3.6579,3.5811,3.431,3.2883,3.2305,3.1669,3.1148,3.1072,0.0,3.0557,3.1085,3.1085,3.1272,3.1973,0.0,3.2144,3.1955,3.1698,3.1192,3.0231,3.0107,2.9795,2.8994,2.8818,2.8447,2.7777,2.6943,2.6267,2.5797,2.3895,2.2351,2.1385,1.9487,1.7924,1.6864,1.6723,1.6676,1.6676,1.6365,1.6099,1.5757,1.5262,1.4831,1.4486,0.0,0.0,1.36,1.356,1.3373,1.312,1.2891,1.2629,1.2365,1.184,1.1355,1.0899,0.0,0.0,0.0,0.0,0.0,0.0,0.0,0.0,0.0,0.0,0.0,0.0,0.0,0.0,0.0,0.0,0.0,0.0,0.0,0.0,0.0,0.0,0.0,0.0,0.0,0.0,0.0,0.0,0.0,0.0,0.0,0.0,0.0,0.0,0.0,0.0,0.0,0.0,0.0,0.0,0.0,0.0,0.0,0.0,0.0,0.0,0.0,0.0,0.0,0.0,3.7719,3.7679,3.8092,3.8227,3.8332,3.8901,3.9119,3.9017,3.8237,3.7622,3.6872,3.554,3.4203,3.2854,3.1355,3.0509,0.0,0.0,2.9251,2.9402,2.9967,3.0405,3.0769,3.1007,0.0,0.0,0.0,0.0,3.0968,0.0,0.0,0.0,0.0,0.0,0.0,0.0,0.0,0.0,2.5702,2.4507,2.2899,2.08,1.9458,1.8519,1.811,1.7466,1.7185,1.7185,1.67,1.6193,1.5697,1.5339,1.4897,1.4418,0.0,0.0,1.3586,1.3347,1.3106,1.2857,1.2804,1.2489,1.1981,1.1904,1.139,1.0734,0.0,0.0,0.0,0.0,0.0,0.0,0.0,0.0,0.0,0.0,0.0,0.0,0.0,0.0,0.0,0.0,0.0,0.0,0.0,0.0,0.0,0.0,0.0,0.0,0.0,0.0,0.0,0.0,0.0,0.0,0.0,0.0,0.0,0.0,0.0,0.0,0.0,0.0,0.0,0.0,0.0,0.0,0.0,0.0,0.0,0.0,0.0,0.0,0.0,0.0,3.7748,3.8424,3.8792,3.8931,3.899,3.9334,3.9388,3.9239,3.848,3.7609,3.6627,3.526,3.3795,3.2268,3.0736,0.0,0.0,0.0,2.8888,2.9063,2.9691,3.0244,0.0,3.0549,0.0,0.0,0.0,0.0,0.0,0.0,0.0,0.0,0.0,0.0,0.0,0.0,0.0,0.0,2.5693,2.422,2.2565,2.0871,1.9994,1.9401,1.898,1.8611,1.8295,1.7979,1.7462,1.6855,1.6154,1.5612,1.5077,1.4552,0.0,0.0,1.3353,1.3093,1.2831,1.2536,1.2382,1.2154,1.1866,1.1558,1.1202,1.0837,0.0,0.0,0.0,0.0,0.0,0.0,0.0,0.0,0.0,0.0,0.0,0.0,0.0,0.0,0.0,0.0,0.0,0.0,0.0,0.0,0.0,0.0,0.0,0.0,0.0,0.0,0.0,0.0,0.0,0.0,0.0,0.0,0.0,0.0,0.0,0.0,0.0,0.0,0.0,0.0,0.0,0.0,0.0,0.0,0.0,0.0,0.0,0.0,0.0,0.0,3.7444,3.8512,3.8861,3.9185,3.9388,3.9388,3.9388,3.923,3.8407,3.741,3.6295,3.4965,3.3372,3.1721,3.0313,2.9501,0.0,0.0,2.8712,2.8963,2.9666,3.0143,3.0368,0.0,3.0688,0.0,0.0,0.0,0.0,0.0,0.0,0.0,0.0,0.0,0.0,0.0,0.0,0.0,0.0,2.366,2.2278,2.132,2.0826,2.0411,1.9994,1.9728,1.9364,1.8896,1.8253,1.7545,1.6773,1.6074,1.5437,1.4788,0.0,0.0,0.0,1.2817,1.2516,1.2184,1.1993,1.1826,1.1658,1.1162,1.0955,1.0868,0.0,0.0,0.0,0.0,0.0,0.0,0.0,0.0,0.0,0.0,0.0,0.0,0.0,0.0,0.0,0.0,0.0,0.0,0.0,0.0,0.0,0.0,0.0,0.0,0.0,0.0,0.0,0.0,0.0,0.0,0.0,0.0,0.0,0.0,0.0,0.0,0.0,0.0,0.0,0.0,0.0,0.0,0.0,0.0,0.0,0.0,0.0,0.0,0.0,0.0,0.0,3.7509,3.7569,3.8437,3.9388,3.9388,0.0,0.0,3.7853,3.707,3.6228,3.4577,3.3108,3.1685,3.0011,0.0,0.0,2.8221,2.8185,2.8511,2.9591,2.9829,2.9808,0.0,0.0,2.9634,0.0,0.0,0.0,0.0,0.0,0.0,0.0,0.0,0.0,0.0,0.0,0.0,0.0,2.322,2.2612,2.2255,2.1802,2.1526,2.1508,2.0474,1.992,1.9851,1.8709,1.7894,1.7399,1.6838,1.6098,1.5197,0.0,0.0,0.0,1.254,1.2171,1.194,1.1913,1.1578,1.1069,1.1009,1.0861,1.0626,0.0,0.0,0.0,0.0,0.0,0.0,0.0,0.0,0.0,0.0,0.0,0.0,0.0,0.0,0.0,0.0,0.0,0.0,0.0,0.0,0.0,0.0,0.0,0.0,0.0,0.0,0.0,0.0,0.0,0.0,0.0,0.0,0.0,0.0,0.0,0.0,0.0,0.0,0.0,0.0,0.0,0.0,0.0,0.0,0.0,0.0,0.0,0.0,0.0,0.0,0.0,0.0,3.6851,3.7479,0.0,0.0,3.8512,3.8093,3.7554,3.6813,3.5834,3.4437,3.2981,3.1518,2.9957,0.0,2.8089,2.8107,2.8109,2.8448,2.9578,2.9792,2.9738,0.0,0.0,0.0,0.0,0.0,0.0,0.0,0.0,0.0,0.0,0.0,0.0,0.0,0.0,0.0,0.0,2.3022,2.275,2.2618,2.2299,2.2001,2.1767,2.1296,2.075,2.0123,1.9508,1.8749,1.7823,1.7223,1.6404,1.542,0.0,0.0,0.0,1.2293,1.1949,1.1763,1.1683,1.143,1.11,1.0957,1.075,1.0593,0.0,0.0,0.0,0.0,0.0,0.0,0.0,0.0,0.0,0.0,0.0,0.0,0.0,0.0,0.0,0.0,0.0,0.0,0.0,0.0,0.0,0.0,0.0,0.0,0.0,0.0,0.0,0.0,0.0,0.0,0.0,0.0,0.0,0.0,0.0,0.0,0.0,0.0,0.0,0.0,0.0,0.0,0.0,0.0,0.0,0.0,0.0,0.0,0.0,0.0,0.0,0.0,0.0,0.0,0.0,0.0,3.7744,3.7306,3.7112,3.6418,3.5458,3.4277,3.2881,3.1357,0.0,0.0,2.8145,2.8094,2.8235,2.8649,2.9616,2.9792,2.9702,0.0,0.0,2.9229,0.0,0.0,0.0,0.0,0.0,0.0,0.0,0.0,0.0,0.0,0.0,0.0,0.0,2.2785,2.2698,2.2698,2.2409,2.2112,2.1826,2.165,2.1087,2.0217,1.9885,1.9182,1.8141,1.7539,1.6699,0.0,0.0,0.0,0.0,1.2289,1.1947,1.1781,1.1697,1.1491,1.1224,1.1009,1.0808,1.0584,0.0,0.0,0.0,0.0,0.0,0.0,0.0,0.0,0.0,0.0,0.0,0.0,0.0,0.0,0.0,0.0,0.0,0.0,0.0,0.0,0.0,0.0,0.0,0.0,0.0,0.0,0.0,0.0,0.0,0.0,0.0,0.0,0.0,0.0,0.0,0.0,0.0,0.0,0.0,0.0,0.0,0.0,0.0,0.0,0.0,0.0,0.0,0.0,0.0,0.0,0.0,0.0,0.0,0.0,0.0,0.0,3.7331,3.706,3.6372,3.582,3.5143,3.4066,3.2702,3.1245,0.0,2.9129,2.8582,2.8182,2.8499,2.9063,2.9691,2.9792,2.9702,2.9419,0.0,0.0,0.0,0.0,0.0,0.0,0.0,0.0,0.0,0.0,0.0,0.0,0.0,0.0,0.0,0.0,2.2519,2.2519,2.2119,2.1894,2.1894,2.1242,2.0688,2.0303,1.9621,1.8958,1.8276,1.7868,0.0,0.0,0.0,0.0,0.0,1.2545,1.2254,1.2003,1.2003,1.171,1.131,1.131,1.1017,1.0597,0.0,0.0,0.0,0.0,0.0,0.0,0.0,0.0,0.0,0.0,0.0,0.0,0.0,0.0,0.0,0.0,0.0,0.0,0.0,0.0,0.0,0.0,0.0,0.0,0.0,0.0,0.0,0.0,0.0,0.0,0.0,0.0,0.0,0.0,0.0,0.0,0.0,0.0,0.0,0.0,0.0,0.0,0.0,0.0,0.0,0.0,0.0,0.0,0.0,0.0,0.0,0.0,0.0,0.0,0.0,3.5703,3.587,0.0,3.5984,3.518,3.4172,3.3591,3.2213,3.0802,3.0102,2.9212,2.8515,2.8636,2.8762,2.9063,2.9691,2.9792,2.9792,2.9702,2.9482,0.0,0.0,0.0,0.0,0.0,0.0,0.0,0.0,0.0,0.0,0.0,0.0,0.0,0.0,0.0,2.1455,2.206,2.1953,2.1748,2.1405,2.0956,2.0469,2.0003,1.9548,1.8812,1.79,1.7619,0.0,0.0,0.0,0.0,0.0,1.2609,1.2219,1.192,1.1786,1.1521,1.1225,1.1144,1.0872,1.0523,0.0,0.0,0.0,0.0,0.0,0.0,0.0,0.0,0.0,0.0,0.0,0.0,0.0,0.0,0.0,0.0,0.0,0.0,0.0,0.0,0.0,0.0,0.0,0.0,0.0,0.0,0.0,0.0,0.0,0.0,0.0,0.0,0.0,0.0,0.0,0.0,0.0,0.0,0.0,0.0,0.0,0.0,2.9435,0.0,0.0,0.0,0.0,0.0,0.0,0.0,0.0,0.0,0.0,0.0,0.0,0.0,3.5049,3.5071,0.0,3.4387,3.3311,3.2938,3.1631,0.0,2.9975,2.9277,2.8746,2.8863,2.9063,2.9365,2.9729,2.9792,2.9792,2.9792,2.965,0.0,0.0,0.0,0.0,0.0,0.0,0.0,0.0,0.0,0.0,0.0,0.0,0.0,0.0,0.0,2.0713,2.0898,2.0908,2.0771,2.0508,2.0225,1.9785,1.9189,1.8936,1.828,1.7311,0.0,0.0,0.0,0.0,0.0,0.0,1.2776,1.238,1.2184,1.1998,1.1812,1.1595,1.1462,1.1151,1.0811,0.0,0.0,0.0,0.0,0.0,0.0,0.0,0.0,0.0,0.0,0.0,0.0,0.0,0.0,0.0,0.0,0.0,0.0,0.0,0.0,0.0,0.0,0.0,0.0,0.0,0.0,0.0,3.0316,3.0571,3.0675,3.0675,0.0,0.0,0.0,0.0,0.0,0.0,0.0,0.0,0.0,0.0,0.0,0.0,0.0,0.0,0.0,0.0,0.0,0.0,0.0,0.0,0.0,0.0,0.0,0.0,0.0,0.0,0.0,0.0,3.3563,3.2596,0.0,0.0,0.0,2.9622,2.9375,0.0,2.8988,2.9415,2.9792,2.9792,2.9792,2.9792,2.9792,2.9792,0.0,0.0,0.0,0.0,0.0,0.0,0.0,0.0,0.0,0.0,0.0,0.0,0.0,0.0,0.0,0.0,1.9219,1.917,1.918,1.9238,1.9209,1.8779,1.7969,1.793,1.7457,1.6648,0.0,0.0,0.0,0.0,0.0,0.0,1.2965,1.2714,1.2686,1.2551,1.2395,1.2274,1.2136,1.1772,1.1339,0.0,0.0,0.0,0.0,0.0,0.0,0.0,0.0,0.0,0.0,0.0,0.0,0.0,0.0,0.0,0.0,0.0,0.0,0.0,0.0,0.0,0.0,0.0,0.0,0.0,0.0,0.0,2.8422,2.8519,2.857,2.8666,2.8666,0.0,0.0,0.0,0.0,0.0,0.0,0.0,0.0,0.0,0.0,0.0,0.0,0.0,0.0,2.9233,2.9806,0.0,0.0,0.0,0.0,0.0,0.0,0.0,0.0,3.438,3.423,3.4167,0.0,3.2561,3.1873,3.1005,3.0277,0.0,2.9808,2.9668,2.9591,2.9691,2.9792,2.9792,2.9792,2.9792,2.9792,2.9792,2.9752,0.0,0.0,0.0,0.0,0.0,0.0,0.0,0.0,0.0,0.0,0.0,0.0,0.0,0.0,0.0,1.833,1.7998,1.8144,1.8754,1.8467,1.8047,1.7529,1.7197,1.6748,1.6242,0.0,0.0,0.0,0.0,0.0,0.0,1.3134,1.2915,1.2765,1.2454,1.2284,1.2131,1.2004,1.1789,1.1608,0.0,0.0,0.0,0.0,0.0,0.0,0.0,0.0,0.0,0.0,0.0,0.0,0.0,0.0,0.0,0.0,0.0,0.0,0.0,0.0,0.0,0.0,0.0,0.0,0.0,0.0,0.0,0.0,0.0,2.751,0.0,0.0,0.0,0.0,0.0,0.0,2.7556,0.0,0.0,0.0,2.7066,0.0,0.0,0.0,0.0,0.0,2.8274,2.876,0.0,3.003,3.0722,3.1238,0.0,0.0,0.0,0.0,3.438,3.4346,3.4249,3.343,3.2417,3.1776,3.1048,3.0457,3.0152,3.0011,2.9895,2.983,0.0,0.0,2.9792,2.9792,2.9792,2.9792,2.9792,0.0,0.0,0.0,0.0,0.0,0.0,0.0,0.0,0.0,0.0,0.0,0.0,0.0,0.0,0.0,0.0,0.0,1.7305,1.7305,1.772,1.7506,1.7207,1.6809,1.6338,1.5898,1.5498,0.0,0.0,0.0,0.0,0.0,1.3425,1.3135,1.2937,1.2818,1.2565,1.2431,1.2357,1.2224,1.2126,1.2076,0.0,0.0,0.0,0.0,0.0,0.0,0.0,0.0,0.0,0.0,0.0,0.0,0.0,0.0,0.0,0.0,0.0,0.0,0.0,0.0,0.0,0.0,0.0,0.0,0.0,0.0,0.0,0.0,0.0,0.0,0.0,0.0,2.7222,0.0,0.0,2.71,2.7066,2.6726,2.6589,2.6624,2.6499,0.0,0.0,0.0,0.0,0.0,0.0,0.0,0.0,2.8663,2.9454,3.0292,3.0958,0.0,0.0,0.0,0.0,0.0,3.4481,3.3563,3.2489,3.185,3.1235,3.0723,3.0267,0.0,0.0,0.0,0.0,0.0,0.0,2.9792,0.0,0.0,0.0,0.0,0.0,0.0,0.0,0.0,0.0,0.0,0.0,0.0,0.0,0.0,0.0,0.0,0.0,0.0,0.0,0.0,1.6826,1.6531,1.6404,1.6531,1.6377,1.5899,1.5488,1.5098,1.4678,1.4211,0.0,0.0,0.0,0.0,1.3379,1.3027,1.2905,1.2881,1.2774,1.2725,1.2725,1.2603,1.2554,1.2554,0.0,0.0,0.0,0.0,0.0,0.0,0.0,0.0,0.0,0.0,0.0,0.0,0.0,0.0,0.0,0.0,0.0,0.0,0.0,0.0,0.0,0.0,0.0,0.0,0.0,0.0,0.0,0.0,0.0,2.5323,2.5838,2.5886,2.599,2.6141,0.0,2.6258,2.6107,2.6037,2.6119,2.627,2.6236,0.0,0.0,0.0,0.0,0.0,0.0,0.0,0.0,2.8066,2.8633,2.9314,3.0253,0.0,0.0,0.0,0.0,0.0,3.4683,3.4264,3.3563,3.2345,3.174,3.131,3.0736,3.0495,0.0,0.0,0.0,0.0,0.0,2.9792,0.0,0.0,0.0,0.0,0.0,0.0,0.0,0.0,0.0,0.0,0.0,0.0,0.0,0.0,0.0,0.0,0.0,0.0,0.0,0.0,0.0,1.585,1.5088,1.5831,1.5801,1.5009,1.494,1.4648,1.4192,1.3773,1.3578,0.0,0.0,0.0,1.2993,1.2935,1.2905,1.2905,1.2881,1.2856,1.2856,1.2856,1.2832,1.2832,0.0,0.0,0.0,0.0,0.0,0.0,0.0,0.0,0.0,0.0,0.0,0.0,0.0,0.0,0.0,0.0,0.0,0.0,0.0,0.0,0.0,0.0,0.0,0.0,0.0,0.0,0.0,0.0,2.4009,2.4491,2.4838,2.5135,2.5382,2.5571,2.5571,2.55,2.5418,2.5418,2.5705,2.615,0.0,0.0,0.0,0.0,0.0,0.0,0.0,0.0,0.0,0.0,2.7738,2.8527,2.9372,0.0,0.0,0.0,0.0,0.0,3.4233,3.4123,3.3749,3.315,3.2596,3.2055,3.1431,3.1073,0.0,0.0,0.0,0.0,0.0,0.0,0.0,0.0,0.0,0.0,0.0,0.0,0.0,0.0,0.0,0.0,0.0,0.0,0.0,0.0,0.0,0.0,0.0,0.0,0.0,0.0,0.0,0.0,1.4785,1.4941,1.4824,1.4434,1.4199,1.3984,1.3753,1.3359,1.3174,0.0,0.0,1.2905,1.2905,1.2905,1.2905,1.2905,1.2905,1.2905,1.2905,1.2905,1.2905,1.2905,0.0,0.0,0.0,0.0,0.0,0.0,0.0,0.0,0.0,0.0,0.0,0.0,0.0,0.0,0.0,0.0,0.0,0.0,0.0,0.0,0.0,0.0,0.0,0.0,0.0,0.0,2.2091,2.2429,2.315,2.3618,2.3936,2.454,2.4838,2.4886,2.4838,2.4755,2.4671,2.4788,2.5215,2.585,0.0,0.0,0.0,0.0,0.0,0.0,0.0,0.0,0.0,0.0,0.0,0.0,0.0,0.0,0.0,3.2123,3.2737,3.3184,3.3672,3.3694,3.363,3.3792,3.338,3.2739,3.2137,3.1857,0.0,0.0,0.0,0.0,0.0,0.0,0.0,0.0,0.0,0.0,0.0,0.0,0.0,0.0,0.0,0.0,0.0,0.0,0.0,0.0,0.0,0.0,0.0,0.0,0.0,0.0,0.0,0.0,1.4547,1.415,1.3958,1.3958,1.3662,1.3457,1.335,1.3027,1.2905,1.2905,1.2905,1.2905,1.2905,1.2905,1.2905,1.2905,1.2905,1.2905,1.2895,1.2773,1.2725,1.2715,0.0,0.0,0.0,0.0,0.0,0.0,0.0,0.0,0.0,0.0,0.0,0.0,0.0,0.0,0.0,0.0,0.0,0.0,0.0,0.0,0.0,0.0,0.0,0.0,0.0,2.1417,2.1558,2.1576,2.2014,2.2515,2.3102,2.39,2.4093,2.374,2.4082,2.4045,2.3737,2.4161,2.46,2.5033,2.5669,0.0,0.0,0.0,0.0,0.0,0.0,0.0,0.0,0.0,0.0,0.0,0.0,0.0,3.0753,3.1897,3.2737,3.3283,3.3266,3.3266,3.3367,3.3873,3.3763,3.3382,3.2775,3.2768,0.0,3.1453,0.0,0.0,0.0,0.0,0.0,0.0,0.0,0.0,0.0,0.0,0.0,0.0,0.0,0.0,0.0,0.0,0.0,0.0,0.0,0.0,0.0,0.0,0.0,0.0,0.0,0.0,1.3793,1.3616,1.3555,1.3555,1.35,1.3301,1.2954,1.2915,1.2905,1.2905,1.2905,1.2905,1.2905,1.2905,1.2905,1.2905,1.2905,1.2905,1.2856,1.2398,1.2252,1.2194,0.0,0.0,0.0,0.0,0.0,0.0,0.0,0.0,0.0,0.0,0.0,0.0,0.0,0.0,0.0,0.0,0.0,0.0,0.0,0.0,0.0,0.0,0.0,1.8855,1.9392,2.0501,2.1026,2.0944,2.1454,2.1959,2.244,2.2767,0.0,2.2852,2.2879,2.2804,2.2698,2.3122,2.3759,2.4515,2.5279,2.6062,0.0,0.0,0.0,0.0,0.0,0.0,0.0,0.0,2.6692,2.7058,0.0,2.8656,2.9495,3.0666,3.1355,3.1853,3.2419,3.2881,3.3324,3.3878,3.42,0.0,0.0,3.3676,3.3532,3.2725,3.235,0.0,0.0,0.0,0.0,0.0,0.0,0.0,0.0,0.0,0.0,0.0,0.0,0.0,0.0,0.0,0.0,0.0,0.0,0.0,0.0,0.0,0.0,0.0,0.0,0.0,0.0,1.3596,1.3406,1.3308,1.318,1.3062,1.2905,1.2905,1.2905,1.2905,1.2905,1.2905,1.2905,1.2905,1.2905,1.2876,1.2588,1.2457,1.2422,1.1973,1.1839,1.1809,0.0,0.0,0.0,0.0,0.0,0.0,0.0,0.0,0.0,0.0,0.0,0.0,0.0,0.0,0.0,0.0,0.0,0.0,0.0,0.0,0.0,0.0,0.0,1.7733,1.7905,1.9365,2.0179,2.0294,2.0964,2.1464,2.1731,0.0,0.0,2.2025,2.1949,2.1883,2.1838,2.2283,2.2987,2.3849,2.4713,2.5507,0.0,0.0,0.0,0.0,0.0,0.0,0.0,0.0,2.6589,0.0,0.0,0.0,0.0,0.0,3.0417,3.1027,3.1974,3.2585,3.3165,3.3979,0.0,0.0,3.4491,3.4464,3.4234,3.352,3.2872,0.0,0.0,0.0,0.0,0.0,0.0,0.0,0.0,0.0,0.0,0.0,0.0,0.0,0.0,0.0,0.0,0.0,0.0,0.0,0.0,0.0,0.0,0.0,0.0,0.0,0.0,1.3779,1.3529,1.3386,1.3107,1.296,1.2954,1.2806,1.2714,1.2676,1.2676,1.2676,1.2676,1.2724,1.2693,1.2559,1.2184,1.2044,1.1995,1.1545,1.1379,1.1359,0.0,0.0,0.0,0.0,0.0,0.0,0.0,0.0,0.0,0.0,0.0,0.0,0.0,0.0,0.0,0.0,0.0,0.0,0.0,0.0,0.0,0.0,0.0,1.6817,1.6873,1.7995,1.8933,1.9606,2.0469,2.0906,2.0906,2.132,0.0,2.1205,2.1387,2.1387,2.1235,2.1678,2.2291,2.2971,2.3815,2.4559,2.5128,0.0,0.0,0.0,0.0,0.0,0.0,0.0,2.6589,2.6748,0.0,0.0,0.0,0.0,3.016,3.0997,3.2034,3.2392,3.2841,3.4174,0.0,0.0,3.5097,3.5098,3.4737,3.3717,0.0,0.0,0.0,0.0,0.0,0.0,0.0,0.0,0.0,0.0,0.0,0.0,0.0,0.0,0.0,0.0,0.0,0.0,0.0,0.0,0.0,0.0,0.0,0.0,0.0,0.0,0.0,1.4142,1.3931,1.38,1.3315,1.3094,1.3079,1.2613,1.2312,1.2203,1.2203,1.2203,1.2203,1.2342,1.2208,1.1897,1.1757,1.1691,1.1632,1.1085,1.0908,1.084,0.0,0.0,0.0,0.0,0.0,0.0,0.0,0.0,0.0,0.0,0.0,0.0,0.0,0.0,0.0,0.0,0.0,0.0,0.0,0.0,0.0,0.0,0.0,0.0,0.0,0.0,1.8722,1.9833,2.0264,2.0537,0.0,0.0,2.0838,2.075,2.0521,2.0335,2.0336,2.077,2.1193,2.1569,2.2585,2.338,2.4015,0.0,0.0,0.0,0.0,0.0,0.0,0.0,0.0,0.0,0.0,0.0,0.0,2.9107,2.9839,3.0577,3.1764,3.2584,0.0,3.4262,0.0,0.0,0.0,3.5533,0.0,0.0,0.0,0.0,0.0,0.0,0.0,0.0,0.0,0.0,0.0,0.0,0.0,0.0,0.0,0.0,0.0,0.0,0.0,0.0,0.0,0.0,0.0,0.0,0.0,0.0,0.0,0.0,0.0,0.0,1.4094,1.386,1.3292,1.2976,1.2858,1.2335,1.2077,1.1987,1.1987,1.1987,1.1999,1.2087,1.2073,1.1943,1.1505,1.1313,1.1231,1.0735,1.0558,1.0558,0.0,0.0,0.0,0.0,0.0,0.0,0.0,0.0,0.0,0.0,0.0,0.0,0.0,0.0,0.0,0.0,0.0,0.0,0.0,0.0,0.0,0.0,0.0,0.0,0.0,1.7307,1.8492,0.0,0.0,0.0,0.0,0.0,2.0605,2.0586,2.0107,1.9912,1.9932,2.0195,2.0487,2.0848,2.178,2.2433,2.2842,0.0,0.0,0.0,0.0,0.0,0.0,0.0,0.0,0.0,0.0,0.0,0.0,2.8739,2.9467,3.0315,3.1889,3.2802,0.0,3.462,3.519,3.5504,3.5504,0.0,0.0,0.0,0.0,0.0,0.0,0.0,0.0,0.0,0.0,0.0,0.0,0.0,0.0,0.0,0.0,0.0,0.0,0.0,0.0,0.0,0.0,0.0,0.0,0.0,0.0,0.0,0.0,0.0,0.0,0.0,0.0,1.3933,1.334,1.2954,1.2786,1.2215,1.187,1.1732,1.1732,1.1796,1.1859,1.1891,1.1851,1.1726,1.1296,1.1084,1.0984,1.0644,1.0553,1.0611,0.0,0.0,0.0,0.0,0.0,0.0,0.0,0.0,0.0,0.0,0.0,0.0,0.0,0.0,0.0,0.0,0.0,0.0,0.0,0.0,0.0,0.0,0.0,0.0,0.0,0.0,0.0,0.0,0.0,0.0,0.0,0.0,2.0605,2.0586,2.0068,1.9853,1.9853,1.9814,2.0049,2.0527,2.1194,2.1551,2.1799,2.2428,0.0,0.0,0.0,0.0,0.0,0.0,0.0,0.0,2.6658,2.7053,2.7623,2.8254,2.9075,3.0202,3.2125,3.296,3.3611,3.5068,3.5459,0.0,3.5429,0.0,0.0,0.0,0.0,0.0,0.0,0.0,0.0,0.0,0.0,0.0,0.0,0.0,0.0,0.0,0.0,0.0,0.0,0.0,0.0,0.0,0.0,0.0,0.0,0.0,0.0,0.0,0.0,0.0,0.0,0.0,0.0,0.0,1.3368,1.2968,1.2777,1.2173,1.1769,1.152,1.152,1.164,1.182,1.182,1.1653,1.1421,1.1142,1.1,1.0916,1.081,1.0859,1.0973,0.0,0.0,0.0,0.0,0.0,0.0,0.0,0.0,0.0,0.0,0.0,0.0,0.0,0.0,0.0,0.0,0.0,0.0,0.0,0.0,0.0,0.0,0.0,0.0,0.0,0.0,0.0,0.0,0.0,0.0,0.0,0.0,0.0,2.0566,0.0,1.9424,1.9394,1.9026,1.916,1.9637,2.0095,2.0603,2.1123,2.1423,2.1852,0.0,0.0,0.0,0.0,0.0,0.0,0.0,2.6624,2.6998,2.7436,2.7973,2.8739,2.9715,3.1217,3.2328,0.0,0.0,3.51,3.537,3.4848,0.0,0.0,0.0,0.0,0.0,0.0,0.0,0.0,0.0,0.0,0.0,0.0,0.0,0.0,0.0,0.0,0.0,0.0,0.0,0.0,0.0,0.0,0.0,0.0,0.0,0.0,0.0,0.0,0.0,1.5439,1.458,1.4011,0.0,1.3156,1.2812,1.2704,1.2153,1.1838,1.1737,1.1737,1.1782,1.1875,1.1875,1.1808,1.1693,1.1523,1.1375,1.1226,1.13,1.1348,1.1423,0.0,0.0,0.0,0.0,0.0,0.0,0.0,0.0,0.0,0.0,0.0,0.0,0.0,0.0,0.0,0.0,0.0,0.0,0.0,0.0,0.0,0.0,0.0,0.0,0.0,0.0,0.0,0.0,0.0,0.0,0.0,0.0,0.0,2.0566,0.0,1.9287,1.9268,1.9043,1.9082,1.9346,1.9971,2.0448,2.078,2.0974,2.1359,2.1921,2.274,0.0,0.0,0.0,0.0,0.0,0.0,0.0,2.6756,2.7005,2.7895,2.9097,3.0475,0.0,0.0,3.4648,0.0,3.5325,3.4668,0.0,0.0,0.0,0.0,0.0,0.0,0.0,0.0,0.0,0.0,0.0,0.0,0.0,0.0,0.0,0.0,0.0,0.0,0.0,0.0,0.0,0.0,0.0,0.0,0.0,0.0,0.0,0.0,0.0,1.4849,1.4294,1.3814,1.3451,1.3108,1.2903,1.2785,1.2347,1.2131,1.2095,1.2095,1.1982,1.1803,1.1803,1.1613,1.1326,1.1467,1.1369,1.1259,1.1648,1.1646,1.1504,0.0,0.0,0.0,0.0,0.0,0.0,0.0,0.0,0.0,0.0,0.0,0.0,0.0,0.0,0.0,0.0,0.0,0.0,0.0,0.0,0.0,0.0,0.0,0.0,0.0,0.0,0.0,0.0,0.0,0.0,0.0,0.0,0.0,2.0566,0.0,1.9394,1.9394,1.9316,1.9326,1.9463,2.0204,2.0537,2.0605,2.078,2.1089,2.1502,2.2252,2.3038,2.3813,2.4599,0.0,0.0,0.0,0.0,2.6024,2.6044,2.6968,2.8258,2.9627,0.0,3.3146,3.4752,3.516,0.0,0.0,0.0,0.0,0.0,0.0,0.0,0.0,0.0,0.0,0.0,0.0,0.0,0.0,0.0,0.0,0.0,0.0,0.0,0.0,0.0,0.0,0.0,0.0,0.0,0.0,0.0,0.0,0.0,0.0,1.4997,1.4116,1.3997,1.3652,1.306,1.2922,1.2775,1.266,1.2385,1.2294,1.2342,1.2247,1.1997,1.1626,1.1626,1.1327,1.0904,1.1247,1.1249,1.116,1.1722,1.1705,1.1382,0.0,0.0,0.0,0.0,0.0,0.0,0.0,0.0,0.0,0.0,0.0,0.0,0.0,0.0,0.0,0.0,0.0,0.0,1.4088,0.0,0.0,1.4995,1.5244,0.0,0.0,0.0,0.0,0.0,0.0,0.0,0.0,0.0,0.0,2.0586,0.0,0.0,1.9805,1.9443,1.9502,1.9844,1.9961,2.0225,2.0605,2.0644,2.077,2.1061,2.1693,2.2327,2.3001,2.3959,2.4671,0.0,0.0,0.0,2.5684,2.5823,2.6378,2.7207,2.8222,0.0,3.202,0.0,3.3769,3.3589,0.0,0.0,0.0,0.0,0.0,0.0,0.0,0.0,0.0,0.0,0.0,0.0,0.0,0.0,0.0,0.0,0.0,0.0,0.0,0.0,0.0,0.0,0.0,0.0,0.0,0.0,1.5768,1.5693,1.4802,0.0,1.4103,1.3584,1.3052,1.25,1.204,1.1798,1.177,1.1724,1.1876,1.2106,1.1643,1.1415,1.1354,1.1354,1.1271,1.1149,1.1206,1.114,1.1046,1.1251,1.1274,1.1245,0.0,0.0,0.0,0.0,0.0,0.0,0.0,0.0,0.0,0.0,0.0,0.0,0.0,0.0,0.0,1.4088,1.4088,1.4088,1.4088,1.4355,1.4583,1.471,1.4997,1.5202,1.5202,0.0,0.0,0.0,0.0,0.0,0.0,1.9552,2.0147,0.0,0.0,0.0,0.0,1.9717,1.9746,1.9932,2.0185,2.0429,2.0605,2.0605,2.0731,2.0945,2.132,2.1845,2.2478,2.3261,2.3995,2.4495,2.4236,0.0,0.0,0.0,2.5385,2.6729,2.8612,3.0249,3.1632,0.0,3.3276,3.3427,0.0,0.0,0.0,0.0,0.0,0.0,0.0,0.0,0.0,0.0,0.0,0.0,0.0,0.0,0.0,0.0,0.0,0.0,0.0,0.0,0.0,0.0,0.0,0.0,0.0,1.6206,1.5668,1.5365,1.4538,0.0,1.3596,1.3027,1.2475,1.1952,1.1701,1.1603,1.159,1.1249,1.1367,1.1818,1.1566,1.1268,1.0968,1.0968,1.0751,1.0448,1.0755,1.0807,1.077,1.118,1.1109,1.088,0.0,0.0,0.0,0.0,0.0,0.0,0.0,0.0,0.0,0.0,0.0,0.0,0.0,0.0,0.0,0.0,1.4088,1.4088,1.4088,1.4289,1.4442,1.4516,1.473,1.485,1.485,0.0,0.0,0.0,0.0,0.0,1.8184,1.9132,1.9888,0.0,2.0566,2.0419,0.0,0.0,0.0,0.0,0.0,2.0605,2.0605,2.0605,2.0693,2.0858,2.1051,2.1436,2.1949,2.2553,2.3261,2.3824,0.0,0.0,0.0,0.0,0.0,0.0,0.0,0.0,3.0755,3.157,3.2375,3.2824,0.0,0.0,0.0,0.0,0.0,0.0,0.0,0.0,0.0,0.0,0.0,0.0,0.0,0.0,0.0,0.0,0.0,0.0,0.0,0.0,0.0,0.0,0.0,0.0,1.6969,1.6213,1.5542,1.4961,1.4283,1.3624,1.3031,1.2312,1.1776,1.1362,1.1224,1.1175,1.115,1.0695,1.0733,1.1175,1.1175,1.091,1.0507,1.0507,1.0229,0.9865,1.0275,1.0383,1.0391,1.0856,1.0773,1.0438,0.0,0.0,0.0,0.0,0.0,0.0,0.0,0.0,0.0,0.0,0.0,0.0,0.0,1.4088,1.4088,1.4088,1.4088,1.4088,1.4088,1.4102,1.4229,1.4509,1.4536,0.0,1.4543,0.0,0.0,0.0,0.0,0.0,1.774,1.9005,1.9709,1.9942,2.0411,2.0595,2.0566,0.0,0.0,0.0,0.0,0.0,0.0,0.0,0.0,0.0,0.0,0.0,2.1359,2.1949,2.2553,0.0,0.0,2.3246,2.3717,0.0,0.0,0.0,0.0,2.8096,0.0,2.9537,0.0,0.0,0.0,0.0,0.0,0.0,0.0,0.0,0.0,0.0,0.0,0.0,0.0,0.0,0.0,0.0,0.0,0.0,0.0,0.0,0.0,0.0,0.0,0.0,0.0,0.0,1.6853,1.5992,1.5222,1.4554,1.3821,1.3158,1.2551,1.1364,1.0769,1.0745,1.0231,0.9981,0.9981,0.9956,0.9956,0.9981,0.9981,0.9968,0.9943,0.9943,0.9931,0.9893,0.9931,0.993,0.9943,0.9968,0.9955,0.993,0.0,0.0,0.0,0.0,0.0,0.0,0.0,0.0,0.0,0.0,0.0,0.0,0.0,1.4088,1.4088,1.4088,1.4088,1.4088,1.4088,1.4088,1.4135,1.4242,1.4242,1.4242,1.4242,0.0,0.0,0.0,0.0,1.5702,1.6235,1.7393,1.8178,1.8691,2.0136,2.0702,2.0605,2.0605,0.0,0.0,0.0,0.0,0.0,0.0,0.0,0.0,0.0,0.0,0.0,0.0,0.0,0.0,2.2149,2.2559,2.3233,2.3773,2.4593,0.0,0.0,0.0,0.0,2.8812,2.9633,0.0,0.0,0.0,0.0,0.0,0.0,0.0,0.0,0.0,0.0,0.0,0.0,0.0,0.0,0.0,0.0,0.0,0.0,0.0,0.0,0.0,0.0,0.0,0.0,0.0,1.7296,1.639,1.5572,1.4844,1.4058,1.3122,1.1997,1.114,1.0532,1.0181,0.9993,0.9905,0.9905,0.9905,0.9905,0.9905,0.9905,0.9905,0.9905,0.9905,0.9905,0.9905,0.9905,0.9905,0.9905,0.9905,0.9905,0.9905,0.0,0.0,0.0,0.0,0.0,0.0,0.0,0.0,0.0,0.0,0.0,0.0,0.0,0.0,1.4275,1.4369,1.4382,1.4335,1.4242,1.4229,1.4188,1.4088,1.4088,1.4088,1.4088,0.0,0.0,0.0,0.0,0.0,0.0,1.619,1.6977,1.7744,1.9293,2.009,0.0,0.0,0.0,2.0605,0.0,0.0,2.0605,0.0,0.0,0.0,0.0,0.0,0.0,0.0,0.0,0.0,0.0,2.2049,2.2822,2.3688,2.445,0.0,2.6055,0.0,0.0,0.0,0.0,0.0,0.0,0.0,0.0,0.0,0.0,0.0,0.0,0.0,0.0,0.0,0.0,0.0,0.0,0.0,0.0,0.0,0.0,0.0,0.0,0.0,0.0,0.0,0.0,0.0,1.7462,1.6721,1.5839,1.4728,1.3772,1.2787,1.1782,1.092,1.0323,0.997,0.9944,0.9944,0.9944,0.9918,0.9905,0.9905,0.9905,0.9905,0.9905,0.9905,0.9905,0.9905,0.9905,0.9905,0.9905,0.9905,0.9905,0.9905,0.0,0.0,0.0,0.0,0.0,0.0,0.0,0.0,0.0,0.0,0.0,0.0,0.0,0.0,0.0,1.4981,1.5008,1.4843,1.4556,1.4522,1.4396,1.4115,1.4088,1.4088,1.4088,0.0,0.0,0.0,0.0,0.0,0.0,0.0,1.6286,1.7261,1.7795,1.863,1.9648,0.0,2.0156,2.0586,0.0,2.0605,2.0605,0.0,0.0,0.0,2.0605,2.0605,0.0,2.0819,0.0,0.0,0.0,2.1718,2.2525,2.3348,2.4232,0.0,0.0,0.0,0.0,0.0,0.0,0.0,0.0,0.0,0.0,0.0,0.0,0.0,0.0,0.0,0.0,0.0,0.0,0.0,0.0,0.0,0.0,0.0,0.0,0.0,0.0,0.0,0.0,0.0,0.0,1.8695,1.7325,1.695,1.5963,1.4173,1.2896,1.2137,1.1919,1.0727,1.0135,1.011,1.0046,1.0008,0.9995,0.9931,0.9906,0.9906,0.9906,0.9906,0.9906,0.9905,0.9905,0.9905,0.9905,0.9905,0.9905,0.9905,0.9905,0.9905,0.0,0.0,0.0,0.0,0.0,0.0,0.0,0.0,0.0,0.0,0.0,0.0,0.0,1.4834,1.4921,1.5001,1.5008,1.4975,1.4888,1.4636,1.4482,1.4402,1.4202,1.4088,1.4088,0.0,0.0,0.0,0.0,0.0,0.0,0.0,0.0,0.0,1.6286,1.7225,1.8373,1.9462,0.0,0.0,2.0478,2.0605,0.0,0.0,0.0,0.0,0.0,2.0605,2.0605,0.0,2.063,2.0616,0.0,0.0,2.1877,2.2919,2.3767,0.0,2.5495,0.0,0.0,0.0,0.0,0.0,0.0,0.0,0.0,0.0,0.0,0.0,0.0,0.0,0.0,0.0,0.0,0.0,0.0,0.0,0.0,0.0,0.0,0.0,0.0,0.0,0.0,0.0,0.0,1.9149,1.8258,1.6999,1.5809,1.4718,1.3738,1.293,1.234,1.1441,1.0756,1.0324,1.0199,1.0135,1.0135,1.0085,1.0046,1.0046,1.0046,1.0046,1.0046,0.9931,0.9905,0.9905,0.9905,0.9905,0.9905,0.9905,0.9905,0.9905,0.0,0.0,0.0,0.0,0.0,0.0,0.0,0.0,0.0,0.0,0.0,0.0,0.0,0.0,1.5197,1.5311,1.5324,1.5277,1.515,1.487,1.4649,1.4522,1.4242,1.4088,0.0,0.0,0.0,0.0,0.0,0.0,0.0,0.0,0.0,0.0,0.0,0.0,0.0,0.0,0.0,0.0,2.0195,0.0,0.0,2.0605,2.0605,0.0,0.0,0.0,2.0576,2.0352,2.0145,0.0,0.0,0.0,0.0,0.0,0.0,0.0,0.0,0.0,0.0,0.0,0.0,0.0,2.7299,2.7096,0.0,0.0,0.0,0.0,0.0,0.0,0.0,0.0,0.0,0.0,0.0,0.0,0.0,0.0,0.0,0.0,0.0,0.0,0.0,0.0,1.9654,1.9215,1.8242,1.696,1.5907,1.5101,1.422,1.3428,1.272,1.1912,1.12,1.056,1.0399,1.0337,1.0362,1.0236,1.0211,1.0211,1.0198,1.0186,1.0186,1.0097,1.0021,0.9931,0.9931,0.9931,0.9905,0.9905,0.9905,0.9905,0.0,0.0,0.0,0.0,0.0,0.0,0.0,0.0,0.0,0.0,0.0,0.0,0.0,0.0,0.0,0.0,1.5784,1.5718,1.5464,1.517,0.0,0.0,0.0,0.0,0.0,0.0,0.0,0.0,0.0,0.0,0.0,0.0,0.0,0.0,0.0,0.0,0.0,0.0,0.0,1.9816,1.9855,2.0176,0.0,0.0,2.0605,0.0,2.0546,2.0537,2.0458,1.9932,1.9594,0.0,0.0,0.0,0.0,0.0,2.1885,0.0,0.0,0.0,0.0,0.0,0.0,0.0,2.6227,2.6116,2.5841,0.0,0.0,0.0,0.0,0.0,0.0,0.0,0.0,0.0,0.0,0.0,0.0,0.0,0.0,0.0,0.0,0.0,0.0,1.9708,1.9708,1.9119,1.7796,1.7017,1.6272,1.5459,1.4615,1.3842,1.3176,1.237,1.1629,1.0957,1.0685,1.0597,1.0632,1.0449,1.0399,1.0449,1.0387,1.0362,1.0362,1.0362,1.0211,1.0021,1.0021,0.9982,0.9931,0.9931,0.9931,0.9931,0.0,0.0,0.0,0.0,0.0,0.0,0.0,0.0,0.0,0.0,0.0,0.0,0.0,0.0,0.0,0.0,1.5784,1.5758,1.5752,1.5471,0.0,0.0,1.4596,0.0,0.0,0.0,0.0,0.0,0.0,0.0,0.0,0.0,0.0,0.0,0.0,0.0,0.0,0.0,0.0,1.9232,1.9701,0.0,2.0605,2.0605,2.0605,2.0556,2.0166,2.0039,1.9922,0.0,1.8911,1.9053,0.0,0.0,0.0,0.0,0.0,0.0,0.0,0.0,0.0,0.0,0.0,0.0,2.5116,2.4926,2.47,0.0,0.0,0.0,0.0,0.0,0.0,0.0,0.0,0.0,0.0,0.0,0.0,0.0,0.0,0.0,0.0,0.0,1.9708,1.9708,1.9708,1.9346,1.8536,1.7781,1.7062,1.6379,1.555,1.4834,1.4207,1.3352,1.2617,1.2003,1.1252,1.0908,1.092,1.0825,1.0789,1.0801,1.0789,1.0741,1.0693,1.0693,1.0485,1.0161,1.0161,1.011,1.0059,1.0059,1.0059,1.0059,0.0,0.0,0.0,0.0,0.0,0.0,0.0,0.0,0.0,0.0,0.0,0.0,0.0,0.0,0.0,0.0,0.0,0.0,0.0,0.0,0.0,0.0,0.0,0.0,0.0,0.0,0.0,0.0,0.0,0.0,0.0,0.0,0.0,0.0,0.0,0.0,0.0,0.0,1.7776,1.8735,1.936,0.0,2.0605,2.0605,2.0468,2.0215,1.999,1.9602,1.9173,1.8744,1.8601,0.0,0.0,1.8852,1.9008,0.0,1.9825,2.0193,0.0,0.0,0.0,2.2824,0.0,0.0,0.0,2.3768,2.3504,0.0,0.0,0.0,0.0,0.0,0.0,0.0,0.0,0.0,0.0,0.0,0.0,0.0,0.0,0.0,0.0,0.0,1.9708,1.9708,1.9708,1.9405,1.8747,1.8354,1.7694,1.668,1.6231,1.5551,1.4605,1.3768,1.3021,1.2381,1.1582,1.1227,1.125,1.1143,1.112,1.1143,1.1108,1.087,1.05,1.05,1.0174,0.9699,1.02,1.0349,1.0311,1.0311,1.0311,1.0299,0.8333,0.0,0.0,0.0,0.0,0.0,0.0,0.0,0.0,0.0,0.0,0.0,0.0,0.0,0.0,0.0,0.0,0.0,0.0,0.0,0.0,0.0,0.0,1.4636,0.0,0.0,0.0,0.0,0.0,0.0,0.0,0.0,0.0,0.0,0.0,0.0,0.0,0.0,0.0,1.8382,0.0,1.9678,2.0478,2.0478,2.0225,1.9893,1.9727,1.9134,1.8481,1.8481,0.0,1.8269,1.8414,1.8451,0.0,0.0,0.0,0.0,0.0,0.0,0.0,0.0,0.0,2.1653,0.0,0.0,0.0,2.2746,0.0,0.0,0.0,0.0,0.0,0.0,0.0,0.0,0.0,0.0,0.0,0.0,0.0,0.0,0.0,0.0,1.9708,1.9708,1.9708,1.9468,1.8927,1.8777,1.8192,1.713,1.6769,1.6129,1.5102,1.4059,1.3273,1.2714,1.185,1.1478,1.1523,1.1407,1.1384,1.1429,1.1258,1.0835,1.0268,1.013,0.9729,0.9272,1.0144,1.0433,1.0398,1.0531,1.0584,1.0572,0.8333,0.8832,0.0,0.0,0.0,0.0,0.0,0.0,0.0,0.0,0.0,0.0,0.0,0.0,0.0,0.0,0.0,0.0,1.5798,0.0,0.0,0.0,0.0,0.0,1.4529,0.0,0.0,0.0,0.0,0.0,0.0,0.0,0.0,0.0,1.4586,0.0,0.0,0.0,1.7383,0.0,1.8515,1.9192,0.0,1.999,1.9961,1.9814,1.9017,1.8442,1.8076,0.0,1.8047,1.8076,0.0,1.7878,1.7449,0.0,0.0,0.0,0.0,0.0,0.0,0.0,2.0473,0.0,0.0,0.0,2.2114,2.224,0.0,0.0,0.0,0.0,0.0,0.0,0.0,0.0,0.0,0.0,0.0,0.0,0.0,0.0,0.0,0.0,0.0,1.9708,1.9708,1.9678,1.9588,1.9016,1.8627,1.8493,1.7309,1.6622,1.6472,1.4613,1.3638,1.3562,1.2205,1.1582,1.1593,1.1571,1.1571,1.1553,1.0999,1.0689,1.051,0.9913,0.9581,0.9494,0.9901,1.0021,1.0034,1.0631,1.0849,1.0849,0.8137,0.8737,0.0,0.0,0.0,0.0,0.0,0.0,0.0,0.0,0.0,0.0,0.0,0.0,0.0,0.0,0.0,1.6219,0.0,0.0,0.0,0.0,0.0,0.0,0.0,0.0,1.4382,0.0,1.4088,0.0,0.0,0.0,0.0,0.0,1.4912,0.0,1.5554,0.0,0.0,0.0,0.0,0.0,0.0,1.9453,1.9394,1.9056,1.8461,1.812,1.8008,0.0,1.8008,0.0,0.0,0.0,0.0,0.0,0.0,0.0,0.0,0.0,0.0,0.0,0.0,0.0,0.0,0.0,2.0762,0.0,0.0,0.0,0.0,0.0,0.0,0.0,0.0,0.0,0.0,0.0,0.0,0.0,0.0,0.0,0.0,0.0,0.0,0.0,0.0,2.0109,1.9723,1.942,1.9091,1.8717,1.7788,1.71,1.6696,1.5129,1.4145,1.3744,1.2763,1.2097,1.1714,1.1714,1.1495,1.1124,1.0871,1.0293,0.9537,0.9248,0.8884,0.8555,0.9058,0.9427,0.9703,0.9985,1.0095,1.0151,0.7988,0.0,0.0,0.0,0.0,0.0,0.0,0.0,0.0,0.0,0.0,0.0,1.6947,1.6947,0.0,0.0,1.656,1.6359,0.0,0.0,1.5784,0.0,0.0,0.0,0.0,0.0,1.4496,0.0,0.0,0.0,0.0,0.0,0.0,0.0,0.0,1.5366,1.5637,0.0,0.0,1.7567,1.8166,1.8432,1.8481,1.8945,1.8838,1.8393,1.8081,1.8008,1.8008,1.8008,1.7939,0.0,1.748,0.0,0.0,0.0,0.0,0.0,1.734,0.0,0.0,0.0,0.0,0.0,0.0,0.0,0.0,0.0,0.0,0.0,0.0,0.0,0.0,0.0,0.0,0.0,0.0,0.0,0.0,0.0,0.0,0.0,0.0,0.0,0.0,0.0,2.0703,0.0,1.9738,1.9708,1.9483,1.8986,1.8311,1.7637,1.698,1.571,1.4648,1.3782,1.3118,1.2445,1.1805,1.1805,1.142,1.0783,1.0628,0.9901,0.881,0.8623,0.8258,0.7871,0.8301,0.8722,0.9104,0.944,0.9561,0.9648,0.7988,0.8233,0.0,0.0,0.0,0.0,0.0,0.0,0.0,0.0,0.0,0.0,0.0,0.0,0.0,0.0,0.0,1.6573,1.6342,0.0,1.5784,0.0,0.0,1.5678,0.0,0.0,1.4803,1.4502,1.4222,0.0,0.0,0.0,0.0,0.0,0.0,1.4857,1.5292,1.6237,1.6978,1.7539,1.7891,1.8037,1.8076,0.0,1.8364,1.8027,1.8018,0.0,0.0,1.8008,1.7744,0.0,0.0,0.0,0.0,0.0,0.0,0.0,0.0,0.0,0.0,1.7694,0.0,0.0,0.0,0.0,1.8746,0.0,0.0,0.0,0.0,0.0,0.0,0.0,0.0,0.0,0.0,0.0,0.0,0.0,0.0,0.0,0.0,0.0,0.0,0.0,2.0703,0.0,1.9738,1.9708,1.9693,1.9678,1.9016,1.8341,1.7667,1.6398,1.511,1.3782,1.3118,1.2445,1.1805,1.1805,1.142,1.0768,1.0189,0.9533,0.8845,0.8199,0.7914,0.7899,0.7922,0.7937,0.8094,0.9257,0.9692,0.9794,0.0,0.0,0.0,0.0,0.0,0.0,0.0,1.5504,0.0,0.0,0.0,0.0,0.0,0.0,1.7769,0.0,0.0,1.666,1.6567,1.6099,0.0,0.0,0.0,1.5691,0.0,0.0,1.501,1.4522,1.4422,0.0,0.0,0.0,0.0,0.0,0.0,1.4881,0.0,0.0,0.0,0.0,0.0,1.8008,1.8027,0.0,0.0,1.8008,1.8008,1.7832,0.0,1.7598,1.7305,1.6904,1.6633,1.6339,1.6066,1.594,1.5985,0.0,0.0,0.0,1.6834,1.6585,0.0,0.0,0.0,0.0,0.0,0.0,0.0,0.0,0.0,0.0,0.0,0.0,0.0,0.0,0.0,0.0,0.0,0.0,0.0,0.0,0.0,0.0,0.0,2.144,2.1365,2.0872,0.0,1.9708,1.9708,1.9708,1.9046,1.8371,1.7697,1.6816,1.5531,1.3797,1.357,1.2882,1.1805,1.1805,1.142,1.0768,1.0159,0.9518,0.8845,0.8177,0.7899,0.7899,0.7899,0.7899,0.7952,0.8355,0.8511,0.8675,0.7988,0.0,0.0,0.0,0.0,0.0,0.0,0.0,0.0,0.0,1.7469,0.0,1.7756,0.0,1.7762,0.0,1.6981,1.666,1.656,1.6099,0.0,1.5784,1.5784,0.0,0.0,0.0,1.5157,1.4676,0.0,1.4315,0.0,0.0,0.0,0.0,0.0,0.0,1.5016,0.0,1.6988,0.0,0.0,1.8008,0.0,0.0,1.8008,0.0,0.0,1.7607,1.7363,1.7207,1.6855,1.6445,1.6183,1.5987,1.5811,1.5625,1.5572,1.5595,1.5681,1.5785,0.0,0.0,1.569,0.0,1.5422,0.0,0.0,0.0,0.0,0.0,0.0,0.0,0.0,0.0,0.0,0.0,0.0,2.1254,0.0,0.0,0.0,0.0,0.0,0.0,2.279,2.1784,2.1485,2.0857,0.0,0.0,1.9708,1.9708,1.9271,1.8732,1.8057,1.7384,1.6189,1.4511,1.4034,1.3226,1.216,1.191,1.142,1.0783,1.0389,0.9719,0.886,0.8432,0.8109,0.7899,0.7899,0.8049,0.8222,0.7989,0.8199,0.8731,0.0,0.0,0.0,0.0,0.9961,0.0,0.0,0.0,1.6005,0.0,1.7437,1.7709,1.7922,1.7749,1.7514,1.7206,1.6854,0.0,1.6342,1.5999,0.0,0.0,1.5784,1.5784,1.5784,0.0,0.0,0.0,0.0,0.0,0.0,0.0,0.0,0.0,1.3606,0.0,1.4637,1.5807,1.6664,1.727,1.7794,1.8008,1.8008,1.7988,0.0,1.793,1.7529,1.7353,1.7256,1.6804,1.6406,1.6065,1.6065,1.5762,1.5381,1.5381,1.5173,1.4951,1.4951,1.478,1.4582,1.4552,0.0,0.0,0.0,0.0,1.4736,0.0,0.0,0.0,0.0,0.0,0.0,0.0,0.0,0.0,0.0,0.0,0.0,0.0,0.0,0.0,0.0,2.2837,2.234,2.1799,2.1171,0.0,0.0,0.0,0.0,1.9708,1.9708,1.9393,1.8734,1.8059,1.7071,1.5784,1.4438,1.3451,1.2786,1.2115,1.1461,1.0852,1.0822,1.0108,0.895,0.8928,0.8529,0.7944,0.7944,0.8357,0.8875,0.8237,0.8829,0.9959,0.7988,0.7988,0.8137,0.0,1.0109,1.1658,0.0,0.0,0.0,0.0,1.7444,1.7789,1.7422,1.7502,1.7375,1.686,1.6553,0.0,0.0,0.0,0.0,1.5784,1.5784,1.5784,1.5784,1.5545,0.0,1.5008,0.0,0.0,1.36,0.0,0.0,0.0,0.0,0.0,1.4338,1.571,1.6872,1.7803,1.794,1.8008,0.0,0.0,1.7539,1.7529,1.7422,1.6995,1.6418,1.63,1.5947,1.5576,1.5576,1.5293,1.4941,1.4941,1.4666,1.4334,1.4334,1.4272,1.4169,1.3844,1.3878,1.3871,0.0,0.0,0.0,0.0,0.0,0.0,0.0,0.0,0.0,0.0,0.0,0.0,0.0,0.0,0.0,2.1106,0.0,0.0,2.2963,2.315,2.301,2.2473,2.2283,0.0,0.0,0.0,0.0,1.9795,1.9762,1.9499,1.8936,1.8222,1.718,1.587,1.4465,1.3451,1.2786,1.2159,1.1779,1.1584,1.1142,1.0453,0.9613,0.9149,0.8839,0.8649,0.8649,0.9055,0.9619,0.9454,0.992,1.0651,0.7988,0.0,0.0,0.8882,0.0,0.0,1.2623,0.0,0.0,1.6427,1.7075,0.0,1.7226,1.7181,1.7014,1.656,1.6366,0.0,0.0,0.0,0.0,1.5645,1.5645,1.5578,1.5451,1.5291,0.0,1.477,0.0,0.0,1.3413,0.0,0.0,0.0,0.0,1.3811,0.0,1.6026,1.7192,1.8008,1.8008,0.0,0.0,1.7471,1.7171,1.6838,1.6838,1.6515,1.6065,1.587,1.5615,1.5381,1.5195,1.4971,1.4746,1.4551,1.4172,1.3831,1.3831,1.3695,1.3525,1.3291,1.3282,1.3298,1.3061,1.3162,1.331,0.0,0.0,0.0,0.0,0.0,0.0,0.0,0.0,0.0,0.0,0.0,0.0,0.0,2.1215,0.0,2.2663,2.282,2.2844,2.2697,0.0,0.0,0.0,0.0,0.0,0.0,2.0056,1.9793,1.948,1.8489,1.7591,1.6789,1.4828,1.3699,1.3289,1.2409,1.1991,1.1976,1.1658,1.1124,1.044,1.0068,0.9716,0.9455,0.9743,1.0109,1.051,1.0865,1.0981,1.0989,0.0,0.0,0.0,0.0,0.0,0.0,0.0,1.3771,0.0,1.6144,0.0,1.6794,1.7058,1.68,1.6533,1.6239,0.0,1.6052,1.5792,1.5684,1.5605,1.5351,1.5337,1.5224,1.5015,1.4975,0.0,0.0,0.0,0.0,0.0,0.0,0.0,0.0,0.0,0.0,0.0,1.6524,1.752,0.0,1.7949,1.7705,1.7406,1.7256,1.677,1.6085,1.6026,1.6007,1.5938,1.5478,1.5332,1.5254,1.4834,1.4658,1.4541,1.4133,1.3724,1.3428,1.3428,1.3164,1.2905,1.2905,1.2905,1.2905,1.2905,1.2978,1.3089,1.3204,1.3718,0.0,0.0,0.0,0.0,0.0,0.0,0.0,0.0,0.0,0.0,0.0,0.0,0.0,0.0,2.2337,0.0,0.0,0.0,0.0,0.0,0.0,0.0,0.0,2.0467,0.0,2.0187,0.0,1.8129,1.8035,1.531,1.4029,1.3983,1.2713,1.2133,1.2143,1.2216,1.1875,1.1225,1.1177,1.0786,1.0307,1.0982,1.1297,1.1451,1.2164,1.1968,1.1329,0.0,0.0,0.0,0.0,0.0,1.1839,1.284,1.4154,1.5357,1.6194,1.6546,1.6633,1.6496,1.6429,1.6233,1.5932,1.5685,0.0,0.0,0.0,0.0,1.5089,1.5082,1.5062,1.5008,1.4723,1.4569,0.0,0.0,0.0,0.0,0.0,0.0,0.0,0.0,0.0,1.628,1.6915,0.0,1.7978,1.7637,1.7451,1.7337,1.6604,1.6232,1.6046,1.5654,1.5527,1.5459,1.5039,1.4921,1.4814,1.4358,1.3987,1.3721,1.3643,1.332,1.3013,1.3013,1.2964,1.2905,1.2905,1.2905,1.2905,1.2905,1.2929,1.3017,1.33,1.3634,1.4022,1.4535,0.0,0.0,0.0,0.0,0.0,0.0,0.0,0.0,0.0,0.0,0.0,0.0,0.0,0.0,0.0,0.0,0.0,0.0,0.0,0.0,0.0,0.0,0.0,0.0,0.0,0.0,1.8377,1.5538,1.4154,1.412,1.2839,1.2292,1.2343,1.2475,1.2113,1.1458,1.1424,1.1261,1.1076,1.1812,1.2141,1.2226,1.2527,1.2591,1.2495,0.0,0.0,0.0,0.0,0.0,0.0,0.0,1.4642,0.0,1.5849,1.6106,1.6199,1.6059,1.5912,1.5758,1.5618,1.5337,1.517,1.517,1.5089,1.4874,1.4566,1.4509,0.0,1.4062,1.4026,1.4068,1.4223,0.0,0.0,0.0,0.0,0.0,0.0,0.0,1.5727,0.0,0.0,0.0,1.7666,1.7461,1.7142,1.6682,1.6251,1.5948,1.5664,1.5234,1.5088,1.5059,1.4882,1.4639,1.4375,1.3919,1.3646,1.3467,1.3242,1.3037,1.2905,1.2905,1.2905,1.2905,1.2905,1.2905,1.2905,1.2905,1.2905,1.2992,1.3324,1.3681,1.4176,1.5062,1.5759,0.0,0.0,0.0,0.0,0.0,0.0,0.0,0.0,0.0,0.0,0.0,0.0,0.0,0.0,0.0,0.0,0.0,0.0,0.0,0.0,0.0,0.0,0.0,0.0,0.0,1.8617,1.5807,1.4441,1.4362,1.3047,1.2481,1.2555,1.2703,1.2551,1.223,1.2185,1.2083,1.1958,1.2354,1.2565,1.2684,1.2804,1.2922,1.2993,0.0,0.9719,0.0,0.0,1.25,0.0,0.0,1.4975,1.5421,1.5534,1.563,1.5684,1.5684,1.5478,1.5304,1.5304,1.4977,1.4821,1.4821,1.4707,1.4425,1.3921,1.3936,1.3756,1.3253,1.3509,1.3777,0.0,0.0,0.0,0.0,0.0,0.0,0.0,0.0,0.0,0.0,0.0,1.7499,1.7363,1.721,1.6711,1.6085,1.5987,1.5654,1.5234,1.4902,1.4668,1.4512,1.4512,1.4287,1.3899,1.3506,1.3379,1.3311,1.3003,1.2905,1.2905,1.2905,1.2905,1.2905,1.2905,1.2905,1.2905,1.2905,1.2929,1.3041,1.3372,1.3884,1.457,1.5547,1.5903,0.0,0.0,0.0,0.0,0.0,0.0,0.0,0.0,0.0,0.0,0.0,0.0,0.0,0.0,0.0,0.0,0.0,0.0,0.0,0.0,0.0,0.0,2.1408,0.0,1.9072,0.0,1.6264,1.4964,1.4863,1.3673,1.3167,1.3232,1.338,1.3329,1.3174,1.2934,1.2785,1.2687,1.2741,1.2848,1.2957,1.3022,1.3128,1.3207,0.0,0.0,0.0,0.0,0.0,0.0,0.0,1.4815,1.5238,1.5697,1.5598,1.5438,1.5438,1.5223,1.5048,1.5048,1.4489,1.4168,1.4168,1.3667,1.3347,1.3293,1.3472,1.3517,1.3463,1.3856,1.4073,0.0,0.0,0.0,0.0,0.0,0.0,0.0,0.0,0.0,0.0,1.7245,1.7238,1.7314,1.6545,1.6163,1.6046,1.5625,1.5215,1.4834,1.4795,1.4287,1.3633,1.3633,1.3603,1.3496,1.3076,1.2964,1.2954,1.2915,1.2905,1.2905,1.2905,1.2905,1.2905,1.2905,1.2905,1.2905,1.2905,1.2978,1.3172,1.3501,1.4443,1.53,1.5703,1.5991,1.6404,0.0,0.0,0.0,0.0,0.0,0.0,0.0,0.0,0.0,0.0,0.0,0.0,0.0,0.0,0.0,0.0,0.0,0.0,0.0,0.0,2.2263,2.2459,2.0414,0.0,1.9323,1.7048,1.5926,1.5848,1.5174,1.4899,1.4967,1.5117,1.4791,1.4105,1.3304,1.2961,1.2961,1.2977,1.3013,1.3093,1.3166,1.3235,1.3303,0.0,0.0,0.0,0.0,0.0,0.0,0.0,1.4851,1.5086,1.5291,1.5211,1.5182,1.5182,1.487,1.4629,1.4449,1.4062,1.3748,1.3574,1.3446,1.3309,1.3088,1.3383,1.3529,1.3497,1.3977,1.4366,0.0,0.0,0.0,0.0,0.0,0.0,0.0,0.0,1.6914,1.7221,1.6963,1.6772,1.6594,1.6232,1.5938,1.5625,1.5195,1.4932,1.4745,1.4209,1.3799,1.3467,1.3213,1.3135,1.3105,1.2954,1.2905,1.2905,1.2905,1.2905,1.2905,1.2905,1.2905,1.2905,1.2905,1.2905,1.2929,1.3002,1.3089,1.3286,1.375,1.4709,1.558,1.5869,1.6175,1.6467,0.0,0.0,0.0,0.0,0.0,0.0,0.0,0.0,0.0,0.0,0.0,0.0,0.0,0.0,0.0,0.0,0.0,0.0,2.4027,0.0,2.2865,2.2717,2.0633,1.9584,1.9551,1.7368,1.6292,1.6219,1.5576,1.5311,1.5382,1.5479,1.5086,1.4333,1.3985,1.3557,1.3114,1.3114,1.3157,1.3226,1.3252,1.3295,1.3354,1.1702,0.0,1.302,0.0,1.3909,1.4347,1.4458,1.4615,1.4687,1.4469,1.4449,1.4559,1.4733,1.4369,1.4048,1.3848,1.3594,1.3293,1.3044,1.3281,1.3289,1.3021,1.3502,0.0,1.3811,1.4446,1.4925,1.5312,1.5793,0.0,0.0,0.0,0.0,0.0,1.6614,1.6777,1.6944,1.6655,1.6357,1.6085,1.5948,1.5605,1.5195,1.4902,1.4629,1.4336,1.3721,1.3428,1.3281,1.3013,1.2905,1.2905,1.2905,1.2905,1.2905,1.2905,1.2905,1.2905,1.2954,1.2954,1.2978,1.3041,1.3065,1.3079,1.322,1.3334,1.3634,1.4257,1.5051,1.5758,1.6066,1.6328,1.65,0.0,0.0,0.0,0.0,0.0,0.0,0.0,1.8201,1.9231,2.0532,0.0,0.0,0.0,0.0,0.0,0.0,0.0,0.0,0.0,0.0,0.0,0.0,0.0,1.996,1.9766,1.8019,1.7043,1.6731,1.6285,1.6107,1.617,1.5991,1.5592,1.503,1.4609,1.4086,1.3563,1.3345,1.3286,1.3329,1.3329,1.3371,1.3396,1.2911,1.319,1.3553,1.4083,1.4405,1.4491,1.4139,1.4095,1.3888,1.3307,1.3233,1.3454,1.4035,1.3574,1.3227,1.322,1.3088,1.289,1.2627,1.2987,1.3136,0.0,0.0,1.4374,1.4565,1.5365,1.5798,1.5806,0.0,0.0,1.6783,0.0,0.0,1.6217,1.6348,1.6529,1.6677,1.629,1.6095,1.6056,1.5596,1.5166,1.4823,1.4813,1.4268,1.3516,1.3516,1.3242,1.2915,1.2905,1.2905,1.2905,1.2905,1.2905,1.2905,1.2905,1.2905,1.2929,1.3061,1.3109,1.3148,1.3348,1.3386,1.342,1.3563,1.3797,1.4244,1.5108,1.5558,1.5925,1.6318,1.6457,1.65,1.65,0.0,0.0,0.0,0.0,0.0,0.0,1.8181,1.8924,2.0001,0.0,0.0,0.0,0.0,0.0,0.0,0.0,0.0,2.5394,2.4281,0.0,2.4081,2.1957,2.0599,1.9997,1.9151,1.8346,1.7584,1.7647,1.7704,1.7732,1.701,1.6682,1.6553,1.5095,1.4477,1.4419,1.3676,1.3396,1.3396,1.3396,1.3396,1.3396,1.2674,1.3033,1.3322,1.3339,1.3513,1.3619,1.352,1.3487,1.342,1.324,1.3026,1.3005,1.3192,1.3344,1.3302,0.0,1.3064,1.2973,0.0,1.3048,1.3229,1.3335,1.4032,1.4521,1.474,1.5351,1.5725,1.5867,0.0,0.0,0.0,1.6492,1.6448,1.6319,1.6241,1.6239,1.625,1.5801,1.5713,1.5782,1.5309,1.5109,1.5014,1.4301,1.388,1.3604,1.3233,1.3072,1.3036,1.3036,1.3138,1.3238,1.3238,1.3079,1.2929,1.3012,1.3036,1.3075,1.3272,1.3358,1.3488,1.3621,1.3752,1.386,1.4082,1.4524,1.4994,1.5434,1.5802,1.6144,1.6362,1.6457,1.65,1.65,0.0,0.0,0.0,0.0,0.0,0.0,0.0,1.8988,0.0,2.0759,0.0,0.0,0.0,0.0,0.0,0.0,0.0,0.0,2.4457,0.0,2.4178,2.203,2.0918,2.0809,2.0006,1.9217,1.8463,1.7985,1.7789,1.7783,1.7557,1.7151,1.6665,1.6197,1.5697,1.5189,1.4445,1.4157,1.409,1.3591,1.3396,1.3396,1.281,1.3029,1.3219,1.3041,1.3134,1.3173,1.3053,1.3033,1.2993,1.2886,1.2775,1.2729,1.2729,1.3137,0.0,1.2797,1.3041,0.0,1.2828,1.3364,1.3727,1.3786,1.4531,1.4991,1.5219,0.0,0.0,1.6106,1.6284,1.6303,1.6172,1.6247,1.6181,1.6017,1.5742,1.5606,1.5576,1.5146,1.5082,1.5241,1.4999,1.4888,1.4793,1.4149,1.3811,1.363,1.3276,1.321,1.3306,1.3354,1.344,1.3563,1.361,1.3491,1.332,1.3282,1.333,1.3402,1.3634,1.38,1.3909,1.396,1.4043,1.4136,1.4227,1.4749,1.5262,1.548,1.5932,1.6318,1.6414,1.6479,1.6522,1.6577,0.0,0.0,0.0,0.0,0.0,0.0,0.0,0.0,0.0,2.0357,0.0,0.0,0.0,0.0,0.0,0.0,0.0,2.5897,2.4662,0.0,2.4258,2.2406,2.1366,2.119,2.0369,1.9608,1.8877,1.842,1.8065,1.78,1.78,1.754,1.7094,1.6807,1.6445,1.598,1.5244,1.4786,1.4473,1.4015,1.3684,1.3438,1.3086,1.3086,0.0,0.0,1.3086,0.0,1.2737,1.269,1.2589,1.2278,1.2428,1.2538,1.2538,1.2935,1.2993,1.2473,0.0,0.0,0.0,1.3867,1.4433,1.4315,1.5124,0.0,1.5824,1.6132,1.627,1.6242,1.6418,1.6338,1.5958,1.5958,1.5743,1.5274,1.4922,1.4774,1.4745,1.4451,1.4407,1.4539,1.4651,1.4568,1.4354,1.4322,1.4042,1.3644,1.3634,1.3634,1.3668,1.3787,1.3868,1.3905,1.4048,1.4095,1.4048,1.3729,1.3739,1.3905,1.4186,1.4328,1.4404,1.4346,1.4327,1.4263,1.4075,1.4532,1.5069,1.5335,1.5909,1.6377,1.6488,1.65,1.6543,1.6675,1.6825,1.7044,1.737,0.0,0.0,0.0,0.0,0.0,0.0,2.0277,2.1077,0.0,0.0,0.0,0.0,0.0,0.0,2.6136,2.4896,2.4257,2.4334,2.2921,2.1886,2.1258,2.0471,1.9693,1.8961,1.891,1.8504,1.78,1.78,1.78,1.7749,1.7061,1.6815,1.6805,1.6087,1.5373,1.4751,1.4656,1.4178,1.3589,0.0,0.0,1.1815,1.1815,1.1815,1.1788,1.175,1.1737,1.171,1.1608,1.1776,1.195,1.2047,1.2638,1.3013,1.2879,1.3371,1.3752,1.3832,1.4259,1.4526,1.4616,1.5048,1.5162,1.4897,1.509,1.4993,1.4625,1.469,1.4669,1.4562,1.4562,1.4504,1.4406,1.4417,1.4422,1.4422,1.4537,1.4734,1.4956,1.4822,1.486,1.4928,1.4536,1.4307,1.4186,1.3978,1.4035,1.421,1.4257,1.4512,1.4811,1.4823,1.4983,1.5028,1.4385,1.4233,1.435,1.4777,1.4698,1.4511,1.4652,1.4535,1.4369,1.4329,1.4549,1.4905,1.5385,1.5682,1.5999,1.6425,1.65,1.6543,1.6675,1.6939,1.724,1.7591,0.0,0.0,0.0,1.9168,1.9395,1.9574,1.9857,2.0437,0.0,0.0,0.0,0.0,0.0,2.4826,2.5428,2.4775,2.4176,2.3634,2.2738,2.2198,2.204,2.1292,2.05,1.9727,1.9164,1.8504,1.78,1.78,1.78,1.7794,1.7663,1.7667,1.7642,1.6969,1.6591,1.6295,1.5175,1.4641,1.4503,1.1389,1.1389,1.1389,1.1389,1.1389,1.1389,1.1389,1.1389,1.1423,1.1532,1.1771,1.2044,1.2376,1.2979,1.3437,1.3667,1.3958,1.4132,1.4206,1.4607,1.4778,1.4677,1.4879,1.4819,1.4382,1.4437,1.4375,1.4104,1.4104,1.4104,1.4104,1.4104,1.4131,1.4184,1.4156,1.4196,1.4306,1.4423,1.4605,1.4821,1.4902,1.5064,1.5218,1.4982,1.4892,1.4869,1.4743,1.4777,1.4903,1.4937,1.5119,1.5345,1.5401,1.536,1.5203,1.4863,1.4685,1.4641,1.4962,1.4751,1.4429,1.4389,1.4118,1.3852,1.3852,1.415,1.4512,1.4793,1.5101,1.5512,1.612,1.622,1.6393,1.6858,1.7157,1.7496,1.7908,1.8364,0.0,1.9149,1.9395,1.9578,1.9669,1.9922,2.0461,2.1406,0.0,0.0,2.3569,2.3885,2.428,2.4828,2.4298,2.3814,2.3393,2.2682,2.2296,2.2296,2.1929,2.1149,2.0035,1.9661,1.8908,1.7889,1.7889,1.7889,1.7906,1.7955,1.8031,1.8055,1.7769,1.746,1.7084,1.629,1.5793,1.552,1.1296,1.1296,1.1296,1.1323,1.1323,1.133,1.1364,1.1364,1.1431,1.16,1.1937,1.2317,1.277,1.334,1.3856,1.4246,1.436,1.4366,1.4266,1.4751,1.4878,1.453,1.4622,1.4482,1.4026,1.3948,1.3919,1.3919,1.3919,1.3919,1.3945,1.3945,1.4024,1.4162,1.3967,1.4036,1.4293,1.4301,1.4432,1.4663,1.5062,1.53,1.5413,1.5536,1.558,1.558,1.5558,1.5558,1.5568,1.5635,1.5702,1.5712,1.574,1.5447,1.5115,1.5142,1.4933,1.4719,1.4898,1.4651,1.4267,1.3902,1.3495,1.3198,1.3198,1.3596,1.3984,1.4091,1.4481,1.5005,1.5673,1.5891,1.6196,1.6969,1.7381,1.776,1.8266,0.0,1.9026,1.9395,1.9617,1.978,1.9884,2.0204,2.0746,2.1531,2.2001,0.0,0.0,2.3748,2.3938,2.4082,2.3635,2.3342,2.3241,2.2615,2.231,2.231,2.2258,2.15,2.0147,2.0101,1.9321,1.8037,1.8037,1.8037,1.8037,1.8123,1.8173,1.8259,1.8388,1.8129,1.7613,1.7506,1.709,1.6607,1.0727,1.0727,1.0759,1.088,1.088,1.0944,1.1103,1.1135,1.1199,1.1358,1.1643,1.1909,1.2071,1.2746,1.3209,1.3216,1.3691,1.4136,1.4515,1.4376,1.4253,1.4184,1.4211,1.4016,1.3588,1.3262,1.3101,1.3101,1.3101,1.315,1.3259,1.3259,1.3361,1.3551,1.3741,1.3963,1.4236,1.4639,1.4949,1.522,1.5558,1.5758,1.5879,1.5901,1.5923,1.5913,1.578,1.5824,1.5923,1.5923,1.6076,1.6188,1.571,1.5575,1.5503,1.5069,1.4587,1.43,1.4656,1.4461,1.4012,1.3443,1.3243,1.3198,1.3198,1.3261,1.3514,1.4074,1.4257,1.4535,1.5261,1.5821,1.6256,1.6632,1.7383,1.8068,0.0,0.0,1.9325,1.9617,1.983,2.0025,2.02,2.0427,2.0712,2.107,2.1438,2.1798,2.2187,2.24,2.255,2.262,2.3139,2.3105,2.2482,2.2347,2.2338,2.2377,2.1769,2.1075,2.0341,1.9728,1.8968,1.8173,1.8173,1.8173,1.8184,1.8304,1.8381,1.8463,1.8668,1.8717,1.8583,1.7982,1.7666,1.7575,1.0117,1.0178,1.0261,1.0412,1.0495,1.0615,1.0862,1.0891,1.1011,1.1308,1.1545,1.1858,1.2277,1.2807,1.3248,1.3477,1.3609,1.3772,1.4002,1.4068,1.4007,1.3782,1.3773,1.3603,1.3184,1.3003,1.2905,1.2905,1.2978,1.3065,1.3176,1.3296,1.3525,1.3836,1.4116,1.4443,1.4812,1.513,1.5423,1.569,1.6001,1.6154,1.6219,1.6262,1.6272,1.625,1.6197,1.6219,1.6272,1.6272,1.6172,1.5969,1.5699,1.5251,1.479,1.4538,1.4286,1.4072,1.3938,1.3756,1.3546,1.3261,1.3198,1.3198,1.3198,1.3267,1.3416,1.3756,1.3907,1.4228,1.4997,1.5687,1.6334,1.693,1.7735,0.0,0.0,1.9139,1.9487,1.983,2.0063,2.0289,2.0444,2.0778,2.1055,2.126,2.1583,2.1853,2.2049,2.218,2.2268,2.2296,2.2632,2.2634,2.2296,2.2338,2.2173,2.1803,2.1571,2.0918,1.9911,1.9645,1.9105,1.842,1.842,1.842,1.842,1.8563,1.8631,1.8689,1.8887,1.8975,1.8972,1.8636,1.8526,1.8542,0.9737,0.9853,1.002,1.0214,1.0415,1.0587,1.0887,1.0937,1.1115,1.1539,1.1728,1.2022,1.2616,1.296,1.3281,1.3576,1.3468,1.3359,1.3359,1.3662,1.3675,1.3379,1.3359,1.3213,1.2915,1.2929,1.2954,1.2954,1.3099,1.3224,1.3348,1.361,1.3965,1.4362,1.4628,1.5017,1.5434,1.5657,1.5891,1.611,1.6328,1.6414,1.6436,1.6479,1.65,1.65,1.65,1.65,1.6475,1.635,1.6045,1.5655,1.5412,1.4765,1.4078,1.3934,1.3914,1.3831,1.3328,1.3198,1.3198,1.3198,1.3215,1.325,1.325,1.334,1.3476,1.3577,1.3745,1.409,1.4813,1.5506,1.6302,1.7184,0.0,0.0,0.0,1.9362,1.9636,2.0043,2.034,2.0562,2.0762,2.1135,2.1449,2.1584,2.1868,2.2089,2.2183,2.2254,2.2296,2.2296,2.2324,2.2324,2.2324,2.2221,2.1894,2.1374,2.1214,2.0599,1.9587,1.9543,1.9208,1.8697,1.8697,1.8697,1.8706,1.8816,1.8878,1.8877,1.9069,1.9144,1.9158,1.9148,1.9182,1.9224,0.9853,0.9991,1.0214,1.0673,1.0965,1.1228,1.1475,1.1644,1.184,1.2184,1.2361,1.2489,1.258,1.2865,1.2937,1.2801,1.2866,1.2954,1.2954,1.2983,1.2983,1.2954,1.2954,1.2935,1.2905,1.3027,1.3085,1.3085,1.3272,1.3515,1.3763,1.4035,1.4398,1.4858,1.513,1.5434,1.5792,1.6035,1.6231,1.6371,1.6457,1.65,1.65,1.65,1.65,1.65,1.65,1.65,1.6425,1.5932,1.5731,1.5537,1.4525,1.4166,1.3984,1.3428,1.3352,1.3408,1.3245,1.3198,1.3198,1.3198,1.3301,1.3391,1.3391,1.348,1.3644,1.3825,1.398,1.4208,1.4646,1.5273,1.6039,1.6967,0.0,0.0,1.9332,1.9642,1.9927,2.0325,2.0596,2.0893,2.1214,2.1495,2.1723,2.1853,2.2063,2.22,2.22,2.2254,2.2296,2.2296,2.2366,2.2391,2.2391,2.1767,2.1515,2.1554,2.0331,1.9791,1.9852,1.9245,1.8967,1.8966,1.8966,1.8966,1.8984,1.9045,1.9077,1.9099,1.9224,1.9293,1.9282,1.9285,1.9282,1.9289,0.9717,0.9886,1.0156,1.0497,1.0878,1.1257,1.1617,1.1774,1.1956,1.2251,1.2345,1.2445,1.2635,1.2757,1.2824,1.2817,1.2881,1.2905,1.2905,1.2905,1.2905,1.2905,1.2978,1.3027,1.3027,1.321,1.3344,1.3416,1.3729,1.4035,1.4291,1.4709,1.504,1.5345,1.5601,1.5901,1.6175,1.6275,1.6371,1.6457,1.65,1.65,1.65,1.65,1.65,1.65,1.65,1.6296,1.5969,1.5768,1.5261,1.4639,1.4242,1.3828,1.3514,1.3381,1.3391,1.3476,1.3556,1.3522,1.3459,1.3459,1.3543,1.3657,1.3708,1.3815,1.3967,1.417,1.4417,1.4688,1.4963,1.5633,1.6281,1.6723,0.0,1.8581,1.9131,1.9687,2.0206,2.0596,2.0925,2.123,2.151,2.1751,2.1928,2.208,2.2197,2.2254,2.2254,2.2324,2.2366,2.2366,2.2555,2.2579,2.246,2.1889,2.1396,2.1034,2.023,1.966,1.9327,1.9126,1.933,1.988,1.988,1.988,1.9862,1.9931,1.9673,1.9224,1.9287,1.9292,1.9292,1.9289,1.9297,1.9297,0.9821,1.0043,1.0334,1.0684,1.1091,1.1469,1.1828,1.2002,1.2175,1.2406,1.2431,1.2505,1.2735,1.2759,1.2808,1.2881,1.2905,1.2905,1.2905,1.2929,1.2954,1.2954,1.3065,1.3162,1.3268,1.3525,1.3729,1.3847,1.4269,1.4593,1.4834,1.5255,1.5568,1.5802,1.6022,1.6241,1.6436,1.6436,1.6457,1.65,1.65,1.65,1.65,1.65,1.65,1.6475,1.63,1.6019,1.5643,1.5311,1.4714,1.4065,1.3937,1.3609,1.334,1.3442,1.3564,1.3643,1.3621,1.3617,1.3588,1.3474,1.3392,1.3369,1.3417,1.3577,1.379,1.4194,1.45,1.4829,1.5225,1.5799,1.632,1.6666,1.7536,1.8403,1.9094,1.9707,2.0296,2.0926,2.1246,2.1526,2.1783,2.1974,2.212,2.2211,2.2268,2.2296,2.2296,2.2349,2.2405,2.2432,2.2685,2.279,2.2685,2.188,2.1271,2.0848,2.0342,1.9867,1.9449,1.977,2.0248,2.0838,2.0838,2.0838,2.0829,2.058,2.0167,1.9654,1.9392,1.9297,1.9297,1.9297,1.9297,1.9297,1.037,1.0565,1.0871,1.1418,1.1728,1.2002,1.2249,1.2431,1.2554,1.2676,1.27,1.2749,1.2881,1.2905,1.2905,1.2905,1.2905,1.2905,1.2905,1.3036,1.3109,1.3109,1.3166,1.3338,1.3597,1.4012,1.4269,1.4396,1.488,1.5164,1.5311,1.5647,1.5947,1.6222,1.634,1.6436,1.65,1.65,1.65,1.65,1.65,1.65,1.6488,1.6488,1.6488,1.6412,1.5881,1.568,1.5537,1.4462,1.4103,1.402,1.3552,1.348,1.3598,1.3598,1.3785,1.3869,1.3342,1.3438,1.3601,1.3197,1.274,1.2411,1.2411,1.2622,1.3039,1.3841,1.4156,1.4557,1.5345,1.5668,1.6067,1.6849,1.712,1.7759,1.9359,1.972,2.0207,2.1289,2.1587,2.1783,2.1984,2.212,2.2242,2.2296,2.2296,2.2296,2.2296,2.2349,2.2432,2.2501,2.2764,2.2982,2.3089,2.1697,2.1084,2.1195,2.0607,2.0343,2.0431,2.1314,2.1751,2.1812,2.1812,2.1812,2.1739,2.0859,2.0511,2.0419,1.9601,1.9297,1.9297,1.9297,1.9297,1.9297,1.1293,1.1452,1.1628,1.1877,1.215,1.2382,1.2554,1.27,1.2808,1.2832,1.2832,1.2856,1.2905,1.2905,1.2905,1.2905,1.2905,1.2929,1.3027,1.3128,1.3286,1.3594,1.3597,1.3752,1.4012,1.4467,1.4789,1.5017,1.5401,1.5669,1.5812,1.6088,1.6275,1.634,1.6436,1.6479,1.65,1.65,1.65,1.65,1.65,1.6262,1.5944,1.5944,1.5734,1.5441,1.5277,1.4999,1.4663,1.4277,1.3945,1.3676,1.3675,1.3741,1.3858,1.4043,1.3848,1.361,1.366,1.3179,1.2686,1.2857,1.2886,1.2899,1.2953,1.3061,1.3225,1.3521,1.4158,1.4719,1.4954,1.5568,1.6114,1.6454,1.7012,1.7837,1.9074,1.9782,2.0543,2.1564,2.1825,2.1972,2.2123,2.2225,2.2282,2.2296,2.2296,2.2324,2.238,2.2487,2.2605,2.2777,2.3095,2.3319,2.345,2.2529,2.2098,2.2188,2.157,2.1296,2.1322,2.1622,2.2089,2.2648,2.2648,2.2648,2.2575,2.1749,2.1051,2.0419,1.9661,1.9364,1.939,1.942,1.9435,1.9435,1.1927,1.2002,1.2126,1.2298,1.248,1.2627,1.2759,1.2856,1.2905,1.2905,1.2905,1.2905,1.2905,1.2905,1.2929,1.2978,1.3041,1.3058,1.2946,1.3084,1.3281,1.3434,1.3603,1.387,1.4237,1.4653,1.4892,1.4943,1.5232,1.5402,1.5494,1.5703,1.5807,1.5807,1.5848,1.5869,1.5869,1.5869,1.5869,1.5869,1.5869,1.5668,1.5387,1.5407,1.5251,1.5031,1.4853,1.4652,1.4372,1.4135,1.3895,1.3719,1.3878,1.4059,1.4198,1.4114,1.3922,1.3667,1.3374,1.2836,1.2353,1.2356,1.2438,1.253,1.2551,1.2638,1.2783,1.3109,1.3682,1.4298,1.4853,1.5452,1.5991,1.6387,1.6968,1.7788,1.9079,1.9727,2.0539,2.1816,2.2017,2.212,2.2225,2.2268,2.2296,2.2296,2.2324,2.238,2.2432,2.2579,2.2777,2.2965,2.3295,2.3538,2.3649,2.3291,2.299,2.2702,2.2383,2.2218,2.2218,2.2584,2.3015,2.3465,2.3465,2.3465,2.34,2.2271,2.149,2.0911,1.9829,1.9442,1.949,1.9519,1.9541,1.9548,1.2332,1.2348,1.2421,1.2676,1.2725,1.2759,1.2881,1.2905,1.2905,1.2905,1.2905,1.2929,1.2929,1.2929,1.3002,1.3123,1.328,1.3195,1.2807,1.3031,1.3118,1.2974,1.3326,1.3758,1.4234,1.4599,1.4668,1.4424,1.4617,1.4715,1.4715,1.4838,1.4896,1.4896,1.4896,1.4896,1.4896,1.4896,1.4896,1.4896,1.4916,1.4878,1.4859,1.4936,1.4974,1.4953,1.458,1.4519,1.4515,1.4025,1.3944,1.4049,1.4133,1.442,1.4606,1.4036,1.3984,1.3896,1.2746,1.2478,1.2394,1.1855,1.1674,1.1649,1.1638,1.1733,1.1991,1.2614,1.2959,1.354,1.4908,1.5352,1.5792,1.6597,1.6964,1.7678,1.9204,1.9601,2.0318,2.1914,2.2163,2.2225,2.2296,2.2296,2.2296,2.231,2.238,2.2446,2.2511,2.2725,2.2914,2.3144,2.3447,2.3653,2.3724,2.3986,2.3728,2.3005,2.3079,2.3116,2.3134,2.3878,2.419,2.419,2.419,2.4153,2.3969,2.2418,2.1755,2.1557,2.0011,1.9504,1.9604,1.9611,1.962,1.9621,1.2759,1.2783,1.2783,1.2856,1.2856,1.2856,1.2905,1.2905,1.2905,1.2905,1.2978,1.3061,1.3061,1.32,1.33,1.3334,1.3243,1.3223,1.3385,1.3184,1.3188,1.3524,1.3767,1.3875,1.3831,1.4308,1.4597,1.4617,1.478,1.4858,1.4858,1.4896,1.4896,1.4896,1.4896,1.4896,1.4896,1.4896,1.4896,1.4896,1.4961,1.4727,1.4372,1.4531,1.4422,1.4162,1.4186,1.4312,1.443,1.4378,1.4324,1.4367,1.4641,1.4828,1.4839,1.44,1.3977,1.349,1.2827,1.2304,1.1951,1.1882,1.1927,1.1959,1.1863,1.1906,1.2037,1.2274,1.286,1.3613,1.4558,1.532,1.608,1.6872,1.7187,1.7711,1.8726,1.9496,2.0308,2.1302,2.1927,2.2282,2.2296,2.2296,2.2324,2.2363,2.2432,2.2538,2.2725,2.2932,2.3193,2.3481,2.3664,2.3845,2.4006,2.4113,2.4059,2.3838,2.3904,2.3933,2.3951,2.4116,2.419,2.419,2.419,2.3841,2.318,2.2196,2.1465,2.0849,1.9929,1.9603,1.9682,1.9745,1.977,1.9757,1.2905,1.2905,1.2929,1.2978,1.3002,1.3027,1.3128,1.3152,1.3152,1.3224,1.3296,1.3354,1.3426,1.3536,1.3575,1.3495,1.3615,1.3542,1.3227,1.3132,1.3122,1.3212,1.3378,1.3471,1.3409,1.3717,1.3921,1.3988,1.4049,1.4086,1.4086,1.4086,1.4086,1.4086,1.4086,1.4086,1.4086,1.4086,1.4123,1.4196,1.4268,1.418,1.4028,1.4223,1.4242,1.417,1.4353,1.4545,1.4686,1.4735,1.4765,1.4824,1.5041,1.4947,1.466,1.4201,1.3659,1.3082,1.2474,1.2129,1.1959,1.2023,1.2096,1.2128,1.2023,1.2075,1.2169,1.2277,1.2706,1.3415,1.4571,1.5238,1.5982,1.7103,1.7427,1.7957,1.9148,1.9715,2.0428,2.1583,2.2073,2.2296,2.2296,2.2338,2.238,2.2446,2.2582,2.2725,2.2932,2.3163,2.3394,2.3642,2.3813,2.3947,2.4094,2.417,2.418,2.4151,2.418,2.419,2.419,2.419,2.419,2.419,2.419,2.3961,2.3483,2.2323,2.1633,2.1209,2.0126,1.9751,1.9804,1.9871,1.9902,1.9908,1.2773,1.2856,1.2929,1.3085,1.3099,1.3186,1.3396,1.3443,1.3515,1.3658,1.3716,1.3787,1.3892,1.3888,1.3828,1.3685,1.393,1.3783,1.2989,1.3059,1.3027,1.2786,1.2873,1.2995,1.3112,1.3163,1.3198,1.3198,1.3198,1.3198,1.3198,1.3198,1.3198,1.3198,1.3198,1.3215,1.3232,1.3232,1.3306,1.3442,1.3527,1.3678,1.3874,1.4098,1.4308,1.4527,1.4793,1.495,1.5074,1.5089,1.5149,1.5238,1.5328,1.4979,1.4416,1.3886,1.3355,1.2784,1.213,1.2044,1.2174,1.2226,1.2282,1.2297,1.2231,1.2282,1.2404,1.2631,1.2819,1.3404,1.4967,1.5395,1.597,1.7304,1.7742,1.8362,1.9639,2.0052,2.0673,2.1972,2.2226,2.2324,2.2324,2.2377,2.246,2.2555,2.2738,2.2927,2.3168,2.3394,2.3609,2.3753,2.3917,2.4054,2.4132,2.417,2.419,2.419,2.419,2.419,2.419,2.419,2.419,2.419,2.4199,2.4136,2.3907,2.2659,2.2092,2.1917,2.0564,2.0079,2.0123,2.0064,2.0026,2.0036,1.2291,1.2617,1.2929,1.3085,1.3152,1.3276,1.3515,1.3668,1.3787,1.3931,1.4152,1.4303,1.4314,1.4272,1.4161,1.3956,1.3572,1.339,1.3486,1.3095,1.2906,1.3037,1.306,1.3112,1.3181,1.3198,1.3198,1.3198,1.3198,1.3198,1.3198,1.3198,1.3198,1.3198,1.3198,1.3267,1.3374,1.3374,1.3459,1.3581,1.3775,1.3927,1.4098,1.4481,1.4702,1.4875,1.5147,1.5269,1.5359,1.5404,1.5404,1.5389,1.5522,1.5151,1.4582,1.403,1.3452,1.2864,1.2306,1.2257,1.2379,1.2439,1.2581,1.2709,1.2716,1.2585,1.2715,1.3599,1.3841,1.4394,1.5999,1.6362,1.6695,1.7541,1.8272,1.8809,1.9029,2.0196,2.1123,2.1326,2.1959,2.2394,2.2394,2.2501,2.2619,2.2751,2.2957,2.3163,2.3435,2.3591,2.3764,2.3947,2.4036,2.4113,2.418,2.4208,2.419,2.419,2.419,2.419,2.419,2.419,2.419,2.419,2.4191,2.3842,2.324,2.3145,2.2768,2.218,2.1343,2.1051,2.1027,2.0399,2.0169,2.0169,1.191,1.209,1.2341,1.264,1.2754,1.2946,1.3378,1.3543,1.3696,1.387,1.3999,1.4097,1.4173,1.4285,1.4192,1.3802,1.3664,1.3521,1.3324,1.3131,1.306,1.3146,1.3163,1.3163,1.3198,1.3198,1.3198,1.3198,1.3198,1.3198,1.3198,1.3198,1.325,1.3306,1.3306,1.3391,1.3527,1.359,1.3728,1.3901,1.4108,1.4321,1.458,1.4872,1.5057,1.5195,1.5388,1.5522,1.5624,1.5653,1.5653,1.5624,1.5682,1.5307,1.4778,1.4567,1.4145,1.3686,1.3528,1.3341,1.3195,1.3265,1.3414,1.3549,1.3623,1.389,1.4123,1.411,1.4523,1.5228,1.6361,1.661,1.7034,1.8182,1.8662,1.921,2.0056,2.0767,2.136,2.1769,2.2163,2.2405,2.2446,2.2646,2.2829,2.2957,2.3223,2.3458,2.3602,2.3764,2.3927,2.4046,2.4113,2.417,2.419,2.419,2.419,2.419,2.419,2.419,2.419,2.419,2.4209,2.4191,2.4238,2.4108,2.3851,2.3534,2.3276,2.3018,2.2277,2.201,2.1986,2.1215,2.0936,2.0855]}]]